[[{"header":{"parameterUnit":"m.s-1","parameterCategory":1,"la1":30.6,"la2":28.766,"lo1":-90.7593,"lo2":-88.6598,"dy":0.0162,"dx":0.0183,"nx":116,"ny":114,"refTime":"2023-08-11T18:00:00:Z","depth":0,"parameterNumber":2,"parameterNumberName":"U-component_of_WINDS"},"data":[0.0,0.0,0.0,0.0,0.0,0.0,0.0,0.0,0.0,0.0,0.0,0.0,0.0,0.0,0.0,0.0,0.0,0.0,0.0,0.0,0.0,0.0,0.0,0.0,0.0,0.0,0.0,0.0,0.0,0.0,0.0,0.0,0.0,0.0,0.0,0.0,0.0,0.0,0.0,0.0,0.0,0.0,0.0,0.0,0.0,0.0,0.0,0.0,0.0,0.0,0.0,0.0,0.0,0.0,0.0,0.0,0.0,0.0,0.0,0.0,0.0,0.0,0.0,0.0,0.0,0.0,0.0,0.0,0.0,0.0,0.0,0.0,0.0,0.0,0.0,0.0,0.0,0.0,0.0,0.0,0.0,0.0,0.0,0.0,0.0,0.0,0.0,0.0,0.0,0.0,0.0,0.0,0.0,0.0,0.0,0.0,0.0,0.0,0.0,0.0,0.0,0.0,0.0,0.0,0.0,0.0,0.0,0.0,0.0,0.0,0.0,0.0,0.0,0.0,0.0,0.0,0.0,0.0,0.0,0.0,0.0,0.0,0.0,0.0,0.0,0.0,0.0,0.0,0.0,0.0,0.0,0.0,0.0,0.0,0.0,0.0,0.0,0.0,0.0,0.0,0.0,0.0,0.0,0.0,0.0,0.0,0.0,0.0,0.0,0.0,0.0,0.0,0.0,0.0,0.0,0.0,0.0,0.0,0.0,0.0,0.0,0.0,0.0,0.0,0.0,0.0,0.0,0.0,0.0,0.0,0.0,0.0,0.0,0.0,0.0,0.0,0.0,0.0,0.0,0.0,0.0,0.0,0.0,0.0,0.0,0.0,0.0,0.0,0.0,0.0,0.0,0.0,0.0,0.0,0.0,0.0,0.0,0.0,0.0,0.0,0.0,0.0,0.0,0.0,0.0,0.0,0.0,0.0,0.0,0.0,0.0,0.0,0.0,0.0,0.0,0.0,0.0,0.0,0.0,0.0,0.0,0.0,0.0,0.0,0.0,0.0,0.0,0.0,0.0,0.0,0.0,0.0,0.0,0.0,0.0,0.0,0.0,0.0,0.0,0.0,0.0,0.0,0.0,0.0,0.0,0.0,0.0,0.0,0.0,0.0,0.0,0.0,0.0,0.0,0.0,0.0,0.0,0.0,0.0,0.0,0.0,0.0,0.0,0.0,0.0,0.0,0.0,0.0,0.0,0.0,0.0,0.0,0.0,0.0,0.0,0.0,0.0,0.0,0.0,0.0,0.0,0.0,0.0,0.0,0.0,0.0,0.0,0.0,0.0,0.0,0.0,0.0,0.0,0.0,0.0,0.0,0.0,0.0,0.0,0.0,0.0,0.0,0.0,0.0,0.0,0.0,0.0,0.0,0.0,0.0,0.0,0.0,0.0,0.0,0.0,0.0,0.0,0.0,0.0,0.0,0.0,0.0,0.0,0.0,0.0,0.0,0.0,0.0,0.0,0.0,0.0,0.0,0.0,0.0,0.0,0.0,0.0,0.0,0.0,0.0,0.0,0.0,0.0,0.0,0.0,0.0,0.0,0.0,0.0,0.0,0.0,0.0,0.0,0.0,0.0,0.0,0.0,0.0,0.0,0.0,0.0,0.0,0.0,0.0,0.0,0.0,0.0,0.0,0.0,0.0,0.0,0.0,0.0,0.0,0.0,0.0,0.0,0.0,0.0,0.0,0.0,0.0,0.0,0.0,0.0,0.0,0.0,0.0,0.0,0.0,0.0,0.0,0.0,0.0,0.0,0.0,0.0,0.0,0.0,0.0,0.0,0.0,0.0,0.0,0.0,0.0,0.0,0.0,0.0,0.0,0.0,0.0,0.0,0.0,0.0,0.0,0.0,0.0,0.0,0.0,0.0,0.0,0.0,0.0,0.0,0.0,0.0,0.0,0.0,0.0,0.0,0.0,0.0,0.0,0.0,0.0,0.0,0.0,0.0,0.0,0.0,0.0,0.0,0.0,0.0,0.0,0.0,0.0,0.0,0.0,0.0,0.0,0.0,0.0,0.0,0.0,0.0,0.0,0.0,0.0,0.0,0.0,0.0,0.0,0.0,0.0,0.0,0.0,0.0,0.0,0.0,0.0,0.0,0.0,0.0,0.0,0.0,0.0,0.0,0.0,0.0,0.0,0.0,0.0,0.0,0.0,0.0,0.0,0.0,0.0,0.0,0.0,0.0,0.0,0.0,0.0,0.0,0.0,0.0,0.0,0.0,0.0,0.0,0.0,0.0,0.0,0.0,0.0,0.0,0.0,0.0,0.0,0.0,0.0,0.0,0.0,0.0,0.0,0.0,0.0,0.0,0.0,0.0,0.0,0.0,0.0,0.0,0.0,0.0,0.0,0.0,0.0,0.0,0.0,0.0,0.0,0.0,0.0,0.0,0.0,0.0,0.0,0.0,0.0,0.0,0.0,0.0,0.0,0.0,0.0,0.0,0.0,0.0,0.0,0.0,0.0,0.0,0.0,0.0,0.0,0.0,0.0,0.0,0.0,0.0,0.0,0.0,0.0,0.0,0.0,0.0,0.0,0.0,0.0,0.0,0.0,0.0,0.0,0.0,0.0,0.0,0.0,0.0,0.0,0.0,0.0,0.0,0.0,0.0,0.0,0.0,0.0,0.0,0.0,0.0,0.0,0.0,0.0,0.0,0.0,0.0,0.0,0.0,0.0,0.0,0.0,0.0,0.0,0.0,0.0,0.0,0.0,0.0,0.0,0.0,0.0,0.0,0.0,0.0,0.0,0.0,0.0,0.0,0.0,0.0,0.0,0.0,0.0,0.0,0.0,0.0,0.0,0.0,0.0,0.0,0.0,0.0,0.0,0.0,0.0,0.0,0.0,0.0,0.0,0.0,0.0,0.0,0.0,0.0,0.0,0.0,0.0,0.0,0.0,0.0,0.0,0.0,0.0,0.0,0.0,0.0,0.0,0.0,0.0,0.0,0.0,0.0,0.0,0.0,0.0,0.0,0.0,0.0,0.0,0.0,0.0,0.0,0.0,0.0,0.0,0.0,0.0,0.0,0.0,0.0,0.0,0.0,0.0,0.0,0.0,0.0,0.0,0.0,0.0,0.0,0.0,0.0,0.0,0.0,0.0,0.0,0.0,0.0,0.0,0.0,0.0,0.0,0.0,0.0,0.0,0.0,0.0,0.0,0.0,0.0,0.0,0.0,0.0,0.0,0.0,0.0,0.0,0.0,0.0,0.0,0.0,0.0,0.0,0.0,0.0,0.0,0.0,0.0,0.0,0.0,0.0,0.0,0.0,0.0,0.0,0.0,0.0,0.0,0.0,0.0,0.0,0.0,0.0,0.0,0.0,0.0,0.0,0.0,0.0,0.0,0.0,0.0,0.0,0.0,0.0,0.0,0.0,0.0,0.0,0.0,0.0,0.0,0.0,0.0,0.0,0.0,0.0,0.0,0.0,0.0,0.0,0.0,0.0,0.0,0.0,0.0,0.0,0.0,0.0,0.0,0.0,0.0,0.0,0.0,0.0,0.0,0.0,0.0,0.0,0.0,0.0,0.0,0.0,0.0,0.0,0.0,0.0,0.0,0.0,0.0,0.0,0.0,0.0,0.0,0.0,0.0,0.0,0.0,0.0,0.0,0.0,0.0,0.0,0.0,0.0,0.0,0.0,0.0,0.0,0.0,0.0,0.0,0.0,0.0,0.0,0.0,0.0,0.0,0.0,0.0,0.0,0.0,0.0,0.0,0.0,0.0,0.0,0.0,0.0,0.0,0.0,0.0,0.0,0.0,0.0,0.0,0.0,0.0,0.0,0.0,0.0,0.0,0.0,0.0,0.0,0.0,0.0,0.0,0.0,0.0,0.0,0.0,0.0,0.0,0.0,0.0,0.0,0.0,0.0,0.0,0.0,0.0,0.0,0.0,0.0,0.0,0.0,0.0,0.0,0.0,0.0,0.0,0.0,0.0,0.0,0.0,0.0,0.0,0.0,0.0,0.0,0.0,0.0,0.0,0.0,0.0,0.0,0.0,0.0,0.0,0.0,0.0,0.0,0.0,0.0,0.0,0.0,0.0,0.0,0.0,0.0,0.0,0.0,0.0,0.0,0.0,0.0,0.0,0.0,0.0,0.0,0.0,0.0,0.0,0.0,0.0,0.0,0.0,0.0,0.0,0.0,0.0,0.0,0.0,0.0,0.0,0.0,0.0,0.0,0.0,0.0,0.0,0.0,0.0,0.0,0.0,0.0,0.0,0.0,0.0,0.0,0.0,0.0,0.0,0.0,0.0,0.0,0.0,0.0,0.0,0.0,0.0,0.0,0.0,0.0,0.0,0.0,0.0,0.0,0.0,0.0,0.0,0.0,0.0,0.0,0.0,0.0,0.0,0.0,0.0,0.0,0.0,0.0,0.0,0.0,0.0,0.0,0.0,0.0,0.0,0.0,0.0,0.0,0.0,0.0,0.0,0.0,0.0,0.0,0.0,0.0,0.0,0.0,0.0,0.0,0.0,0.0,0.0,0.0,0.0,0.0,0.0,0.0,0.0,0.0,0.0,0.0,0.0,0.0,0.0,0.0,0.0,0.0,0.0,0.0,0.0,0.0,0.0,0.0,0.0,0.0,0.0,0.0,0.0,0.0,0.0,0.0,0.0,0.0,0.0,0.0,0.0,0.0,0.0,0.0,0.0,0.0,0.0,0.0,0.0,0.0,0.0,0.0,0.0,0.0,0.0,0.0,0.0,0.0,0.0,0.0,0.0,0.0,0.0,0.0,0.0,0.0,0.0,0.0,0.0,0.0,0.0,0.0,0.0,0.0,0.0,0.0,0.0,0.0,0.0,0.0,0.0,0.0,0.0,0.0,0.0,0.0,0.0,0.0,0.0,0.0,0.0,0.0,0.0,0.0,0.0,0.0,0.0,0.0,0.0,0.0,0.0,0.0,0.0,0.0,0.0,0.0,0.0,0.0,0.0,0.0,0.0,0.0,0.0,0.0,0.0,0.0,0.0,0.0,0.0,0.0,0.0,0.0,0.0,0.0,0.0,0.0,0.0,0.0,0.0,0.0,0.0,0.0,0.0,0.0,0.0,0.0,0.0,0.0,0.0,0.0,0.0,0.0,0.0,0.0,0.0,0.0,0.0,0.0,0.0,0.0,0.0,0.0,0.0,0.0,0.0,0.0,0.0,0.0,0.0,0.0,0.0,0.0,0.0,0.0,0.0,0.0,0.0,0.0,0.0,0.0,0.0,0.0,0.0,0.0,0.0,0.0,0.0,0.0,0.0,0.0,0.0,0.0,0.0,0.0,0.0,0.0,0.0,0.0,0.0,0.0,0.0,0.0,0.0,0.0,0.0,0.0,0.0,0.0,0.0,0.0,0.0,0.0,0.0,0.0,0.0,0.0,0.0,0.0,0.0,0.0,0.0,0.0,0.0,0.0,0.0,0.0,0.0,0.0,0.0,0.0,0.0,0.0,0.0,0.0,0.0,0.0,0.0,0.0,0.0,0.0,0.0,0.0,0.0,0.0,0.0,0.0,0.0,0.0,0.0,0.0,0.0,0.0,0.0,0.0,0.0,0.0,0.0,0.0,0.0,0.0,0.0,0.0,0.0,0.0,0.0,0.0,0.0,0.0,0.0,0.0,0.0,0.0,0.0,0.0,0.0,0.0,0.0,0.0,0.0,0.0,0.0,0.0,0.0,0.0,0.0,0.0,0.0,0.0,0.0,0.0,0.0,0.0,0.0,0.0,0.0,0.0,0.0,0.0,0.0,0.0,0.0,0.0,0.0,0.0,0.0,0.0,0.0,0.0,0.0,0.0,0.0,0.0,0.0,0.0,0.0,0.0,0.0,0.0,0.0,0.0,0.0,0.0,0.0,0.0,0.0,0.0,0.0,0.0,0.0,0.0,0.0,0.0,0.0,0.0,0.0,0.0,0.0,0.0,0.0,0.0,0.0,0.0,0.0,0.0,0.0,0.0,0.0,0.0,0.0,0.0,0.0,0.0,0.0,0.0,0.0,0.0,0.0,0.0,0.0,0.0,0.0,0.0,0.0,0.0,0.0,0.0,0.0,0.0,0.0,0.0,0.0,0.0,0.0,0.0,0.0,0.0,0.0,0.0,0.0,0.0,0.0,0.0,0.0,0.0,0.68,0.6702,0.0,0.0,0.0,0.0,0.0,0.0,0.0,0.0,0.0,0.0,0.0,0.0,0.0,0.0,0.0,0.0,0.0,0.0,0.0,0.0,0.0,0.0,0.0,0.0,0.0,0.0,0.0,0.0,0.0,0.0,0.0,0.0,0.0,0.0,0.0,0.0,0.0,0.0,0.0,0.0,0.0,0.0,0.0,0.0,0.0,0.0,0.0,0.0,0.0,0.0,0.0,0.0,0.0,0.0,0.0,0.0,0.0,0.0,0.0,0.0,0.0,0.0,0.0,0.0,0.0,0.0,0.0,0.0,0.0,0.0,0.0,0.0,0.0,0.0,0.0,0.0,0.0,0.0,0.0,0.0,0.0,0.0,0.0,0.0,0.0,0.0,0.0,0.0,0.0,0.0,0.0,0.0,0.0,0.0,0.0,0.0,0.0,0.0,0.0,0.0,0.0,0.0,0.0,0.0,0.0,0.0,0.0,0.0,0.0,0.0,0.0,0.0,0.0,0.0,0.7041,0.6912,0.0,0.0,0.0,0.0,0.0,0.0,0.0,0.0,0.0,0.0,0.0,0.0,0.0,0.0,0.0,0.0,0.0,0.0,0.0,0.0,0.0,0.0,0.0,0.0,0.0,0.0,0.0,0.0,0.0,0.0,0.0,0.0,0.0,0.0,0.0,0.0,0.0,0.0,0.0,0.0,0.0,0.0,0.0,0.0,0.0,0.0,0.0,0.0,0.0,0.0,0.0,0.0,0.0,0.0,0.0,0.0,0.0,0.0,0.0,0.0,0.0,0.0,0.0,0.0,0.0,0.0,0.0,0.0,0.0,0.0,0.0,0.0,0.0,0.0,0.0,0.0,0.0,0.0,0.0,0.0,0.0,0.0,0.0,0.0,0.0,0.0,0.0,0.0,0.0,0.0,0.0,0.0,0.0,0.0,0.0,0.0,0.0,0.0,0.0,0.0,0.0,0.0,0.0,0.0,0.0,0.0,0.0,0.0,0.7221,0.7288,0.7411,0.7411,0.7482,0.7587,0.7333,0.7221,0.7221,0.7221,0.0,0.0,0.0,0.0,0.0,0.0,0.0,0.0,0.0,0.0,0.0,0.0,0.0,0.0,0.0,0.0,0.0,0.0,0.0,0.0,0.0,0.0,0.0,0.0,0.0,0.0,0.0,0.0,0.0,0.0,0.0,0.0,0.0,0.0,0.0,0.0,0.0,0.0,0.0,0.0,0.0,0.0,0.0,0.0,0.0,0.0,0.0,0.0,0.0,0.0,0.0,0.0,0.0,0.0,0.0,0.0,0.0,0.0,0.0,0.0,0.0,0.0,0.0,0.0,0.0,0.0,0.0,0.0,0.0,0.0,0.0,0.0,0.0,0.0,0.0,0.0,0.0,0.0,0.0,0.0,0.0,0.0,0.0,0.0,0.0,0.0,0.6641,0.6641,0.0,0.0,0.0,0.0,0.0,0.0,0.0,0.0,0.0,0.0,0.0,0.0,0.0,0.7177,0.7312,0.7333,0.7407,0.7539,0.7539,0.755,0.757,0.757,0.758,0.7597,0.7556,0.0,0.7539,0.7539,0.0,0.0,0.0,0.0,0.0,0.0,0.0,0.0,0.0,0.0,0.0,0.0,0.0,0.0,0.0,0.0,0.0,0.0,0.0,0.0,0.0,0.0,0.0,0.0,0.0,0.0,0.0,0.0,0.0,0.0,0.0,0.0,0.0,0.0,0.0,0.0,0.0,0.0,0.0,0.0,0.0,0.0,0.0,0.0,0.6338,0.6338,0.0,0.0,0.0,0.0,0.0,0.0,0.0,0.0,0.0,0.0,0.0,0.0,0.0,0.0,0.0,0.0,0.0,0.0,0.0,0.0,0.0,0.0,0.0,0.0,0.0,0.0,0.0,0.0,0.0,0.0,0.0,0.0,0.0,0.0,0.0,0.0,0.0,0.0,0.0,0.6658,0.6702,0.6702,0.6776,0.6827,0.0,0.0,0.0,0.0,0.0,0.0,0.0,0.0,0.0,0.7397,0.7397,0.7431,0.7499,0.7499,0.7533,0.76,0.76,0.755,0.7531,0.7531,0.7382,0.7167,0.7167,0.7067,0.6955,0.7282,0.7214,0.6938,0.0,0.0,0.0,0.0,0.6949,0.6923,0.0,0.0,0.0,0.0,0.0,0.0,0.0,0.0,0.0,0.0,0.0,0.0,0.0,0.0,0.0,0.5576,0.0,0.0,0.0,0.0,0.0,0.0,0.0,0.0,0.0,0.0,0.0,0.0,0.0,0.0,0.0,0.0,0.0,0.0,0.0,0.0,0.0,0.0,0.6338,0.0,0.0,0.0,0.0,0.0,0.0,0.0,0.0,0.0,0.0,0.0,0.0,0.0,0.0,0.0,0.0,0.0,0.0,0.0,0.0,0.0,0.0,0.0,0.0,0.0,0.0,0.0,0.0,0.0,0.0,0.0,0.0,0.0,0.0,0.0,0.0,0.0,0.0,0.679,0.6814,0.6814,0.6912,0.6983,0.0,0.0,0.0,0.0,0.0,0.0,0.7421,0.7431,0.7482,0.7597,0.76,0.7617,0.7655,0.7692,0.7729,0.7671,0.7711,0.7589,0.7394,0.7294,0.7048,0.6636,0.6535,0.6326,0.6101,0.666,0.6652,0.6274,0.6365,0.6187,0.6084,0.6152,0.6199,0.6189,0.0,0.0,0.0,0.0,0.0,0.0,0.0,0.0,0.0,0.0,0.0,0.0,0.0,0.0,0.5423,0.5576,0.5722,0.5867,0.0,0.0,0.0,0.0,0.0,0.0,0.0,0.0,0.0,0.0,0.0,0.0,0.0,0.0,0.0,0.0,0.0,0.0,0.0,0.0,0.0,0.6274,0.0,0.0,0.0,0.0,0.0,0.0,0.0,0.0,0.0,0.0,0.0,0.0,0.0,0.0,0.0,0.0,0.0,0.0,0.0,0.0,0.0,0.0,0.0,0.0,0.0,0.0,0.0,0.0,0.0,0.0,0.0,0.0,0.0,0.0,0.0,0.0,0.0,0.0,0.0,0.7115,0.7126,0.0,0.0,0.0,0.0,0.735,0.736,0.7428,0.758,0.7587,0.759,0.76,0.76,0.7665,0.7797,0.7943,0.7885,0.7817,0.7956,0.771,0.7191,0.6876,0.6563,0.6353,0.6042,0.551,0.5069,0.5809,0.6024,0.6024,0.5717,0.562,0.5651,0.5754,0.5768,0.5707,0.0,0.0,0.0,0.0,0.0,0.0,0.0,0.0,0.0,0.0,0.0,0.0,0.0,0.545,0.5566,0.5715,0.5864,0.6013,0.6169,0.0,0.0,0.0,0.0,0.0,0.0,0.0,0.0,0.0,0.0,0.0,0.0,0.0,0.0,0.0,0.0,0.0,0.0,0.0,0.0,0.0,0.0,0.6678,0.0,0.0,0.0,0.0,0.0,0.0,0.0,0.0,0.0,0.0,0.0,0.0,0.0,0.0,0.0,0.0,0.0,0.0,0.0,0.0,0.0,0.0,0.0,0.0,0.0,0.0,0.0,0.0,0.0,0.0,0.0,0.0,0.0,0.0,0.0,0.0,0.0,0.7139,0.7227,0.0,0.7288,0.7377,0.7458,0.7512,0.7519,0.7584,0.7729,0.7828,0.7929,0.8028,0.8119,0.8194,0.8241,0.8296,0.8143,0.7884,0.7833,0.7223,0.6376,0.6056,0.5527,0.5106,0.5002,0.479,0.4464,0.4306,0.4492,0.5012,0.4906,0.4675,0.4555,0.4648,0.4687,0.4695,0.0,0.0,0.0,0.0,0.0,0.0,0.0,0.0,0.0,0.0,0.0,0.5428,0.5428,0.5498,0.5647,0.5789,0.5942,0.6095,0.6251,0.0,0.0,0.0,0.0,0.0,0.0,0.0,0.0,0.0,0.0,0.0,0.0,0.0,0.0,0.0,0.0,0.0,0.0,0.0,0.0,0.0,0.0,0.6837,0.6932,0.0,0.0,0.0,0.0,0.0,0.0,0.0,0.0,0.0,0.0,0.0,0.0,0.0,0.0,0.0,0.0,0.0,0.0,0.0,0.0,0.0,0.0,0.0,0.0,0.0,0.0,0.0,0.0,0.0,0.0,0.0,0.0,0.0,0.0,0.0,0.7238,0.7288,0.7387,0.7448,0.7448,0.7539,0.7617,0.7665,0.7719,0.7811,0.7957,0.8106,0.8235,0.834,0.8431,0.8482,0.8482,0.8428,0.8242,0.7818,0.733,0.6708,0.5957,0.5304,0.4656,0.4119,0.3687,0.3469,0.3361,0.2929,0.3037,0.3466,0.344,0.3306,0.3186,0.3233,0.3256,0.337,0.0,0.0,0.0,0.0,0.0,0.0,0.0,0.0,0.0,0.0,0.5428,0.5428,0.5428,0.5501,0.565,0.5789,0.5945,0.6101,0.6251,0.6338,0.0,0.0,0.0,0.0,0.0,0.0,0.0,0.0,0.0,0.0,0.0,0.0,0.0,0.0,0.0,0.0,0.0,0.0,0.0,0.0,0.0,0.6936,0.6949,0.0,0.0,0.0,0.0,0.0,0.0,0.0,0.0,0.0,0.0,0.0,0.0,0.0,0.0,0.0,0.0,0.0,0.0,0.0,0.0,0.0,0.0,0.0,0.0,0.0,0.0,0.0,0.0,0.0,0.0,0.0,0.0,0.0,0.74,0.738,0.7434,0.7584,0.7604,0.7607,0.7614,0.7617,0.7678,0.7821,0.797,0.8119,0.8269,0.8414,0.8489,0.8489,0.8492,0.8496,0.8496,0.8324,0.7963,0.7311,0.6656,0.6161,0.5951,0.4714,0.3929,0.3481,0.2359,0.1797,0.1797,0.1797,0.1797,0.1793,0.1644,0.1628,0.1525,0.1558,0.1554,0.1536,0.0,0.0,0.0,0.0,0.0,0.0,0.0,0.0,0.0,0.0,0.5428,0.5428,0.5428,0.5589,0.5759,0.5796,0.6044,0.6213,0.6335,0.0,0.0,0.0,0.0,0.0,0.0,0.0,0.0,0.0,0.0,0.0,0.0,0.0,0.0,0.0,0.0,0.0,0.0,0.0,0.0,0.0,0.7156,0.7082,0.7085,0.0,0.0,0.0,0.0,0.0,0.0,0.0,0.0,0.0,0.0,0.0,0.0,0.0,0.0,0.0,0.0,0.0,0.0,0.0,0.0,0.0,0.0,0.0,0.0,0.0,0.0,0.0,0.0,0.0,0.0,0.0,0.0,0.7587,0.7543,0.7536,0.7553,0.7594,0.7689,0.7797,0.7909,0.8021,0.8147,0.8286,0.8336,0.8277,0.8112,0.8249,0.8113,0.7681,0.7777,0.7716,0.7604,0.7532,0.7216,0.6554,0.5915,0.5296,0.4683,0.3767,0.2987,0.2325,0.1977,0.1745,0.1743,0.1847,0.184,0.1836,0.1795,0.1222,0.0445,0.0448,0.0447,0.0446,0.0,0.0,0.0,0.0,0.0,0.0,0.0,0.0,0.0,0.0,0.5428,0.5428,0.5428,0.5572,0.5735,0.5796,0.6023,0.6193,0.6257,0.0,0.0,0.0,0.0,0.0,0.0,0.0,0.0,0.0,0.0,0.0,0.0,0.0,0.0,0.0,0.0,0.0,0.0,0.0,0.0,0.0,0.7404,0.7295,0.7227,0.7166,0.7139,0.7139,0.7139,0.7139,0.7139,0.7139,0.0,0.0,0.0,0.0,0.0,0.0,0.0,0.0,0.0,0.0,0.0,0.0,0.0,0.0,0.0,0.0,0.0,0.0,0.0,0.0,0.0,0.0,0.0,0.0,0.7743,0.7807,0.7872,0.777,0.7736,0.7865,0.7953,0.8062,0.8211,0.8203,0.8186,0.8266,0.8223,0.8043,0.7727,0.7855,0.7604,0.7163,0.7122,0.6959,0.6891,0.6554,0.6238,0.5823,0.5028,0.437,0.395,0.2902,0.1984,0.106,0.106,0.1058,0.1053,0.1047,0.1047,0.105,0.0,0.0,0.0,0.0,-0.0,-0.0,0.0,0.0,0.0,0.0,0.0,0.0,0.0,0.0,0.0,0.0,0.0,0.5428,0.5428,0.5498,0.5647,0.5789,0.5942,0.6095,0.0,0.0,0.0,0.0,0.0,0.0,0.0,0.0,0.0,0.0,0.0,0.0,0.0,0.0,0.0,0.0,0.0,0.0,0.0,0.0,0.0,0.7648,0.7631,0.7522,0.7356,0.7217,0.7156,0.7139,0.7139,0.7139,0.7139,0.7139,0.0,0.0,0.0,0.0,0.0,0.0,0.0,0.0,0.0,0.0,0.0,0.0,0.0,0.0,0.0,0.0,0.0,0.0,0.0,0.0,0.0,0.0,0.0,0.0,0.7977,0.8119,0.8272,0.7962,0.7888,0.8262,0.8296,0.8247,0.8387,0.8088,0.7883,0.7899,0.7797,0.7539,0.7322,0.7097,0.0,0.0,0.0,0.6106,0.621,0.5637,0.5217,0.4936,0.4001,0.3655,0.3544,0.2363,0.1183,-0.0,-0.0,-0.0,-0.0,-0.0,-0.0,-0.0,-0.0,-0.0,-0.0,-0.0,-0.0,-0.0,0.0,0.0,0.0,0.0,0.0,0.0,0.0,0.0,0.0,0.5428,0.5428,0.5428,0.5428,0.5498,0.5647,0.5789,0.5942,0.6095,0.0,0.0,0.0,0.0,0.0,0.0,0.0,0.0,0.0,0.0,0.0,0.0,0.0,0.0,0.0,0.0,0.0,0.0,0.0,0.0,0.7953,0.7943,0.7821,0.7611,0.7366,0.7336,0.7248,0.7139,0.7139,0.7139,0.7139,0.7139,0.7139,0.7139,0.7139,0.0,0.0,0.0,0.0,0.0,0.0,0.0,0.0,0.0,0.0,0.0,0.0,0.0,0.0,0.0,0.0,0.0,0.0,0.0,0.0,0.816,0.8208,0.8173,0.8112,0.7975,0.7962,0.8017,0.8023,0.7976,0.7684,0.7591,0.7416,0.7408,0.7108,0.679,0.6566,0.6028,0.5743,0.5602,0.5258,0.5069,0.4924,0.4808,0.4579,0.4002,0.3768,0.0,0.3606,0.2403,0.1089,-0.0,-0.0,-0.0,-0.0,-0.0,-0.0,-0.0,-0.0,-0.0,-0.0,-0.0,-0.0,-0.0,0.0,0.0,0.0,0.0,0.0,0.0,0.0,0.0,0.0,0.0,0.5428,0.5428,0.5428,0.543,0.5562,0.5783,0.6013,0.0,0.0,0.0,0.0,0.0,0.0,0.0,0.0,0.0,0.0,0.0,0.0,0.0,0.0,0.0,0.0,0.0,0.0,0.0,0.0,0.8007,0.8038,0.8031,0.7957,0.779,0.7577,0.7428,0.7322,0.7244,0.717,0.7139,0.7139,0.7139,0.7139,0.7139,0.7139,0.7139,0.7139,0.0,0.0,0.0,0.0,0.0,0.0,0.0,0.0,0.0,0.0,0.0,0.0,0.0,0.0,0.8038,0.0,0.0,0.818,0.8258,0.823,0.8115,0.7937,0.7633,0.7526,0.7636,0.7526,0.7362,0.7056,0.6626,0.6318,0.626,0.5817,0.5483,0.5146,0.4966,0.4671,0.4481,0.3707,0.3283,0.3097,0.3218,0.3111,0.2893,0.2895,0.2787,0.281,0.1465,0.0613,-0.0,-0.0,-0.0,-0.0,-0.0,-0.0,-0.0,-0.0,-0.0,-0.0,-0.0,-0.0,-0.0,0.0,0.0,0.0,0.0,0.0,0.0,0.0,0.0,0.0,0.0,0.0,0.5428,0.5428,0.5428,0.5481,0.0,0.0,0.0,0.0,0.0,0.0,0.0,0.0,0.0,0.0,0.0,0.0,0.0,0.0,0.0,0.0,0.0,0.0,0.0,0.0,0.0,0.7997,0.8028,0.8038,0.8038,0.8038,0.7946,0.7784,0.7516,0.7397,0.7353,0.7193,0.7139,0.7139,0.7139,0.7139,0.7139,0.7139,0.7139,0.7146,0.7177,0.7275,0.0,0.0,0.0,0.0,0.0,0.0,0.0,0.0,0.0,0.8048,0.8079,0.8082,0.8092,0.8119,0.8228,0.8319,0.8353,0.8138,0.7833,0.7645,0.7114,0.6787,0.7013,0.679,0.6496,0.6369,0.5708,0.526,0.5037,0.459,0.4262,0.3936,0.3879,0.3806,0.3597,0.2469,0.1669,0.1453,0.1454,0.1463,0.1603,0.1605,0.1606,0.1606,0.0494,-0.0,-0.0,-0.0,-0.0,-0.0,-0.0,-0.0,-0.0,-0.0,-0.0,-0.0,-0.0,-0.0,-0.0,0.0,0.0,0.0,0.0,0.0,0.0,0.0,0.0,0.0,0.0,0.0,0.0,0.0,0.0,0.0,0.0,0.0,0.0,0.0,0.0,0.0,0.0,0.0,0.0,0.0,0.0,0.0,0.0,0.0,0.0,0.0,0.0,0.0,0.0,0.0,0.7689,0.7845,0.798,0.8038,0.8038,0.8038,0.7946,0.7794,0.7634,0.7489,0.7353,0.7193,0.7139,0.7139,0.7139,0.7139,0.7139,0.7139,0.7139,0.7166,0.7305,0.0,0.74,0.7536,0.7678,0.7824,0.7977,0.8014,0.8018,0.0,0.0,0.8079,0.8214,0.8245,0.8282,0.8411,0.8445,0.8397,0.8321,0.8028,0.7539,0.6898,0.6354,0.5799,0.5699,0.5582,0.5472,0.5039,0.4929,0.4592,0.381,0.3699,0.3723,0.3664,0.3102,0.3149,0.3601,0.2406,0.1334,0.0246,0.0246,0.0247,0.0247,0.0247,0.0247,0.0247,0.0123,-0.0,-0.0,-0.0,-0.0,-0.0,-0.0,-0.0,-0.0,-0.0,-0.0,-0.0,-0.0,-0.0,-0.0,0.0,0.0,0.0,0.0,0.0,0.0,0.0,0.0,0.0,0.0,0.0,0.0,0.0,0.0,0.0,0.0,0.0,0.0,0.6254,0.0,0.0,0.0,0.0,0.0,0.0,0.0,0.0,0.0,0.0,0.0,0.0,0.0,0.0,0.0,0.7438,0.755,0.7692,0.7756,0.7784,0.7784,0.7784,0.7746,0.7672,0.7522,0.7428,0.7353,0.7193,0.7139,0.0,0.0,0.7139,0.7139,0.7139,0.7204,0.7288,0.7174,0.731,0.0,0.7527,0.7609,0.7763,0.0,0.8106,0.8174,0.8174,0.8238,0.8316,0.8381,0.8394,0.8411,0.8472,0.8451,0.8317,0.0,0.758,0.6877,0.6035,0.5487,0.4931,0.415,0.3586,0.3473,0.4035,0.3474,0.2914,0.2579,0.2263,0.2053,0.2068,0.2108,0.2262,0.2534,0.1339,0.0491,-0.0,-0.0,-0.0,-0.0,-0.0,-0.0,-0.0,-0.0,-0.0,-0.0,-0.0,-0.0,-0.0,-0.0,-0.0,-0.0,-0.0,-0.0,-0.0,-0.0,-0.0,-0.0,0.0,0.0,0.0,0.0,0.0,0.0,0.0,0.0,0.0,0.0,0.0,0.0,0.0,0.0,0.0,0.0,0.0,0.0,0.0,0.6237,0.6338,0.6338,0.0,0.0,0.0,0.0,0.0,0.0,0.0,0.0,0.0,0.0,0.0,0.719,0.7272,0.737,0.7478,0.7563,0.76,0.76,0.76,0.7577,0.7522,0.7414,0.7346,0.7292,0.718,0.7139,0.0,0.0,0.7054,0.6966,0.6877,0.6979,0.7015,0.678,0.6982,0.7315,0.7518,0.0,0.0,0.7995,0.8187,0.8282,0.8319,0.8408,0.8492,0.8537,0.8547,0.8557,0.8601,0.8484,0.8227,0.7789,0.6987,0.6154,0.5485,0.4821,0.4041,0.3255,0.2356,0.2131,0.3027,0.2355,0.1686,0.1355,0.0914,0.0693,0.0699,0.1073,0.133,0.1336,0.0491,-0.0,-0.0,-0.0,-0.0,-0.0,-0.0,-0.0,-0.0,-0.0,-0.0,-0.0,-0.0,-0.0,-0.0,-0.0,-0.0,-0.0,-0.0,-0.0,-0.0,-0.0,-0.0,-0.0,0.0,0.0,0.0,0.0,0.0,0.0,0.0,0.0,0.0,0.0,0.0,0.0,0.0,0.0,0.0,0.0,0.0,0.0,0.0,0.6176,0.6338,0.6338,0.6338,0.6338,0.0,0.0,0.0,0.0,0.0,0.0,0.0,0.6637,0.6712,0.6732,0.7017,0.7149,0.7173,0.7472,0.76,0.76,0.76,0.7509,0.738,0.7373,0.7278,0.7146,0.7143,0.0,0.0,0.0,0.6795,0.6707,0.626,0.6172,0.0,0.6142,0.6443,0.0,0.0,0.0,0.7682,0.8126,0.8269,0.8306,0.8445,0.8479,0.8523,0.8672,0.8703,0.875,0.8899,0.8702,0.826,0.7712,0.6594,0.5704,0.5491,0.4038,0.3144,0.3594,0.2581,0.1795,0.0,0.1795,0.1355,0.0115,-0.0,-0.0,-0.0,-0.0,-0.0,-0.0,-0.0,-0.0,-0.0,-0.0,-0.0,-0.0,-0.0,-0.0,-0.0,-0.0,-0.0,-0.0,-0.0,-0.0,-0.0,-0.0,-0.0,-0.0,-0.0,-0.0,-0.0,-0.0,-0.0,-0.0,0.0,0.0,0.0,0.0,0.0,0.0,0.0,0.0,0.0,0.0,0.0,0.0,0.0,0.0,0.0,0.0,0.0,0.0,0.0,0.6078,0.6156,0.6254,0.6338,0.6338,0.6338,0.6338,0.6338,0.0,0.0,0.638,0.6474,0.6525,0.6603,0.6705,0.6803,0.6848,0.6854,0.6959,0.7004,0.7004,0.7004,0.6973,0.6936,0.7037,0.7044,0.701,0.0,0.0,0.0,0.0,0.0,0.0,0.6171,0.6139,0.0,0.626,0.6278,0.6442,0.7141,0.0,0.7696,0.8153,0.8418,0.8574,0.8621,0.8713,0.8801,0.8852,0.8862,0.8766,0.8702,0.8377,0.782,0.6932,0.5931,0.4927,0.4258,0.3027,0.2244,0.2357,0.202,0.0,0.0,0.0,0.0,-0.0,-0.0,-0.0,-0.0,-0.0,-0.0,-0.0,-0.0,-0.0,-0.0,-0.0,-0.0,-0.0,-0.0,-0.0,-0.0,-0.0,-0.0,-0.0,-0.0,-0.0,-0.0,-0.0,-0.0,-0.0,-0.0,-0.0,-0.0,-0.0,-0.0,-0.0,0.0,0.0,0.0,0.0,0.0,0.0,0.0,0.0,0.0,0.0,0.0,0.0,0.0,0.0,0.0,0.0,0.0,0.0,0.0,0.0,0.6074,0.6173,0.623,0.6338,0.6338,0.6338,0.6338,0.6338,0.6338,0.6308,0.6396,0.6396,0.6451,0.6546,0.6597,0.662,0.6624,0.6678,0.6702,0.6702,0.6702,0.6702,0.6712,0.681,0.6881,0.0,0.0,0.0,0.0,0.0,0.0,0.0,0.0,0.5707,0.5749,0.6069,0.6137,0.635,0.7098,0.7477,0.7776,0.8294,0.857,0.8723,0.8777,0.8869,0.8826,0.8823,0.8712,0.8602,0.8266,0.7934,0.7376,0.6265,0.5262,0.4369,0.3699,0.2354,0.1346,0.1234,0.1121,0.0897,0.0,0.0,0.0,-0.0,-0.0,-0.0,-0.0,-0.0,-0.0,-0.0,-0.0,-0.0,-0.0,-0.0,-0.0,-0.0,-0.0,-0.0,-0.0,-0.0,-0.0,-0.0,-0.0,-0.0,-0.0,-0.0,-0.0,-0.0,-0.0,-0.0,-0.0,-0.0,-0.0,-0.0,0.0,0.0,0.0,0.0,0.0,0.0,0.0,0.0,0.0,0.0,0.0,0.0,0.0,0.0,0.0,0.0,0.0,0.0,0.0,0.0,0.0,0.603,0.6169,0.6251,0.6338,0.6338,0.6338,0.6338,0.6338,0.6338,0.6338,0.6338,0.6338,0.6345,0.6403,0.6461,0.6471,0.6617,0.6678,0.6678,0.6678,0.6678,0.6678,0.6685,0.0,0.0,0.0,0.0,0.0,0.0,0.0,0.0,0.0,0.5071,0.5174,0.5575,0.6039,0.6573,0.7307,0.776,0.804,0.8531,0.8716,0.876,0.8906,0.8823,0.8816,0.8475,0.8468,0.8244,0.0,0.0,0.6813,0.5813,0.4698,0.3807,0.3587,0.2018,0.0673,0.0,0.0,0.0,0.0,0.0,0.0,-0.0,-0.0,-0.0,-0.0,-0.0,-0.0,-0.0,-0.0,-0.0,-0.0,-0.0,-0.0,-0.0,-0.0,-0.0,-0.0,-0.0,-0.0,-0.0,-0.0,-0.0,-0.0,-0.0,-0.0,-0.0,-0.0,-0.0,-0.0,-0.0,-0.0,-0.0,0.0,0.0,0.0,0.0,0.0,0.0,0.0,0.0,0.0,0.0,0.0,0.0,0.0,0.0,0.0,0.0,0.0,0.0,0.0,0.0,0.0,0.0,0.0,0.0,0.0,0.0,0.0,0.0,0.0,0.6338,0.6338,0.6338,0.6338,0.0,0.6298,0.6315,0.6318,0.6356,0.6373,0.6373,0.0,0.6373,0.6383,0.0,0.0,0.0,0.0,0.0,0.0,0.0,0.0,0.0,0.0,0.5657,0.5939,0.6372,0.6704,0.7088,0.7635,0.8007,0.8298,0.8585,0.8798,0.8779,0.8592,0.852,0.8336,0.7898,0.7487,0.7096,0.0,0.0,0.0,0.4287,0.3667,0.0,0.2918,0.1795,0.0,0.0112,0.0,-0.0,-0.0,-0.0,0.0,0.0,-0.0,-0.0,-0.0,-0.0,-0.0,-0.0,-0.0,-0.0,-0.0,-0.0,-0.0,-0.0,-0.0,-0.0,-0.0,-0.0,-0.0,-0.0,-0.0,-0.0,-0.0,-0.0,-0.0,-0.0,-0.0,-0.0,-0.0,-0.0,-0.0,-0.0,0.0,0.0,0.0,0.0,0.0,0.0,0.0,0.0,0.0,0.0,0.0,0.0,0.0,0.0,0.0,0.0,0.0,0.0,0.0,0.0,0.0,0.0,0.0,0.0,0.0,0.0,0.0,0.0,0.0,0.0,0.0,0.6338,0.6338,0.6338,0.6338,0.6338,0.6338,0.0,0.0,0.0,0.0,0.0,0.0,0.0,0.0,0.0,0.0,0.0,0.0,0.0,0.0,0.5855,0.5911,0.6083,0.632,0.6671,0.0,0.7555,0.7927,0.8216,0.8514,0.8685,0.8876,0.8809,0.852,0.8336,0.805,0.7341,0.6948,0.0,0.5419,0.0,0.0,0.0,0.0,0.0,0.3139,0.202,0.1009,0.0,-0.0,0.0,-0.0,-0.0,-0.0,0.0,-0.0,-0.0,-0.0,-0.0,-0.0,-0.0,-0.0,-0.0,-0.0,-0.0,-0.0,-0.0,-0.0,-0.0,-0.0,-0.0,-0.0,-0.0,-0.0,-0.0,-0.0,-0.0,-0.0,-0.0,-0.0,-0.0,-0.0,-0.0,-0.0,-0.0,0.0,0.0,0.0,0.0,0.0,0.0,0.0,0.0,0.0,0.0,0.0,0.0,0.0,0.0,0.0,0.0,0.0,0.0,0.0,0.0,0.0,0.0,0.0,0.0,0.0,0.0,0.0,0.0,0.0,0.0,0.0,0.0,0.0,0.0,0.0,0.0,0.0,0.0,0.0,0.0,0.0,0.0,0.0,0.0,0.0,0.0,0.0,0.0,0.0,0.0,0.624,0.6218,0.6197,0.6461,0.67,0.6866,0.7449,0.8007,0.8138,0.8398,0.8771,0.8906,0.8923,0.8766,0.831,0.8256,0.7871,0.6904,0.0,0.5908,0.4752,0.4765,0.4585,0.3465,0.0,0.3411,0.3239,0.2353,0.1346,0.0112,-0.0,-0.0,-0.0,-0.0,-0.0,-0.0,-0.0,-0.0,-0.0,-0.0,-0.0,-0.0,-0.0,-0.0,-0.0,-0.0,-0.0,-0.0,-0.0,-0.0,-0.0,-0.0,-0.0,-0.0,-0.0,-0.0,-0.0,-0.0,-0.0,-0.0,-0.0,-0.0,-0.0,-0.0,-0.0,-0.0,0.0,0.0,0.0,0.0,0.0,0.0,0.0,0.0,0.0,0.0,0.7092,0.6574,0.0,0.0,0.0,0.0,0.0,0.0,0.0,0.0,0.0,0.0,0.0,0.0,0.0,0.0,0.0,0.0,0.0,0.0,0.0,0.0,0.0,0.0,0.0,0.0,0.0,0.0,0.0,0.0,0.0,0.0,0.0,0.0,0.0,0.0,0.0,0.0,0.0,0.0,0.6766,0.6754,0.6938,0.7218,0.7465,0.7756,0.8129,0.8448,0.8476,0.8686,0.8906,0.893,0.8845,0.8632,0.8065,0.7781,0.0,0.0,0.5653,0.5086,0.3969,0.3506,0.0,0.2406,0.0,0.0,0.0,0.0,0.1009,0.0,0.0,0.0,0.0,0.0,0.0,0.0,-0.0,-0.0,-0.0,-0.0,-0.0,-0.0,-0.0,-0.0,-0.0,-0.0,-0.0,-0.0,-0.0,-0.0,-0.0,-0.0,-0.0,-0.0,-0.0,-0.0,-0.0,-0.0,-0.0,-0.0,-0.0,-0.0,-0.0,-0.0,-0.0,-0.0,0.0,0.0,0.0,0.0,0.0,0.0,0.0,0.8565,0.8392,0.8258,0.7762,0.7194,0.6698,0.6424,0.0,0.0,0.0,0.0,0.0,0.0,0.0,0.0,0.0,0.0,0.0,0.0,0.0,0.0,0.0,0.0,0.0,0.0,0.0,0.0,0.0,0.0,0.0,0.0,0.0,0.0,0.0,0.0,0.0,0.0,0.0,0.0,0.0,0.0,0.0,0.0,0.6759,0.691,0.7197,0.7439,0.7641,0.7855,0.8136,0.8374,0.8374,0.8533,0.8703,0.8703,0.8645,0.8464,0.7967,0.0,0.0,0.0,0.5977,0.5338,0.4433,0.0,0.0,0.0,0.0,0.0,0.0,0.0,0.0,0.0,0.0,0.0,0.0,0.0,-0.0,-0.0,-0.0,-0.0,-0.0,-0.0,-0.0,-0.0,-0.0,-0.0,-0.0,-0.0,-0.0,-0.0,-0.0,-0.0,-0.0,-0.0,-0.0,-0.0,-0.0,-0.0,-0.0,-0.0,-0.0,-0.0,-0.0,-0.0,-0.0,-0.0,-0.0,-0.0,0.0,0.0,0.0,0.0,0.0,0.0,0.0,0.8633,0.8605,0.8551,0.8305,0.7868,0.7106,0.6863,0.6485,0.0,0.0,0.0,0.0,0.0,0.0,0.0,0.0,0.0,0.0,0.0,0.0,0.5755,0.0,0.0,0.0,0.0,0.0,0.0,0.0,0.0,0.0,0.0,0.0,0.0,0.0,0.0,0.0,0.0,0.0,0.0,0.0,0.0,0.0,0.0,0.663,0.6885,0.7183,0.7404,0.7587,0.776,0.8004,0.8228,0.8262,0.8374,0.8482,0.8482,0.8459,0.8404,0.7978,0.7827,0.0,0.0,0.6442,0.5942,0.5135,0.0,0.0,0.0,0.0,0.0,0.0,0.0,0.0,0.0,0.0,0.0,0.0,0.0115,0.0,-0.0,-0.0,-0.0,-0.0,-0.0,-0.0,-0.0,-0.0,-0.0,-0.0,-0.0,-0.0,-0.0,-0.0,-0.0,-0.0,-0.0,-0.0,-0.0,-0.0,-0.0,-0.0,-0.0,-0.0,-0.0,-0.0,-0.0,-0.0,-0.0,-0.0,-0.0,0.0,0.0,0.0,0.0,0.0,0.0,0.0,0.8804,0.8758,0.8612,0.8616,0.8465,0.796,0.7249,0.6615,0.0,0.0,0.0,0.0,0.0,0.0,0.0,0.0,0.0,0.0,0.0,0.0,0.561,0.5752,0.0,0.0,0.0,0.0,0.0,0.0,0.6338,0.0,0.0,0.0,0.0,0.0,0.0,0.0,0.0,0.0,0.0,0.0,0.0,0.0,0.0,0.0,0.6566,0.6871,0.7163,0.7448,0.7729,0.0,0.0,0.8231,0.8374,0.8482,0.8482,0.8384,0.8286,0.7958,0.0,0.0,0.6948,0.6742,0.6442,0.5636,0.5231,0.0,0.0,0.0,0.0,0.0,0.0,0.0,0.0,0.0,0.0,0.0,0.0342,-0.0,-0.0,-0.0,-0.0,-0.0,-0.0,-0.0,-0.0,-0.0,-0.0,-0.0,-0.0,-0.0,-0.0,-0.0,-0.0,-0.0,-0.0,-0.0,-0.0,-0.0,-0.0,-0.0,-0.0,-0.0,-0.0,-0.0,-0.0,-0.0,-0.0,-0.0,-0.0,0.0,0.0,0.0,0.0,0.0,0.0,0.8804,0.8804,0.8804,0.8745,0.8678,0.8527,0.8166,0.7635,0.706,0.0,0.0,0.0,0.0,0.0,0.0,0.0,0.0,0.0,0.0,0.0,0.5454,0.5454,0.5599,0.0,0.0,0.0,0.0,0.0,0.0,0.6037,0.6122,0.0,0.0,0.0,0.0,0.0,0.0,0.0,0.0,0.0,0.0,0.0,0.0,0.0,0.0,0.0,0.6722,0.6936,0.0,0.0,0.7655,0.7787,0.7851,0.7909,0.795,0.795,0.7909,0.7889,0.7872,0.0,0.0,0.7524,0.7444,0.7144,0.6637,0.6337,0.6037,0.0,0.0,0.0,0.0,0.0,0.0,0.0,0.0,0.0,0.0,0.0,0.0814,-0.0,-0.0,-0.0,-0.0,-0.0,-0.0,-0.0,-0.0,-0.0,-0.0,-0.0,-0.0,-0.0,-0.0,-0.0,-0.0,-0.0,-0.0,-0.0,-0.0,-0.0,-0.0,-0.0,-0.0,-0.0,-0.0,-0.0,-0.0,-0.0,-0.0,-0.0,0.0,0.0,0.0,0.0,0.0,0.8804,0.8804,0.8804,0.8804,0.8804,0.8692,0.858,0.8321,0.7948,0.7494,0.7062,0.0,0.0,0.0,0.0,0.0,0.0,0.0,0.0,0.0,0.0,0.5428,0.5428,0.5467,0.5521,0.0,0.0,0.5739,0.5742,0.0,0.0,0.0,0.0,0.0,0.0,0.0,0.0,0.0,0.0,0.0,0.0,0.0,0.0,0.0,0.0,0.0,0.0,0.0,0.0,0.0,0.0,0.7448,0.7543,0.7587,0.76,0.76,0.76,0.76,0.7628,0.0,0.0,0.0,0.795,0.7813,0.7643,0.7341,0.7141,0.6942,0.0,0.0,0.0,0.0,0.0,0.0,0.0,0.0,0.0,0.0,0.2047,0.1163,0.012,-0.0,-0.0,-0.0,-0.0,-0.0,-0.0,-0.0,-0.0,-0.0,-0.0,-0.0,-0.0,-0.0,-0.0,-0.0,-0.0,-0.0,-0.0,-0.0,-0.0,-0.0,-0.0,-0.0,-0.0,-0.0,-0.0,-0.0,-0.0,-0.0,-0.0,0.0,0.0,0.0,0.0,0.0,0.0,0.8804,0.8804,0.8804,0.8804,0.8804,0.8745,0.8626,0.8196,0.7823,0.7593,0.0,0.0,0.0,0.0,0.0,0.0,0.0,0.0,0.0,0.0,0.5428,0.5428,0.5428,0.5428,0.5432,0.5518,0.5593,0.5599,0.0,0.0,0.0,0.0,0.0,0.0,0.0,0.0,0.0,0.0,0.0,0.0,0.0,0.0,0.0,0.0,0.0,0.0,0.0,0.0,0.0,0.0,0.7373,0.7407,0.756,0.76,0.76,0.76,0.76,0.76,0.0,0.0,0.0,0.7814,0.7933,0.7942,0.7646,0.7547,0.7543,0.7238,0.7441,0.0,0.0,0.0,0.0,0.0,0.0,0.0,0.492,0.2612,0.0925,0.0118,-0.0,-0.0,-0.0,-0.0,-0.0,-0.0,-0.0,-0.0,-0.0,-0.0,-0.0,-0.0,-0.0,-0.0,-0.0,-0.0,-0.0,-0.0,-0.0,-0.0,-0.0,-0.0,-0.0,-0.0,-0.0,-0.0,-0.0,-0.0,-0.0,-0.0,0.0,0.0,0.0,0.0,0.0,0.0,0.0,0.8804,0.8804,0.8804,0.8804,0.8752,0.8626,0.8362,0.8026,0.7575,0.0,0.0,0.0,0.0,0.0,0.0,0.0,0.0,0.0,0.0,0.5428,0.5428,0.5428,0.5428,0.5428,0.541,0.5433,0.5437,0.5481,0.5559,0.0,0.0,0.0,0.0,0.0,0.0,0.0,0.0,0.0,0.0,0.0,0.0,0.0,0.0,0.0,0.0,0.0,0.0,0.0,0.0,0.0,0.0,0.7272,0.7285,0.7285,0.7285,0.7285,0.7312,0.7421,0.0,0.0,0.7645,0.7784,0.7885,0.7788,0.7773,0.7842,0.7739,0.7839,0.0,0.0,0.0,0.0,0.0,0.0,0.0,0.0,0.0,0.1496,0.1274,0.0475,-0.0,-0.0,-0.0,-0.0,-0.0,-0.0,-0.0,-0.0,-0.0,-0.0,-0.0,-0.0,-0.0,-0.0,-0.0,-0.0,-0.0,-0.0,-0.0,-0.0,-0.0,-0.0,-0.0,-0.0,-0.0,-0.0,-0.0,-0.0,-0.0,0.0,0.0,0.0,0.0,0.0,0.0,0.0,0.8804,0.8804,0.8745,0.8745,0.8639,0.8474,0.8321,0.8002,0.7461,0.0,0.0,0.0,0.0,0.0,0.0,0.0,0.0,0.0,0.5428,0.5428,0.5428,0.5428,0.5428,0.5428,0.5428,0.5428,0.5428,0.5428,0.5413,0.0,0.0,0.0,0.0,0.0,0.0,0.6338,0.0,0.0,0.0,0.0,0.0,0.0,0.0,0.0,0.0,0.0,0.0,0.0,0.0,0.6946,0.0,0.0,0.7139,0.7139,0.7139,0.7139,0.0,0.0,0.0,0.0,0.0,0.7631,0.7746,0.7801,0.7889,0.7974,0.8031,0.8038,0.0,0.0,0.0,0.0,0.0,0.0,0.0,0.0,0.3841,0.2736,0.1838,0.0937,0.0356,-0.0,-0.0,-0.0,-0.0,-0.0,-0.0,-0.0,-0.0,-0.0,-0.0,-0.0,-0.0,-0.0,-0.0,-0.0,-0.0,-0.0,-0.0,0.0,-0.0,-0.0,-0.0,-0.0,-0.0,-0.0,-0.0,-0.0,-0.0,0.0,0.0,0.0,0.0,0.0,0.0,0.0,0.8752,0.8752,0.8573,0.8573,0.8474,0.8215,0.8008,0.7735,0.7289,0.0,0.0,0.0,0.0,0.0,0.0,0.0,0.0,0.0,0.5428,0.5428,0.5428,0.5428,0.5428,0.5428,0.5428,0.5428,0.5428,0.5428,0.5428,0.5435,0.5511,0.5654,0.58,0.5952,0.6105,0.0,0.0,0.0,0.0,0.0,0.0,0.0,0.0,0.0,0.0,0.0,0.0,0.0,0.0,0.0,0.0,0.0,0.0,0.0,0.0,0.0,0.0,0.0,0.0,0.0,0.0,0.0,0.0,0.0,0.7797,0.7858,0.8001,0.0,0.0,0.0,0.0,0.0,0.0,0.0,0.0,0.6485,0.5817,0.4504,0.2175,0.1606,0.0925,0.0118,-0.0,-0.0,-0.0,-0.0,-0.0,-0.0,-0.0,-0.0,-0.0,-0.0,-0.0,-0.0,-0.0,-0.0,-0.0,-0.0,-0.0,-0.0,-0.0,-0.0,-0.0,-0.0,-0.0,-0.0,-0.0,-0.0,-0.0,0.0,0.0,0.0,0.0,0.0,0.0,0.0,0.0,0.0,0.0,0.8268,0.8162,0.7836,0.7783,0.7568,0.0,0.0,0.0,0.0,0.0,0.0,0.0,0.0,0.0,0.0,0.5428,0.5428,0.5428,0.5428,0.5428,0.5428,0.5428,0.5428,0.5428,0.5428,0.5428,0.5428,0.5466,0.5501,0.565,0.5796,0.5949,0.0,0.0,0.0,0.0,0.6338,0.6338,0.0,0.0,0.0,0.0,0.0,0.0,0.0,0.0,0.6634,0.6787,0.6939,0.0,0.7139,0.7139,0.7139,0.0,0.0,0.0,0.0,0.0,0.0,0.0,0.0,0.0,0.0,0.0,0.0,0.0,0.0,0.0,0.0,0.0,0.8227,0.7931,0.6712,0.6265,0.5491,0.4167,0.2849,0.1956,0.1388,0.047,-0.0,-0.0,-0.0,-0.0,-0.0,-0.0,-0.0,-0.0,-0.0,-0.0,-0.0,-0.0,-0.0,-0.0,-0.0,-0.0,-0.0,-0.0,-0.0,-0.0,-0.0,-0.0,-0.0,-0.0,-0.0,-0.0,0.0,0.0,0.0,0.0,0.0,0.0,0.0,0.0,0.0,0.0,0.0,0.0,0.0,0.0,0.0,0.0,0.0,0.0,0.0,0.0,0.0,0.0,0.0,0.0,0.5254,0.5254,0.5291,0.5428,0.5428,0.5428,0.5428,0.5428,0.5428,0.5428,0.5428,0.5428,0.5428,0.5428,0.545,0.5603,0.5745,0.0,0.0,0.0,0.0,0.0,0.6338,0.6338,0.0,0.6338,0.6338,0.6338,0.0,0.0,0.0,0.0,0.6529,0.6644,0.6868,0.7034,0.7139,0.7139,0.7139,0.7139,0.0,0.0,0.0,0.0,0.0,0.0,0.0,0.0,0.0,0.0,0.0,0.0,0.0,0.0,0.0,0.0,0.8573,0.8377,0.0,0.7265,0.6596,0.5596,0.4402,0.3291,0.2159,0.127,0.0582,-0.0,-0.0,-0.0,-0.0,-0.0,-0.0,-0.0,-0.0,-0.0,-0.0,-0.0,-0.0,-0.0,-0.0,-0.0,-0.0,-0.0,-0.0,-0.0,-0.0,-0.0,-0.0,-0.0,-0.0,-0.0,0.0,0.0,0.0,0.0,0.0,0.0,0.0,0.0,0.0,0.0,0.0,0.0,0.0,0.0,0.0,0.0,0.0,0.0,0.0,0.0,0.0,0.0,0.0,0.4952,0.5094,0.5121,0.5196,0.5325,0.5415,0.5428,0.5428,0.5428,0.5428,0.5428,0.5428,0.5428,0.5428,0.5428,0.5437,0.5569,0.5735,0.0,0.0,0.0,0.0,0.0,0.0,0.0,0.0,0.6338,0.6338,0.6338,0.6338,0.0,0.0,0.0,0.0,0.0,0.6817,0.7,0.7112,0.7136,0.7139,0.7139,0.0,0.0,0.0,0.0,0.0,0.0,0.0,0.0,0.0,0.0,0.0,0.0,0.0,0.0,0.0,0.0,0.8845,0.0,0.8484,0.8263,0.7598,0.6485,0.5929,0.4698,0.2799,0.2159,0.1374,0.0229,-0.0,-0.0,-0.0,-0.0,-0.0,-0.0,-0.0,-0.0,-0.0,-0.0,-0.0,-0.0,-0.0,-0.0,-0.0,-0.0,-0.0,-0.0,-0.0,-0.0,-0.0,-0.0,-0.0,-0.0,0.0,0.0,0.0,0.0,0.0,0.0,0.0,0.0,0.0,0.0,0.0,0.0,0.0,0.0,0.0,0.0,0.0,0.0,0.0,0.0,0.0,0.0,0.4643,0.4796,0.4948,0.5067,0.5142,0.5165,0.5298,0.5428,0.5428,0.5428,0.5428,0.5428,0.5428,0.5428,0.5428,0.5428,0.5442,0.542,0.5691,0.0,0.0,0.0,0.0,0.0,0.0,0.0,0.0,0.6338,0.6338,0.6338,0.6338,0.0,0.0,0.0,0.0,0.0,0.6688,0.6848,0.699,0.7109,0.7139,0.7139,0.0,0.0,0.0,0.0,0.0,0.0,0.0,0.0,0.0,0.0,0.0,0.0,0.0,0.0,0.8537,0.8693,0.0,0.8826,0.8484,0.8484,0.8042,0.7154,0.6485,0.5481,0.3805,0.3032,0.2025,0.0788,0.0226,-0.0,-0.0,-0.0,-0.0,-0.0,-0.0,-0.0,-0.0,-0.0,-0.0,-0.0,-0.0,-0.0,-0.0,-0.0,-0.0,-0.0,-0.0,-0.0,-0.0,-0.0,-0.0,-0.0,0.0,0.0,0.0,0.0,0.0,0.0,0.0,0.0,0.0,0.0,0.0,0.0,0.0,0.0,0.0,0.0,0.0,0.0,0.0,0.0,0.0,0.4519,0.4584,0.464,0.4792,0.486,0.4969,0.5131,0.5203,0.5281,0.5428,0.5428,0.5428,0.5428,0.5428,0.5428,0.5428,0.5428,0.5428,0.5456,0.0,0.0,0.0,0.0,0.0,0.0,0.0,0.0,0.0,0.0,0.6338,0.6338,0.6338,0.0,0.0,0.0,0.0,0.0,0.6637,0.6753,0.6858,0.7085,0.7139,0.7139,0.0,0.0,0.0,0.0,0.0,0.0,0.0,0.0,0.0,0.0,0.0,0.8119,0.835,0.8442,0.857,0.0,0.0,0.8826,0.8712,0.8598,0.8156,0.749,0.671,0.5592,0.4029,0.3473,0.2465,0.0897,0.0336,-0.0,-0.0,-0.0,-0.0,-0.0,-0.0,-0.0,-0.0,-0.0,-0.0,-0.0,-0.0,-0.0,-0.0,-0.0,-0.0,-0.0,-0.0,-0.0,-0.0,-0.0,-0.0,-0.0,0.0,0.0,0.0,0.0,0.0,0.0,0.0,0.0,0.0,0.0,0.0,0.0,0.0,0.0,0.0,0.0,0.0,0.0,0.0,0.0,0.4519,0.4519,0.4519,0.4573,0.4633,0.4674,0.4819,0.5081,0.5114,0.5209,0.5428,0.5428,0.5428,0.5428,0.5428,0.5428,0.5428,0.5428,0.5428,0.5456,0.0,0.0,0.0,0.0,0.0,0.0,0.0,0.0,0.0,0.0,0.0,0.0,0.0,0.0,0.0,0.6338,0.6338,0.6318,0.6576,0.6671,0.6763,0.7027,0.0,0.0,0.7139,0.0,0.0,0.0,0.0,0.0,0.0,0.0,0.0,0.0,0.8038,0.8143,0.8438,0.8482,0.8598,0.8903,0.894,0.894,0.894,0.8709,0.8266,0.7604,0.6707,0.5592,0.4143,0.3811,0.2803,0.1121,0.0336,-0.0,-0.0,-0.0,-0.0,-0.0,-0.0,-0.0,-0.0,-0.0,-0.0,-0.0,-0.0,-0.0,-0.0,-0.0,-0.0,-0.0,-0.0,-0.0,-0.0,-0.0,-0.0,-0.0,0.0,0.0,0.0,0.0,0.0,0.0,0.0,0.0,0.0,0.0,0.0,0.0,0.0,0.0,0.0,0.0,0.0,0.0,0.0,0.0,0.4519,0.4519,0.4519,0.4522,0.4532,0.4619,0.4772,0.4935,0.5064,0.5209,0.5428,0.5428,0.5428,0.5428,0.5428,0.5428,0.5428,0.5428,0.5428,0.5456,0.5684,0.0,0.0,0.0,0.0,0.0,0.0,0.0,0.0,0.0,0.0,0.0,0.0,0.0,0.6338,0.6338,0.6338,0.6295,0.6447,0.6593,0.6739,0.6902,0.0,0.0,0.7139,0.0,0.0,0.0,0.0,0.0,0.0,0.0,0.0,0.0,0.8038,0.8143,0.8438,0.0,0.8598,0.8903,0.894,0.894,0.894,0.8709,0.8152,0.7265,0.6369,0.5369,0.4262,0.3817,0.3031,0.1795,0.0561,-0.0,-0.0,-0.0,-0.0,-0.0,-0.0,-0.0,-0.0,-0.0,-0.0,-0.0,-0.0,-0.0,-0.0,-0.0,-0.0,-0.0,-0.0,-0.0,-0.0,-0.0,-0.0,-0.0,0.0,0.0,0.0,0.0,0.0,0.0,0.0,0.0,0.0,0.0,0.0,0.0,0.0,0.0,0.0,0.0,0.0,0.0,0.0,0.0,0.4519,0.4519,0.4519,0.4519,0.4519,0.4573,0.4623,0.4775,0.5013,0.5209,0.5428,0.5428,0.5428,0.5428,0.5428,0.5428,0.5428,0.5428,0.5428,0.5456,0.5684,0.58,0.0,0.0,0.0,0.0,0.0,0.0,0.0,0.0,0.6338,0.6338,0.0,0.6338,0.6338,0.6338,0.6338,0.6291,0.6434,0.6583,0.6736,0.6892,0.0,0.0,0.0,0.0,0.0,0.0,0.0,0.0,0.0,0.0,0.0,0.8014,0.8038,0.8143,0.8438,0.8482,0.8598,0.8903,0.8712,0.8598,0.8598,0.7934,0.7043,0.6371,0.5596,0.4707,0.3479,0.3593,0.3031,0.1795,0.0673,-0.0,-0.0,-0.0,-0.0,-0.0,-0.0,-0.0,-0.0,-0.0,-0.0,-0.0,-0.0,-0.0,-0.0,-0.0,-0.0,-0.0,-0.0,-0.0,-0.0,-0.0,-0.0,-0.0,0.0,0.0,0.0,0.0,0.0,0.0,0.0,0.0,0.0,0.0,0.0,0.0,0.0,0.0,0.0,0.0,0.0,0.0,0.4519,0.4519,0.4519,0.4519,0.4519,0.4519,0.4519,0.4519,0.4594,0.4691,0.5051,0.5342,0.5561,0.5491,0.5491,0.5491,0.5428,0.5428,0.5428,0.5428,0.5456,0.5454,0.5701,0.583,0.0,0.0,0.0,0.0,0.0,0.0,0.0,0.0,0.6338,0.0,0.0,0.0,0.0,0.6338,0.6338,0.6281,0.638,0.6549,0.0,0.0,0.0,0.0,0.0,0.0,0.0,0.0,0.0,0.0,0.0,0.0,0.0,0.0,0.8038,0.8126,0.8381,0.8455,0.8577,0.8726,0.8462,0.8263,0.8152,0.7043,0.6151,0.5479,0.4817,0.3927,0.2693,0.2919,0.2469,0.1234,0.0449,-0.0,-0.0,-0.0,-0.0,-0.0,-0.0,-0.0,-0.0,-0.0,-0.0,-0.0,-0.0,-0.0,-0.0,-0.0,-0.0,-0.0,-0.0,-0.0,-0.0,-0.0,-0.0,-0.0,0.0,0.0,0.0,0.0,0.0,0.0,0.0,0.0,0.0,0.0,0.0,0.0,0.0,0.0,0.0,0.0,0.0,0.0,0.4519,0.4519,0.4519,0.4519,0.4519,0.4519,0.4519,0.4632,0.471,0.4694,0.5174,0.5599,0.5888,0.5686,0.5617,0.5617,0.5491,0.5428,0.5428,0.5428,0.545,0.5603,0.5745,0.5891,0.6047,0.0,0.0,0.0,0.0,0.0,0.0,0.0,0.6338,0.0,0.0,0.0,0.0,0.0,0.6338,0.6338,0.6338,0.6474,0.0,0.0,0.0,0.0,0.0,0.0,0.0,0.0,0.0,0.0,0.7814,0.0,0.0,0.8038,0.8038,0.8092,0.8248,0.8391,0.8434,0.8265,0.8075,0.782,0.7265,0.6369,0.5479,0.459,0.3921,0.3027,0.1907,0.1795,0.1234,-0.0,-0.0,-0.0,-0.0,-0.0,-0.0,-0.0,-0.0,-0.0,-0.0,-0.0,-0.0,-0.0,-0.0,-0.0,-0.0,-0.0,-0.0,-0.0,-0.0,-0.0,-0.0,-0.0,-0.0,-0.0,0.0,0.0,0.0,0.0,0.0,0.0,0.0,0.0,0.0,0.0,0.0,0.0,0.0,0.0,0.0,0.0,0.0,0.0,0.4519,0.4519,0.4519,0.4519,0.4519,0.4519,0.4632,0.4956,0.5208,0.5381,0.5426,0.5616,0.6083,0.5749,0.5617,0.5617,0.5491,0.5428,0.5428,0.5428,0.5582,0.5804,0.5962,0.619,0.6421,0.0,0.0,0.0,0.0,0.0,0.0,0.0,0.0,0.0,0.0,0.0,0.0,0.6338,0.6338,0.6338,0.6338,0.0,0.0,0.0,0.0,0.0,0.0,0.0,0.0,0.0,0.0,0.7845,0.795,0.0,0.0,0.8038,0.8038,0.8092,0.8248,0.8306,0.8324,0.8256,0.766,0.7056,0.6589,0.571,0.4707,0.3923,0.3702,0.303,0.1907,0.1009,0.0336,-0.0,-0.0,-0.0,-0.0,-0.0,-0.0,-0.0,-0.0,-0.0,-0.0,-0.0,-0.0,-0.0,-0.0,-0.0,-0.0,-0.0,-0.0,-0.0,-0.0,-0.0,-0.0,-0.0,-0.0,-0.0,0.0,0.0,0.0,0.0,0.0,0.0,0.0,0.0,0.0,0.0,0.0,0.0,0.0,0.0,0.0,0.0,0.0,0.0,0.0,0.4574,0.4574,0.4574,0.4684,0.4849,0.5124,0.5449,0.5797,0.6242,0.594,0.6,0.6478,0.6083,0.5951,0.5885,0.569,0.5627,0.5693,0.5695,0.5877,0.6106,0.627,0.6504,0.6734,0.0,0.0,0.0,0.0,0.0,0.0,0.0,0.0,0.0,0.0,0.0,0.0,0.6412,0.6338,0.6338,0.6338,0.0,0.0,0.0,0.0,0.0,0.0,0.0,0.0,0.0,0.0,0.7929,0.8021,0.8038,0.0,0.8038,0.8038,0.8072,0.8167,0.8231,0.813,0.7771,0.7194,0.6516,0.5973,0.4884,0.3899,0.2913,0.2918,0.2581,0.1795,0.0673,-0.0,-0.0,-0.0,-0.0,-0.0,-0.0,-0.0,-0.0,-0.0,-0.0,-0.0,-0.0,-0.0,-0.0,-0.0,-0.0,-0.0,-0.0,-0.0,-0.0,-0.0,-0.0,-0.0,-0.0,-0.0,-0.0,0.0,0.0,0.0,0.0,0.0,0.0,0.0,0.0,0.0,0.0,0.0,0.0,0.0,0.0,0.0,0.0,0.0,0.0,0.0,0.0,0.4743,0.4743,0.5018,0.5395,0.5828,0.6014,0.6445,0.7146,0.6657,0.6617,0.6946,0.6618,0.6416,0.6416,0.6086,0.602,0.6226,0.6207,0.6305,0.6463,0.6633,0.6795,0.7019,0.6791,0.0,0.0,0.0,0.0,0.0,0.0,0.0,0.0,0.0,0.0,0.6637,0.6641,0.649,0.6338,0.0,0.0,0.0,0.0,0.0,0.0,0.0,0.0,0.0,0.0,0.0,0.8038,0.8038,0.8038,0.8038,0.8038,0.8038,0.8038,0.8038,0.816,0.7945,0.7126,0.6607,0.6085,0.5222,0.4036,0.2859,0.1789,0.1679,0.168,0.1683,0.0561,-0.0,-0.0,-0.0,-0.0,-0.0,-0.0,-0.0,-0.0,-0.0,-0.0,-0.0,-0.0,-0.0,-0.0,-0.0,-0.0,-0.0,-0.0,-0.0,-0.0,-0.0,-0.0,-0.0,-0.0,-0.0,-0.0,0.0,0.0,0.0,0.0,0.0,0.0,0.0,0.0,0.0,0.0,0.0,0.0,0.0,0.0,0.0,0.0,0.0,0.0,0.0,0.0,0.5018,0.5018,0.5508,0.5946,0.6273,0.6875,0.7276,0.7384,0.6957,0.686,0.7138,0.6806,0.6548,0.642,0.6354,0.6284,0.6226,0.6335,0.658,0.6893,0.707,0.7397,0.7791,0.7633,0.7553,0.0,0.0,0.0,0.0,0.0,0.0,0.0,0.748,0.7176,0.6788,0.6637,0.649,0.6338,0.0,0.0,0.0,0.0,0.0,0.0,0.0,0.0,0.0,0.0,0.7834,0.8038,0.8038,0.8038,0.8038,0.8038,0.8038,0.8038,0.8038,0.8069,0.7831,0.7325,0.6635,0.5758,0.459,0.2998,0.1834,0.1098,0.066,0.0332,0.0336,0.0112,-0.0,-0.0,-0.0,-0.0,-0.0,-0.0,-0.0,-0.0,-0.0,-0.0,-0.0,-0.0,-0.0,-0.0,-0.0,-0.0,-0.0,-0.0,-0.0,-0.0,-0.0,-0.0,-0.0,-0.0,-0.0,-0.0,0.0,0.0,0.0,0.0,0.0,0.0,0.0,0.0,0.0,0.0,0.0,0.0,0.0,0.0,0.0,0.0,0.0,0.0,0.0,0.0,0.5618,0.5946,0.6327,0.6652,0.6923,0.7427,0.7616,0.7509,0.7305,0.7212,0.0,0.0,0.6872,0.6811,0.6811,0.6862,0.6957,0.694,0.7128,0.7385,0.7571,0.7858,0.8102,0.8021,0.7944,0.7944,0.8016,0.0,0.0,0.0,0.0,0.0,0.0,0.0,0.7399,0.7022,0.6641,0.6412,0.0,0.0,0.0,0.0,0.0,0.0,0.0,0.0,0.0,0.0,0.7834,0.8038,0.8038,0.8038,0.8038,0.8038,0.8038,0.8038,0.8038,0.8038,0.7769,0.7137,0.6633,0.5758,0.4404,0.2837,0.1694,0.1294,0.0432,-0.0,-0.0,-0.0,-0.0,-0.0,-0.0,-0.0,-0.0,-0.0,-0.0,-0.0,-0.0,-0.0,-0.0,-0.0,-0.0,-0.0,-0.0,-0.0,-0.0,-0.0,-0.0,-0.0,-0.0,-0.0,-0.0,-0.0,-0.0,-0.0,0.0,0.0,0.0,0.0,0.0,0.0,0.0,0.0,0.0,0.0,0.0,0.0,0.0,0.0,0.0,0.0,0.0,0.0,0.0,0.0,0.0,0.6987,0.7139,0.7322,0.7589,0.7829,0.7849,0.7506,0.7546,0.0,0.0,0.0,0.0,0.7138,0.7204,0.738,0.7655,0.7509,0.7559,0.7821,0.8023,0.8183,0.8255,0.8331,0.8331,0.8484,0.8856,0.9003,0.9079,0.9765,0.0,0.0,0.0,0.0,0.8008,0.7407,0.6949,0.6563,0.0,0.0,0.0,0.0,0.0,0.0,0.0,0.0,0.0,0.7536,0.7794,0.8007,0.8035,0.8038,0.8038,0.8038,0.8038,0.8038,0.8038,0.8038,0.7743,0.7045,0.6639,0.5972,0.4633,0.3194,0.2181,0.1694,0.0743,0.0106,-0.0,-0.0,-0.0,-0.0,-0.0,-0.0,-0.0,-0.0,-0.0,-0.0,-0.0,-0.0,-0.0,-0.0,-0.0,-0.0,-0.0,-0.0,-0.0,-0.0,-0.0,-0.0,-0.0,-0.0,-0.0,-0.0,-0.0,-0.0,0.0,0.0,0.0,0.0,0.0,0.0,0.0,0.0,0.0,0.0,0.0,0.0,0.0,0.0,0.0,0.0,0.0,0.0,0.5891,0.0,0.0,0.7413,0.7568,0.7726,0.8014,0.8207,0.8104,0.7618,0.0,0.0,0.0,0.0,0.0,0.6946,0.0,0.0,0.7305,0.7219,0.7479,0.7821,0.8023,0.8412,0.887,0.9094,0.9322,0.9695,0.9916,1.0143,1.0288,1.0368,1.0143,0.0,0.0,0.0,0.7944,0.7411,0.6949,0.6563,0.0,0.0,0.0,0.0,0.0,0.0,0.0,0.0,0.0,0.0,0.7638,0.7882,0.8014,0.8038,0.8038,0.8038,0.8038,0.8038,0.8038,0.8038,0.7842,0.7543,0.7045,0.6345,0.5148,0.4043,0.2956,0.1662,0.1042,0.0525,-0.0,-0.0,-0.0,-0.0,-0.0,-0.0,-0.0,-0.0,-0.0,-0.0,-0.0,-0.0,-0.0,-0.0,-0.0,-0.0,-0.0,-0.0,-0.0,-0.0,-0.0,-0.0,-0.0,-0.0,-0.0,-0.0,-0.0,-0.0,0.0,0.0,0.0,0.0,0.0,0.0,0.0,0.0,0.0,0.0,0.0,0.0,0.0,0.0,0.0,0.6273,0.6327,0.6544,0.6815,0.7241,0.7616,0.7996,0.819,0.8331,0.8341,0.851,0.8287,0.7596,0.0,0.0,0.0,0.7269,0.733,0.0,0.0,0.0,0.0,0.0,0.762,0.7979,0.8067,0.8331,0.8713,0.9013,0.9311,0.962,1.0067,1.0293,1.0368,1.0438,1.0293,0.9992,0.9463,0.0,0.0,0.0,0.7026,0.0,0.0,0.0,0.0,0.0,0.0,0.0,0.0,0.0,0.7265,0.7353,0.7475,0.7634,0.7868,0.798,0.8038,0.8038,0.8038,0.8038,0.8038,0.8038,0.7942,0.7646,0.7244,0.6539,0.5336,0.4332,0.3338,0.2143,0.1227,0.0616,-0.0,-0.0,-0.0,-0.0,-0.0,-0.0,-0.0,-0.0,-0.0,-0.0,-0.0,-0.0,-0.0,-0.0,-0.0,-0.0,-0.0,-0.0,-0.0,-0.0,-0.0,-0.0,-0.0,-0.0,-0.0,-0.0,-0.0,-0.0,0.0,0.0,0.0,0.0,0.0,0.0,0.0,0.0,0.0,0.0,0.0,0.0,0.0,0.0,0.0,0.0,0.6598,0.6998,0.7666,0.7991,0.83,0.8578,0.8781,0.8752,0.8591,0.8686,0.8426,0.0,0.0,0.0,0.7335,0.7526,0.7587,0.0,0.7522,0.0,0.0,0.0,0.0,0.0,0.7949,0.8102,0.8403,0.8775,0.9084,0.9473,0.9922,1.0143,1.0143,1.0293,1.0143,0.976,0.9226,0.8775,0.0,0.0,0.0,0.0,0.0,0.0,0.0,0.0,0.0,0.0,0.0,0.0,0.7129,0.0,0.7346,0.7438,0.7658,0.7851,0.7994,0.8031,0.8038,0.8038,0.8038,0.8038,0.7942,0.7746,0.7341,0.6639,0.5541,0.4636,0.363,0.2724,0.1615,0.0707,-0.0,-0.0,-0.0,-0.0,-0.0,-0.0,-0.0,-0.0,-0.0,-0.0,-0.0,-0.0,-0.0,-0.0,-0.0,-0.0,-0.0,-0.0,-0.0,-0.0,-0.0,-0.0,-0.0,-0.0,-0.0,-0.0,-0.0,-0.0,0.0,0.0,0.0,0.0,0.0,0.0,0.0,0.0,0.0,0.0,0.0,0.0,0.6209,0.6209,0.6268,0.6381,0.6598,0.7182,0.8261,0.8731,0.8982,0.915,0.9053,0.0,0.8778,0.8696,0.0,0.0,0.0,0.0,0.7666,0.7857,0.7787,0.7466,0.7131,0.6912,0.696,0.0,0.0,0.0,0.0,0.0,0.0,0.0,0.9084,0.9625,0.9846,0.9916,0.9916,0.9922,0.9387,0.8703,0.8551,0.8021,0.748,0.0,0.0,0.0,0.0,0.0,0.0,0.0,0.0,0.0,0.0,0.0,0.698,0.7122,0.7268,0.7377,0.739,0.7631,0.7872,0.8018,0.8038,0.8038,0.8038,0.8038,0.8038,0.7939,0.7341,0.6642,0.6042,0.4939,0.3935,0.323,0.2121,0.1111,0.0101,-0.0,-0.0,-0.0,-0.0,-0.0,-0.0,-0.0,-0.0,-0.0,-0.0,-0.0,-0.0,-0.0,-0.0,-0.0,-0.0,-0.0,-0.0,-0.0,-0.0,-0.0,-0.0,-0.0,-0.0,-0.0,-0.0,-0.0,0.0,0.0,0.0,0.0,0.0,0.0,0.0,0.0,0.0,0.0,0.0,0.0,0.0,0.5883,0.6131,0.63,0.7048,0.7805,0.8363,0.8627,0.8851,0.8851,0.8783,0.8676,0.846,0.8496,0.0,0.0,0.0,0.8506,0.8187,0.8306,0.7977,0.7274,0.714,0.6986,0.6889,0.6702,0.0,0.0,0.0,0.0,0.0,0.0,0.0,0.0,0.0,0.0,0.8694,0.8623,0.8394,0.8089,0.7714,0.7488,0.7257,0.6791,0.6486,0.0,0.0,0.0,0.0,0.0,0.0,0.0,0.0,0.6787,0.6943,0.6993,0.7122,0.7255,0.7353,0.7539,0.7692,0.7746,0.7834,0.7892,0.7892,0.7977,0.7942,0.7743,0.7144,0.6342,0.5336,0.4638,0.3732,0.2323,0.1819,0.1111,0.0101,-0.0,-0.0,-0.0,-0.0,-0.0,-0.0,-0.0,-0.0,-0.0,-0.0,-0.0,-0.0,-0.0,-0.0,-0.0,-0.0,-0.0,-0.0,-0.0,-0.0,-0.0,-0.0,-0.0,-0.0,-0.0,-0.0,-0.0,0.0,0.0,0.0,0.0,0.0,0.0,0.0,0.0,0.0,0.0,0.0,0.0,0.0,0.0,0.5935,0.6281,0.7294,0.8089,0.8269,0.8529,0.8636,0.8636,0.8494,0.8332,0.8085,0.8238,0.0,0.0,0.0,0.0,0.0,0.8306,0.7952,0.7176,0.7031,0.6838,0.0,0.0,0.0,0.6788,0.0,0.0,0.7103,0.0,0.0,0.0,0.0,0.0,0.7783,0.7633,0.748,0.7326,0.7103,0.6953,0.6876,0.6567,0.6412,0.0,0.6338,0.0,0.0,0.0,0.0,0.0,0.0,0.0,0.6803,0.6909,0.7004,0.7115,0.7265,0.7377,0.7478,0.7584,0.7678,0.774,0.774,0.7828,0.7794,0.7501,0.6851,0.5983,0.4887,0.4219,0.333,0.1718,0.1313,0.0707,-0.0,-0.0,-0.0,-0.0,-0.0,-0.0,-0.0,-0.0,-0.0,-0.0,-0.0,-0.0,-0.0,-0.0,-0.0,-0.0,-0.0,-0.0,-0.0,-0.0,-0.0,-0.0,-0.0,-0.0,-0.0,-0.0,-0.0,-0.0,0.0,0.0,0.0,0.0,0.0,0.0,0.0,0.0,0.0,0.4857,0.0,0.0,0.0,0.0,0.0,0.6263,0.723,0.7913,0.8027,0.8297,0.8425,0.8425,0.8112,0.7857,0.7666,0.7857,0.7857,0.0,0.0,0.0,0.0,0.0,0.7712,0.7168,0.6808,0.6391,0.6126,0.0,0.6412,0.6563,0.0,0.6714,0.6865,0.0,0.0,0.0,0.7184,0.7184,0.0,0.7184,0.6949,0.0,0.0,0.649,0.6338,0.6338,0.6338,0.0,0.0,0.0,0.0,0.0,0.0,0.0,0.6434,0.0,0.6556,0.6854,0.6919,0.6966,0.7109,0.7132,0.7234,0.7536,0.759,0.7594,0.7594,0.7597,0.7503,0.7211,0.6376,0.5475,0.4793,0.3785,0.2722,0.1715,0.0605,-0.0,-0.0,-0.0,-0.0,-0.0,-0.0,-0.0,-0.0,-0.0,-0.0,-0.0,-0.0,-0.0,-0.0,-0.0,-0.0,-0.0,-0.0,-0.0,-0.0,-0.0,-0.0,-0.0,-0.0,-0.0,-0.0,-0.0,-0.0,-0.0,0.0,0.0,0.0,0.0,0.0,0.0,0.0,0.0,0.0,0.0,0.0,0.0,0.5036,0.5381,0.5813,0.6322,0.6763,0.7113,0.7233,0.7284,0.7316,0.7316,0.7195,0.7003,0.7003,0.7138,0.7269,0.7335,0.0,0.0,0.0,0.0,0.0,0.0,0.6785,0.6555,0.6057,0.6256,0.0,0.6412,0.6412,0.6412,0.0,0.0,0.0,0.0,0.0,0.6567,0.6567,0.6567,0.6493,0.6412,0.0,0.0,0.0,0.0,0.0,0.0,0.6338,0.0,0.0,0.0,0.0,0.0,0.6312,0.0,0.6498,0.658,0.6685,0.681,0.6959,0.6987,0.7048,0.7238,0.7363,0.7434,0.7434,0.7529,0.7409,0.6741,0.6108,0.5367,0.4323,0.3573,0.2713,0.1648,0.0587,-0.0,-0.0,-0.0,-0.0,-0.0,-0.0,-0.0,-0.0,-0.0,-0.0,-0.0,-0.0,-0.0,-0.0,-0.0,-0.0,-0.0,-0.0,-0.0,-0.0,-0.0,-0.0,-0.0,-0.0,-0.0,-0.0,-0.0,-0.0,-0.0,0.0,0.0,0.0,0.0,0.0,0.0,0.0,0.0,0.0,0.0,0.0,0.0,0.5098,0.5431,0.578,0.6075,0.6346,0.6539,0.6601,0.6601,0.6601,0.6601,0.6478,0.6346,0.6346,0.6548,0.6675,0.6806,0.0,0.0,0.0,0.0,0.0,0.0,0.0,0.0,0.0,0.0,0.0,0.0,0.6338,0.0,0.0,0.6338,0.6338,0.0,0.6338,0.6338,0.6338,0.6338,0.6338,0.6338,0.0,0.0,0.0,0.0,0.0,0.0,0.0,0.0,0.0,0.0,0.0,0.0,0.6338,0.6325,0.64,0.6461,0.6542,0.6651,0.6807,0.6834,0.6861,0.6943,0.7031,0.7136,0.7258,0.735,0.7129,0.6575,0.5882,0.5073,0.3951,0.3035,0.2197,0.1346,0.0484,-0.0,-0.0,-0.0,-0.0,-0.0,-0.0,-0.0,-0.0,-0.0,-0.0,-0.0,-0.0,-0.0,-0.0,-0.0,-0.0,-0.0,-0.0,-0.0,-0.0,-0.0,-0.0,-0.0,-0.0,-0.0,-0.0,-0.0,-0.0,-0.0,0.0,0.0,0.0,0.0,0.0,0.0,0.0,0.0,0.0,0.0,0.5155,0.5209,0.5348,0.5488,0.5557,0.5575,0.5911,0.6117,0.6136,0.6136,0.6129,0.6109,0.5981,0.5844,0.5822,0.6017,0.6156,0.6176,0.0,0.0,0.0,0.0,0.0,0.0,0.0,0.0,0.0,0.0,0.0,0.6338,0.6338,0.6338,0.0,0.0,0.6338,0.6338,0.6338,0.6338,0.6338,0.6338,0.6338,0.6338,0.6338,0.6338,0.0,0.0,0.6338,0.0,0.0,0.0,0.0,0.0,0.6338,0.0,0.6338,0.6338,0.6295,0.6424,0.6451,0.6495,0.6647,0.6675,0.6681,0.6698,0.6702,0.6797,0.7078,0.7115,0.6858,0.6428,0.5636,0.4691,0.368,0.2435,0.1333,0.0771,0.0289,-0.0,-0.0,-0.0,-0.0,-0.0,-0.0,-0.0,-0.0,-0.0,-0.0,-0.0,-0.0,-0.0,-0.0,-0.0,-0.0,-0.0,-0.0,-0.0,-0.0,-0.0,-0.0,-0.0,-0.0,-0.0,-0.0,-0.0,-0.0,-0.0,0.483,0.0,0.0,0.0,0.0,0.0,0.0,0.0,0.0,0.5294,0.5318,0.5328,0.5425,0.5428,0.5476,0.56,0.5679,0.5731,0.5846,0.5853,0.5801,0.5754,0.5682,0.5623,0.5498,0.562,0.5744,0.5877,0.0,0.0,0.0,0.0,0.0,0.0,0.0,0.0,0.0,0.0,0.0,0.6338,0.6338,0.6338,0.6338,0.6338,0.6338,0.6338,0.6338,0.6338,0.6338,0.6338,0.6338,0.6338,0.6338,0.6338,0.6338,0.6338,0.6338,0.0,0.0,0.0,0.0,0.6338,0.6338,0.0,0.6338,0.6338,0.6345,0.6295,0.6302,0.6346,0.6488,0.6515,0.6556,0.6681,0.6702,0.6763,0.6946,0.697,0.6753,0.6245,0.5657,0.4775,0.3515,0.2442,0.1362,0.0273,0.0091,-0.0,-0.0,-0.0,-0.0,-0.0,-0.0,-0.0,-0.0,-0.0,-0.0,-0.0,-0.0,-0.0,-0.0,-0.0,-0.0,-0.0,-0.0,-0.0,-0.0,-0.0,-0.0,-0.0,-0.0,-0.0,-0.0,-0.0,-0.0,-0.0,0.4488,0.0,0.0,0.0,0.0,0.0,0.0,0.0,0.0,0.5418,0.543,0.5477,0.5477,0.5538,0.5613,0.5553,0.556,0.5516,0.5509,0.5587,0.563,0.5563,0.5627,0.5657,0.5583,0.5645,0.5752,0.5832,0.0,0.0,0.0,0.0,0.0,0.0,0.0,0.0,0.0,0.0,0.6338,0.6338,0.6338,0.0,0.6338,0.6338,0.6338,0.6338,0.6338,0.6338,0.6338,0.6338,0.6338,0.6338,0.6338,0.6338,0.6338,0.6338,0.6338,0.6338,0.6338,0.6338,0.6338,0.6338,0.6338,0.0,0.0,0.6338,0.6338,0.6338,0.6338,0.6359,0.6356,0.6284,0.6228,0.6301,0.6154,0.6044,0.6185,0.6431,0.6499,0.6055,0.5583,0.4821,0.3773,0.2933,0.1704,0.009,-0.0,-0.0,-0.0,-0.0,-0.0,-0.0,-0.0,-0.0,-0.0,-0.0,-0.0,-0.0,-0.0,-0.0,-0.0,-0.0,-0.0,-0.0,-0.0,-0.0,-0.0,-0.0,-0.0,-0.0,-0.0,-0.0,-0.0,-0.0,-0.0,-0.0,0.4007,0.0,0.0,0.0,0.0,0.0,0.0,0.0,0.0,0.5403,0.5538,0.563,0.563,0.5732,0.5673,0.5485,0.5416,0.5352,0.5228,0.538,0.5517,0.5561,0.5702,0.583,0.58,0.58,0.5817,0.5844,0.0,0.0,0.0,0.0,0.0,0.0,0.0,0.0,0.0,0.0,0.0,0.6338,0.0,0.6338,0.6338,0.6338,0.6338,0.6264,0.6291,0.6302,0.6302,0.6302,0.6285,0.6338,0.6338,0.6338,0.6338,0.6338,0.6338,0.6338,0.6338,0.6338,0.6338,0.6338,0.6338,0.6338,0.0,0.0,0.0,0.6257,0.6257,0.618,0.6103,0.5944,0.5783,0.5709,0.5398,0.5199,0.5302,0.5638,0.5888,0.5859,0.5268,0.4718,0.4205,0.3328,0.2047,0.0359,0.009,-0.0,-0.0,-0.0,-0.0,-0.0,-0.0,-0.0,-0.0,-0.0,-0.0,-0.0,-0.0,-0.0,-0.0,-0.0,-0.0,-0.0,-0.0,-0.0,-0.0,-0.0,-0.0,-0.0,-0.0,-0.0,-0.0,-0.0,-0.0,-0.0,0.3791,0.4056,0.0,0.0,0.0,0.0,0.0,0.0,0.0,0.5545,0.5688,0.5776,0.0,0.0,0.0,0.0,0.0,0.5153,0.5269,0.5511,0.5609,0.5706,0.5854,0.5939,0.5803,0.58,0.5867,0.6003,0.0,0.0,0.0,0.0,0.0,0.0,0.6338,0.0,0.0,0.0,0.6338,0.0,0.6338,0.6338,0.6338,0.6338,0.6338,0.6355,0.6403,0.6447,0.6447,0.6447,0.6366,0.6338,0.6338,0.6338,0.6338,0.6338,0.6338,0.6338,0.6338,0.6338,0.6338,0.6338,0.6338,0.6338,0.6338,0.0,0.6257,0.6018,0.0,0.5864,0.5476,0.0,0.0,0.4854,0.4776,0.4704,0.4557,0.4252,0.4402,0.509,0.4927,0.463,0.4293,0.3151,0.2068,0.1255,0.045,-0.0,-0.0,-0.0,-0.0,-0.0,-0.0,-0.0,-0.0,-0.0,-0.0,-0.0,-0.0,-0.0,-0.0,-0.0,-0.0,-0.0,-0.0,-0.0,-0.0,-0.0,-0.0,-0.0,-0.0,-0.0,-0.0,-0.0,-0.0,-0.0,0.2751,0.3291,0.0,0.0,0.0,0.0,0.0,0.0,0.0,0.4997,0.5258,0.0,0.0,0.0,0.0,0.0,0.0,0.4645,0.4618,0.4935,0.0,0.5313,0.5622,0.5825,0.5839,0.5836,0.5944,0.6162,0.6162,0.0,0.0,0.0,0.0,0.0,0.6338,0.0,0.6338,0.0,0.6338,0.0,0.0,0.6099,0.6099,0.6257,0.6338,0.6281,0.642,0.6394,0.6234,0.6318,0.6118,0.5817,0.5736,0.5631,0.5553,0.5553,0.5631,0.5712,0.5712,0.5867,0.6099,0.6099,0.618,0.6261,0.6099,0.6099,0.5944,0.5631,0.0,0.0,0.0,0.0,0.0,0.0,0.3999,0.3845,0.3765,0.3528,0.363,0.4259,0.4131,0.3906,0.3672,0.3005,0.2302,0.1876,0.094,0.0259,-0.0,-0.0,-0.0,-0.0,-0.0,-0.0,-0.0,-0.0,-0.0,-0.0,-0.0,-0.0,-0.0,-0.0,-0.0,-0.0,-0.0,-0.0,-0.0,-0.0,-0.0,-0.0,-0.0,-0.0,-0.0,-0.0,-0.0,-0.0,0.1923,0.0,0.0,0.0,0.0,0.0,0.0,0.0,0.0,0.4478,0.4726,0.0,0.4874,0.4953,0.0,0.0,0.4151,0.3995,0.3841,0.4231,0.4621,0.4927,0.5321,0.5634,0.586,0.5864,0.6022,0.6338,0.0,0.0,0.0,0.0,0.0,0.0,0.0,0.6338,0.6261,0.0,0.618,0.618,0.5864,0.5709,0.5631,0.5944,0.6051,0.6018,0.6115,0.5993,0.5833,0.5833,0.5568,0.5286,0.5115,0.4929,0.4849,0.4849,0.4929,0.5087,0.5087,0.5321,0.555,0.5628,0.5786,0.5867,0.5705,0.5628,0.5473,0.5085,0.4849,0.0,0.0,0.0,0.3608,0.345,0.0,0.2984,0.2749,0.2671,0.2824,0.3366,0.3285,0.313,0.2982,0.275,0.2471,0.2218,0.1232,0.05,-0.0,-0.0,-0.0,-0.0,-0.0,-0.0,-0.0,-0.0,-0.0,-0.0,-0.0,-0.0,-0.0,-0.0,-0.0,-0.0,-0.0,-0.0,-0.0,-0.0,-0.0,-0.0,-0.0,-0.0,-0.0,-0.0,-0.0,-0.0,0.1527,0.1639,0.0,0.0,0.0,0.0,0.0,0.0,0.0,0.4145,0.0,0.0,0.0,0.0,0.0,0.0,0.329,0.3132,0.3132,0.3604,0.4075,0.4701,0.5087,0.5476,0.586,0.5864,0.6022,0.6338,0.0,0.0,0.0,0.0,0.0,0.0,0.0,0.6338,0.6261,0.6022,0.5941,0.5864,0.5476,0.5087,0.4779,0.5165,0.5317,0.5261,0.5264,0.5267,0.5186,0.5023,0.487,0.4704,0.4465,0.4462,0.4384,0.4384,0.4462,0.4462,0.4698,0.4701,0.4776,0.5004,0.5004,0.5004,0.5004,0.4851,0.4621,0.4226,0.3995,0.3763,0.3376,0.3299,0.3141,0.0,0.2511,0.0,0.0,0.1336,0.1649,0.2431,0.251,0.2511,0.2511,0.2357,0.231,0.2465,0.1308,0.0411,-0.0,-0.0,-0.0,-0.0,-0.0,-0.0,-0.0,-0.0,-0.0,-0.0,-0.0,-0.0,-0.0,-0.0,-0.0,-0.0,-0.0,-0.0,-0.0,-0.0,-0.0,-0.0,-0.0,-0.0,-0.0,-0.0,-0.0,-0.0,0.0,0.0,0.0,0.0,0.0,0.0,0.0,0.2822,0.0,0.3486,0.3276,0.3136,0.3136,0.3214,0.3214,0.3059,0.2823,0.2586,0.2194,0.2508,0.2978,0.3602,0.3915,0.4304,0.4927,0.5007,0.5243,0.5634,0.0,0.0,0.0,0.0,0.0,0.0,0.0,0.6022,0.0,0.0,0.0,0.0,0.0,0.3997,0.3528,0.4543,0.48,0.4683,0.4758,0.462,0.4376,0.4295,0.4194,0.392,0.3704,0.3608,0.3528,0.3528,0.3372,0.3136,0.3214,0.3684,0.4153,0.4151,0.4384,0.454,0.4229,0.4153,0.3997,0.3606,0.3374,0.3137,0.2826,0.2356,0.1885,0.0,0.1728,0.1649,0.0,0.1335,0.1257,0.1256,0.1492,0.1806,0.2043,0.228,0.245,0.2476,0.1593,0.0723,-0.0,-0.0,-0.0,-0.0,-0.0,-0.0,-0.0,-0.0,-0.0,-0.0,-0.0,-0.0,-0.0,-0.0,-0.0,-0.0,-0.0,-0.0,-0.0,-0.0,-0.0,-0.0,-0.0,-0.0,-0.0,-0.0,-0.0,-0.0,0.0299,0.0,0.0,0.0,0.0,0.0,0.0,0.1788,0.2277,0.2434,0.2199,0.2119,0.2277,0.2434,0.2514,0.2514,0.2277,0.1884,0.1412,0.1648,0.2118,0.2821,0.3057,0.3526,0.4151,0.4309,0.4621,0.5087,0.0,0.5553,0.0,0.0,0.0,0.0,0.0,0.5628,0.555,0.5085,0.4771,0.0,0.0,0.3059,0.2668,0.3526,0.3839,0.3847,0.3987,0.3848,0.3605,0.3525,0.3367,0.312,0.2682,0.2514,0.2434,0.2434,0.2277,0.2119,0.2275,0.2666,0.3214,0.3452,0.3763,0.3841,0.3608,0.345,0.3294,0.3064,0.2671,0.2277,0.2119,0.1649,0.1178,0.0,0.0,0.0864,0.0,0.0864,0.0707,0.0393,0.0629,0.1021,0.1415,0.165,0.1887,0.2044,0.1572,0.0949,0.008,-0.0,-0.0,-0.0,-0.0,-0.0,-0.0,-0.0,-0.0,-0.0,-0.0,-0.0,-0.0,-0.0,-0.0,-0.0,-0.0,-0.0,-0.0,-0.0,-0.0,-0.0,-0.0,-0.0,-0.0,-0.0,-0.0,-0.0,-0.0,0.0,0.0,0.0,-0.0,0.0157,0.055,0.055,0.0707,0.1178,0.1257,0.1415,0.1729,0.1808,0.1809,0.189,0.1496,0.118,0.0787,0.1102,0.1651,0.2433,0.2589,0.3059,0.3684,0.3684,0.3997,0.4621,0.0,0.0,0.0,0.0,0.0,0.0,0.5321,0.0,0.4927,0.4302,0.3917,0.3686,0.2981,0.2431,0.2038,0.2117,0.2431,0.2826,0.2826,0.2904,0.2982,0.2589,0.2431,0.2276,0.1571,0.1257,0.1257,0.1257,0.1257,0.1335,0.1725,0.1803,0.2038,0.2747,0.2982,0.2984,0.2984,0.2746,0.2433,0.2438,0.1808,0.1257,0.1257,0.1257,0.0943,0.0157,-0.0,-0.0,-0.0,-0.0,-0.0,-0.0,-0.0,0.0157,0.055,0.055,0.0786,0.1178,0.1257,0.0864,0.0079,-0.0,-0.0,-0.0,-0.0,-0.0,-0.0,-0.0,-0.0,-0.0,-0.0,-0.0,-0.0,-0.0,-0.0,-0.0,-0.0,-0.0,-0.0,-0.0,-0.0,-0.0,-0.0,-0.0,-0.0,-0.0,-0.0,-0.0,-0.0,-0.0,-0.0,0.0,-0.0,-0.0,0.0157,0.0157,0.0236,0.0314,0.0314,0.0393,0.0471,0.0786,0.1108,0.145,0.1372,0.0968,0.0242,0.0887,0.1361,0.1572,0.1649,0.1884,0.2352,0.2508,0.2744,0.3057,0.3684,0.0,0.4231,0.0,0.0,0.0,0.0,0.0,0.4302,0.3999,0.3456,0.275,0.1963,0.1649,0.1492,0.1492,0.157,0.1728,0.22,0.2043,0.1728,0.1649,0.1571,0.1571,0.1335,0.0864,0.0314,0.0314,0.0314,0.0393,0.0471,0.0706,0.102,0.1178,0.1492,0.1728,0.1728,0.1649,0.1571,0.1572,0.1415,0.11,0.0471,0.0314,0.0236,-0.0,-0.0,-0.0,-0.0,-0.0,-0.0,-0.0,-0.0,0.0079,0.0157,0.0157,0.0236,0.0314,0.0314,0.0236,-0.0,-0.0,-0.0,-0.0,-0.0,-0.0,-0.0,-0.0,-0.0,-0.0,-0.0,-0.0,-0.0,-0.0,-0.0,-0.0,-0.0,-0.0,-0.0,-0.0,-0.0,-0.0,-0.0,-0.0,-0.0,-0.0,-0.0,-0.0,-0.0,-0.0,-0.0,-0.0,-0.0,-0.0,-0.0,-0.0,-0.0,-0.0,-0.0,-0.0,-0.0,0.0239,0.0483,0.0742,0.0744,0.0496,-0.0,0.0491,0.0809,0.0958,0.1027,0.1099,0.1333,0.1412,0.1726,0.2275,0.2743,0.0,0.3214,0.0,0.0,0.0,0.0,0.3682,0.3524,0.2982,0.2437,0.1887,0.1257,0.11,0.0,0.11,0.11,0.1335,0.165,0.1335,0.0707,0.0707,0.0707,0.0707,0.0707,0.0393,-0.0,-0.0,-0.0,-0.0,-0.0,0.0157,0.0314,0.0314,0.055,0.0707,0.0707,0.0707,0.0707,0.0707,0.0707,0.055,0.0079,-0.0,-0.0,-0.0,-0.0,-0.0,-0.0,-0.0,-0.0,-0.0,-0.0,-0.0,-0.0,-0.0,-0.0,-0.0,-0.0,-0.0,-0.0,-0.0,-0.0,-0.0,-0.0,-0.0,-0.0,-0.0,-0.0,-0.0,-0.0,-0.0,-0.0,-0.0,-0.0,-0.0,-0.0,-0.0,-0.0,-0.0,-0.0,-0.0,-0.0,-0.0,-0.0,-0.0,-0.0,-0.0,-0.0,-0.0,0.0,0.0,-0.0,-0.0,-0.0,-0.0,-0.0,-0.0,-0.0,-0.0,-0.0,-0.0,-0.0,-0.0,-0.0,-0.0,-0.0,-0.0,0.0164,0.0488,0.0559,0.0552,0.055,0.055,0.0863,0.1647,0.1725,0.0,0.0,0.0,0.0,0.0,0.0,0.0,0.0,0.1728,0.1257,0.11,0.0707,0.0786,0.11,0.0707,0.0864,0.1335,0.1335,0.0707,-0.0,-0.0,-0.0,-0.0,-0.0,-0.0,-0.0,-0.0,-0.0,-0.0,-0.0,-0.0,-0.0,-0.0,-0.0,-0.0,-0.0,-0.0,-0.0,-0.0,-0.0,-0.0,-0.0,-0.0,-0.0,-0.0,-0.0,-0.0,-0.0,-0.0,-0.0,-0.0,-0.0,0.0,-0.0,-0.0,-0.0,-0.0,-0.0,-0.0,-0.0,-0.0,-0.0,-0.0,-0.0,-0.0,-0.0,-0.0,-0.0,-0.0,-0.0,-0.0,-0.0,-0.0,-0.0,-0.0,-0.0,-0.0,-0.0,-0.0,-0.0,-0.0,-0.0,-0.0,-0.0,-0.0,-0.0,-0.0,-0.0,0.0,0.0,0.0,-0.0,-0.0,-0.0,-0.0,-0.0,-0.0,-0.0,-0.0,-0.0,-0.0,-0.0,-0.0,-0.0,-0.0,-0.0,-0.0,-0.0,0.0082,0.0081,0.008,0.0079,0.0079,0.0157,0.0314,0.0628,0.0,0.0,0.0,0.0,0.0,0.0,0.0,0.2516,0.165,0.0864,0.0236,0.0157,0.0157,0.0236,0.0471,0.0864,0.1335,0.1335,0.0707,-0.0,-0.0,-0.0,-0.0,-0.0,-0.0,-0.0,-0.0,-0.0,-0.0,-0.0,-0.0,-0.0,-0.0,-0.0,-0.0,-0.0,-0.0,-0.0,-0.0,-0.0,-0.0,-0.0,-0.0,-0.0,-0.0,-0.0,-0.0,-0.0,-0.0,-0.0,-0.0,-0.0,-0.0,-0.0,-0.0,-0.0,-0.0,-0.0,-0.0,-0.0,-0.0,-0.0,-0.0,-0.0,-0.0,-0.0,-0.0,-0.0,-0.0,-0.0,-0.0,-0.0,-0.0,-0.0,-0.0,-0.0,-0.0,-0.0,-0.0,-0.0,-0.0,-0.0,-0.0,-0.0,-0.0,-0.0,-0.0,-0.0314,0.0,0.0,0.0,-0.0314,-0.0237,-0.0,-0.0,-0.0,-0.0,-0.0,-0.0,-0.0,-0.0,-0.0,-0.0,-0.0,-0.0,-0.0,-0.0,-0.0,-0.0,-0.0,-0.0,-0.0,-0.0,-0.0,-0.0,0.0157,0.0314,0.0314,0.0,0.0,0.0,0.0,0.1885,0.0,0.0943,0.0393,-0.0,-0.0,-0.0,-0.0,0.0236,0.0393,0.0628,0.0628,0.0393,-0.0,-0.0,-0.0,-0.0,-0.0,-0.0,-0.0,-0.0,-0.0,-0.0,-0.0,-0.0,-0.0,-0.0,-0.0,-0.0,-0.0,-0.0,-0.0,-0.0,-0.0,-0.0,-0.0,-0.0,-0.0,-0.0,-0.0,-0.0,-0.0,-0.0,-0.0,-0.0,-0.0,-0.0,-0.0,-0.0,-0.0,-0.0,-0.0,-0.0,-0.0,-0.0,-0.0,-0.0,-0.0,-0.0,-0.0,-0.0,-0.0,-0.0,-0.0,-0.0,-0.0,-0.0,-0.0,-0.0,-0.0,-0.0,-0.0,-0.0,-0.0,-0.0,-0.0,-0.0,-0.0,-0.0,-0.0,-0.0,-0.1021,-0.1335,0.0,-0.1106,-0.087,-0.0638,-0.0327,-0.0082,-0.0,-0.0,-0.0,-0.0,-0.0,-0.0,-0.0,-0.0,-0.0,-0.0,-0.0,-0.0,-0.0,-0.0,-0.0,-0.0,-0.0,-0.0,-0.0,-0.0,-0.0,-0.0,-0.0,0.0314,0.0,0.0,0.0,0.1021,0.0943,0.0314,-0.0,-0.0,-0.0,-0.0,-0.0,-0.0,-0.0,-0.0,-0.0,-0.0,-0.0,-0.0,-0.0,-0.0,-0.0,-0.0,-0.0,-0.0,-0.0,-0.0,-0.0,-0.0,-0.0,-0.0,-0.0,-0.0,-0.0,-0.0,-0.0,-0.0,-0.0,-0.0,-0.0,-0.0,-0.0,-0.0,-0.0,-0.0,-0.0,-0.0,-0.0,-0.0,-0.0,-0.0,-0.0,-0.0,-0.0,-0.0,-0.0,-0.0,-0.0,-0.0,-0.0,-0.0,-0.0,-0.0,-0.0,-0.0,-0.0,-0.0,-0.0,-0.0,-0.0,-0.0,-0.0,-0.0,-0.0,-0.0,-0.0,-0.0,-0.0,-0.0,-0.0,-0.0,-0.0,-0.0,-0.0,-0.0,-0.2275,0.0,-0.245,-0.2503,-0.1781,-0.1224,-0.1171,-0.0504,-0.0,-0.0,-0.0,-0.0,-0.0,-0.0,-0.0,-0.0,-0.0,-0.0,-0.0,-0.0,-0.0,-0.0,-0.0,-0.0,-0.0,-0.0,-0.0,-0.0,-0.0,-0.0,-0.0,-0.0,0.0079,0.0079,0.0079,0.0157,0.0079,-0.0,-0.0,-0.0,-0.0,-0.0,-0.0,-0.0,-0.0,-0.0,-0.0,-0.0,-0.0,-0.0,-0.0,-0.0,-0.0,-0.0,-0.0,-0.0,-0.0,-0.0,-0.0,-0.0,-0.0,-0.0,-0.0,-0.0,-0.0,-0.0,-0.0,-0.0,-0.0,-0.0,-0.0,-0.0,-0.0,-0.0,-0.0,-0.0,-0.0,-0.0,-0.0,-0.0,-0.0,-0.0,-0.0,-0.0,-0.0,-0.0,-0.0,-0.0,-0.0,-0.0,-0.0,-0.0,-0.0,-0.0,-0.0,-0.0,-0.0,-0.0,-0.0,-0.0,-0.0,-0.0,-0.0,-0.0,-0.0,-0.0,-0.0,-0.0,-0.0,-0.0,-0.0,-0.0,-0.0,-0.0,-0.0,-0.0,-0.3034,-0.3044,-0.3147,-0.2973,-0.2651,-0.2255,-0.1711,-0.1201,-0.0862,-0.0873,-0.0349,-0.0,-0.0,-0.0,-0.0,-0.0,-0.0,-0.0,-0.0,-0.0,-0.0,-0.0,-0.0,-0.0,-0.0,-0.0,-0.0,-0.0,-0.0,-0.0,-0.0,-0.0,-0.0,-0.0,-0.0,-0.0,-0.0,-0.0,-0.0,-0.0,-0.0,-0.0,-0.0,-0.0,-0.0,-0.0,-0.0,-0.0,-0.0,-0.0,-0.0,-0.0,-0.0,-0.0,-0.0,-0.0,-0.0,-0.0,-0.0,-0.0,-0.0,-0.0,-0.0,-0.0,-0.0,-0.0,-0.0,-0.0,-0.0,-0.0,-0.0,-0.0,-0.0,-0.0,-0.0,-0.0,-0.0,-0.0,-0.0,-0.0,-0.0,-0.0,-0.0,-0.0,-0.0,-0.0,-0.0,-0.0,-0.0,-0.0,-0.0,-0.0,-0.0,-0.0,-0.0,-0.0,-0.0,-0.0,-0.0,-0.0,-0.0,-0.0,-0.0269,-0.0808,-0.0808,-0.0718,-0.0449,-0.0453,-0.0457,-0.0463,-0.0467,-0.0379,-0.0386,-0.0489,-0.0493,-0.0497,-0.4003,-0.4016,-0.3963,-0.3714,-0.3475,-0.3077,-0.2447,-0.2016,-0.1851,-0.2058,-0.1506,-0.0883,-0.0269,-0.009,-0.0,-0.0,-0.0,-0.0,-0.0,-0.0,-0.0,-0.0,-0.0,-0.0,-0.0,-0.0,-0.0,-0.0,-0.0,-0.0,-0.0,-0.0,-0.0,-0.0,-0.0,-0.0,-0.0,-0.0,-0.0,-0.0,-0.0,-0.0,-0.0,-0.0,-0.0,-0.0,-0.0,-0.0,-0.0,-0.0,-0.0,-0.0,-0.0,-0.0,-0.0,-0.0,-0.0,-0.0,-0.0,-0.0,-0.0,-0.0,-0.0,-0.0,-0.0,-0.0,-0.0,-0.0,-0.0,-0.0,-0.0,-0.0,-0.0,-0.0,-0.0,-0.0,-0.0,-0.0,-0.0,-0.0,-0.0,-0.0,-0.0,-0.0,-0.0,-0.0,-0.0,-0.0,-0.0,-0.0,-0.0,-0.0,-0.0,-0.0,-0.0,-0.0,-0.0,-0.0,-0.0,-0.0,-0.0,-0.0,-0.0539,-0.1436,-0.1705,-0.1615,-0.1345,-0.1166,-0.1176,-0.11,-0.11,-0.1021,-0.0947,-0.096,-0.107,-0.1378,-0.5535,-0.5282,-0.5063,-0.4915,-0.4249,-0.3674,-0.3304,-0.3047,-0.3045,-0.3497,-0.3587,-0.2868,-0.0896,-0.0269,-0.0,-0.0,-0.0,-0.0,-0.0,-0.0,-0.0,-0.0,-0.0,-0.0,-0.0,-0.0,-0.0,-0.0,-0.0,-0.0,-0.0,-0.0,-0.0,-0.0,-0.0,-0.0,-0.0,-0.0,-0.0,-0.0,-0.0,-0.0,-0.0,-0.0,-0.0,-0.0,-0.0,-0.0,-0.0,-0.0,-0.0,-0.0,-0.0,-0.0,-0.0,-0.0,-0.0,-0.0,-0.0,-0.0,-0.0,-0.0,-0.0,-0.0,-0.0,-0.0,-0.0,-0.0,-0.0,-0.0,-0.0,-0.0,-0.0,-0.0,-0.0,-0.0,-0.0,-0.0,-0.0,-0.0,-0.0,-0.0,-0.0,-0.0,-0.0,-0.0,-0.0,-0.0,-0.0,-0.0,-0.0,-0.0,-0.0,-0.0,-0.0,-0.0,-0.0,-0.0,-0.0,-0.0,-0.0,-0.0,-0.0539,-0.1436,-0.2424,-0.2873,-0.2873,-0.2334,-0.2155,-0.2155,-0.2155,-0.1819,-0.1389,-0.1389,-0.1805,-0.2456,-0.6072,-0.6005,-0.5872,-0.5736,-0.5401,-0.4972,-0.4741,-0.4476,-0.4385,-0.4565,-0.4297,-0.3851,-0.3224,-0.1882,-0.0807,-0.0538,-0.0179,-0.0,-0.0,-0.0,-0.0,-0.0,-0.0,-0.0,-0.0,-0.0,-0.0,-0.0,-0.0,-0.0,-0.0,-0.0,-0.0,-0.0,-0.0,-0.0,-0.0,-0.0,-0.0,-0.0,-0.0,-0.0,-0.0,-0.0,-0.0,-0.0,-0.0,-0.0,-0.0,-0.0,-0.0,-0.0,-0.0,-0.0,-0.0,-0.0,-0.0,-0.0,-0.0,-0.0,-0.0,-0.0,-0.0,-0.0,-0.0,-0.0,-0.0,-0.0,-0.0,-0.0,-0.0,-0.0,-0.0,-0.0,-0.0,-0.0,-0.0,-0.0,-0.0,-0.0,-0.0,-0.0,-0.0,-0.0,-0.0,-0.0,-0.0,-0.0,-0.0,-0.0,-0.0,-0.0,-0.0,-0.0,-0.0,-0.0,-0.0,-0.0,-0.0,-0.0,-0.0,-0.0,-0.0539,-0.1436,-0.2424,-0.2872,-0.2869,-0.2869,-0.2869,-0.2869,-0.2869,-0.2612,-0.2179,-0.2392,-0.2517,-0.2833,-0.6644,-0.6576,-0.643,-0.6337,-0.608,-0.5811,-0.5638,-0.5455,-0.5275,-0.5275,-0.501,-0.4832,-0.4746,-0.3492,-0.2239,-0.1254,-0.0986,-0.0628,-0.0269,-0.0269,-0.018,-0.0,-0.0,-0.0,-0.0,-0.0,-0.0,-0.0,-0.0,-0.0,-0.0,-0.0,-0.0,-0.0,-0.0,-0.0,-0.0,-0.0,-0.0,-0.0,-0.0,-0.0,-0.0,-0.0,-0.0,-0.0,-0.0,-0.0,-0.0,-0.0,-0.0,-0.0,-0.0,-0.0,-0.0,-0.0,-0.0,-0.0,-0.0,-0.0,-0.0,-0.0,-0.0,-0.0,-0.0,-0.0,-0.0,-0.0,-0.0,-0.0,-0.0,-0.0,-0.0,-0.0,-0.0,-0.0,-0.0,-0.0,-0.0,-0.0,-0.0,-0.0,-0.0,-0.0,-0.0,-0.0,-0.0,-0.0,-0.0,-0.0,-0.0,-0.0,-0.0,-0.0,-0.0,-0.0,-0.0,-0.0,-0.0342,-0.0525,-0.0539,-0.0539,-0.0987,-0.1794,-0.2782,-0.3318,-0.3405,-0.3673,-0.3849,-0.3849,-0.376,-0.3405,-0.2966,-0.3182,-0.3214,-0.3242,-0.7139,-0.6966,-0.6792,-0.6792,-0.6438,-0.6171,-0.6171,-0.5991,-0.5808,-0.5808,-0.5808,-0.5722,-0.5549,-0.5099,-0.4111,-0.2326,-0.2241,-0.1884,-0.0896,-0.0807,-0.0628,-0.0179,-0.009,-0.0088,-0.0,-0.0,-0.0,-0.0,-0.0,-0.0,-0.0,-0.0,-0.0,-0.0,-0.0,-0.0,-0.0,-0.0,-0.0,-0.0,-0.0,-0.0,-0.0,-0.0,-0.0,-0.0,-0.0,-0.0,-0.0,-0.0,-0.0,-0.0,-0.0,-0.0,-0.0,-0.0,-0.0,-0.0,-0.0,-0.0,-0.0,-0.0,-0.0,-0.0,-0.0,-0.0,-0.0,-0.0,-0.0,-0.0,-0.0,-0.0,-0.0,-0.0,-0.0,-0.0,-0.0,-0.0,-0.0,-0.0,-0.0,-0.0,-0.0,-0.0,-0.0,-0.0,-0.0,-0.0,-0.0,-0.0,-0.0,-0.0,-0.0,-0.0,-0.0,-0.0079,-0.008,-0.0084,-0.0967,-0.1436,-0.1525,-0.1525,-0.1885,-0.2603,-0.3499,-0.4034,-0.4389,-0.4652,-0.4917,-0.5008,-0.4828,-0.4295,-0.3676,-0.3941,-0.3901,-0.3876,-0.7139,-0.7051,-0.7054,-0.7054,-0.6966,-0.6877,-0.6877,-0.6786,-0.6786,-0.6786,-0.6612,-0.6526,-0.6441,-0.608,-0.5544,-0.4825,-0.3491,-0.2599,-0.2419,-0.2062,-0.1794,-0.1705,-0.0987,-0.0528,-0.0422,-0.0168,-0.0,-0.0,-0.0,-0.0,-0.0,-0.0,-0.0,-0.0,-0.0,-0.0,-0.0,-0.0,-0.0,-0.0,-0.0,-0.0,-0.0,-0.0,-0.0,-0.0,-0.0,-0.0,-0.0,-0.0,-0.0,-0.0,-0.0,-0.0,-0.0,-0.0,-0.0,-0.0,-0.0,-0.0,-0.0,-0.0,-0.0,-0.0,-0.0,-0.0,-0.0,-0.0,-0.0,-0.0,-0.0,-0.0,-0.0,-0.0,-0.0,-0.0,-0.0,-0.0,-0.0,-0.0,-0.0,-0.0,-0.0,-0.0,-0.0,-0.0,-0.0,-0.0,-0.0,-0.0,-0.0,-0.0,-0.0,-0.0,-0.0,-0.0707,-0.1046,-0.1096,-0.1319,-0.1794,-0.2513,-0.2513,-0.3051,-0.386,-0.4393,-0.475,-0.5193,-0.5364,-0.5453,-0.5542,-0.5453,-0.501,-0.4482,-0.4924,-0.5029,-0.5053,-0.7139,-0.7139,-0.7139,-0.7139,-0.7139,-0.7139,-0.7139,-0.7139,-0.7139,-0.7139,-0.6966,-0.6966,-0.6966,-0.6615,-0.6349,-0.6254,-0.4919,-0.3941,-0.3583,-0.3315,-0.2959,-0.2511,-0.1972,-0.1582,-0.1263,-0.0841,-0.0411,-0.0,-0.0,-0.0,-0.0,-0.0,-0.0,-0.0,-0.0,-0.0,-0.0,-0.0,-0.0,-0.0,-0.0,-0.0,-0.0,-0.0,-0.0,-0.0,-0.0,-0.0,-0.0,-0.0,-0.0,-0.0,-0.0,-0.0,-0.0,-0.0,-0.0,-0.0,-0.0,-0.0,-0.0,-0.0,-0.0,-0.0,-0.0,-0.0,-0.0,-0.0,-0.0,-0.0,-0.0,-0.0,-0.0,-0.0,-0.0,-0.0,-0.0,-0.0,-0.0,-0.0,-0.0,-0.0,-0.0,-0.0,-0.0,-0.0,-0.0,-0.0,-0.0,-0.0393,-0.0393,-0.0,-0.0393,-0.0628,-0.0628,-0.1124,-0.1643,-0.2106,-0.2198,-0.2601,-0.3321,-0.3499,-0.3855,-0.448,-0.5015,-0.5458,-0.5902,-0.608,-0.6166,-0.6166,-0.6166,-0.5813,-0.5371,-0.5725,-0.5813,-0.5727,-0.7139,-0.7139,-0.7139,-0.7139,-0.7139,-0.7139,-0.7139,-0.7139,-0.7139,-0.7139,-0.7139,-0.7139,-0.7139,-0.6966,-0.6881,-0.6881,-0.6083,-0.5369,-0.4654,-0.4478,-0.4119,-0.3315,-0.3135,-0.2898,-0.2355,-0.1669,-0.098,-0.0314,-0.0236,-0.0157,-0.0157,-0.0157,-0.0079,-0.0079,-0.0,-0.0,-0.0,-0.0,-0.0,-0.0,-0.0,-0.0,-0.0,-0.0,-0.0,-0.0,-0.0,-0.0,-0.0,-0.0,-0.0,-0.0,-0.0,-0.0,-0.0,-0.0,-0.0,-0.0,-0.0,-0.0,-0.0,-0.0,-0.0,-0.0,-0.0,-0.0,-0.0,-0.0,-0.0,-0.0,-0.0,-0.0,-0.0,-0.0,-0.0,-0.0,-0.0,-0.0,-0.0,-0.0,-0.0,-0.0,-0.0,-0.0,-0.0079,-0.0157,-0.0157,-0.0157,-0.0157,-0.0864,-0.1021,-0.0393,-0.0942,-0.1336,-0.1492,-0.1647,-0.2105,-0.3031,-0.3338,-0.3585,-0.3944,-0.43,-0.4654,-0.4917,-0.5542,-0.5988,-0.652,-0.6704,-0.6795,-0.6795,-0.6795,-0.6526,-0.6171,-0.6343,-0.6346,-0.626,-0.7139,-0.7139,-0.7139,-0.7139,-0.7139,-0.7139,-0.7139,-0.7139,-0.7139,-0.7139,-0.7139,-0.7139,-0.7139,-0.7051,-0.7054,-0.7054,-0.6962,-0.6523,-0.5902,-0.5458,-0.5193,-0.5013,-0.4389,-0.3949,-0.3779,-0.2344,-0.1658,-0.1568,-0.1256,-0.11,-0.11,-0.0707,-0.0471,-0.0471,-0.0157,-0.0,-0.0,-0.0,-0.0,-0.0,-0.0,-0.0,-0.0,-0.0,-0.0,-0.0,-0.0,-0.0,-0.0,-0.0,-0.0,-0.0,-0.0,-0.0,-0.0,-0.0,-0.0,-0.0,-0.0,-0.0,-0.0,-0.0,-0.0,-0.0,-0.0,-0.0,-0.0,-0.0,-0.0,-0.0,-0.0,-0.0,-0.0,-0.0,-0.0,-0.0,-0.0,-0.0,-0.0,-0.0,-0.0,-0.0,-0.0,-0.0,-0.0314,-0.1021,-0.11,-0.11,-0.11,-0.1257,-0.157,-0.2118,-0.157,-0.1649,-0.2276,-0.2714,-0.3114,-0.3531,-0.3949,-0.4297,-0.4563,-0.5013,-0.546,-0.5902,-0.5991,-0.6349,-0.6704,-0.6795,-0.6795,-0.6795,-0.6795,-0.6615,-0.6343,-0.6612,-0.6704,-0.6704,-0.7139,-0.7139,-0.7139,-0.7139,-0.7139,-0.7139,-0.7139,-0.7139,-0.7139,-0.7139,-0.7139,-0.7139,-0.7139,-0.7139,-0.7139,-0.7139,-0.7139,-0.6966,-0.67,-0.6349,-0.6083,-0.5816,-0.546,-0.4913,-0.4283,-0.3291,-0.2665,-0.2196,-0.2041,-0.2042,-0.2277,-0.2042,-0.1727,-0.1256,-0.1099,-0.0942,-0.0707,-0.0707,-0.055,-0.0314,-0.0314,-0.0314,-0.0314,-0.0314,-0.0157,-0.0,-0.0,-0.0,-0.0,-0.0,-0.0,-0.0,-0.0,-0.0,-0.0,-0.0,-0.0,-0.0,-0.0,-0.0,-0.0,-0.0,-0.0,-0.0,-0.0,-0.0,-0.0,-0.0,-0.0,-0.0,-0.0,-0.0,-0.0,-0.0,-0.0,-0.0,-0.0,-0.0,-0.0,-0.0,-0.0,-0.0,-0.0,-0.0,-0.0393,-0.1257,-0.1729,-0.1965,-0.1965,-0.2121,-0.2434,-0.2904,-0.2591,-0.2591,-0.2904,-0.3451,-0.3781,-0.4032,-0.4736,-0.5188,-0.5455,-0.5902,-0.626,-0.6526,-0.6612,-0.6789,-0.6969,-0.6969,-0.6969,-0.6969,-0.6969,-0.6877,-0.6786,-0.6877,-0.6969,-0.6969,-0.7139,-0.7139,-0.7139,-0.7139,-0.7139,-0.7139,-0.7139,-0.7139,-0.7139,-0.7139,-0.7139,-0.7139,-0.7139,-0.7139,-0.7139,-0.7139,-0.7139,-0.7139,-0.7139,-0.6966,-0.6704,-0.6349,-0.6201,-0.5714,-0.4668,-0.4243,-0.3761,-0.2979,-0.2979,-0.3136,-0.3374,-0.3295,-0.2902,-0.2352,-0.2117,-0.1883,-0.1571,-0.1649,-0.1492,-0.1178,-0.1099,-0.1021,-0.0864,-0.0864,-0.0628,-0.0314,-0.0157,-0.0157,-0.0157,-0.0236,-0.0314,-0.0314,-0.0314,-0.0314,-0.0314,-0.0157,-0.0079,-0.0,-0.0,-0.0,-0.0,-0.0,-0.0,-0.0,-0.0,-0.0,-0.0,-0.0,-0.0,-0.0,-0.0,-0.0,-0.0,-0.0,-0.0157,-0.0314,-0.0314,-0.0236,-0.0079,-0.0,-0.0,-0.0079,-0.0314,-0.0314,-0.0628,-0.1335,-0.2044,-0.2438,-0.2595,-0.2826,-0.3217,-0.361,-0.3454,-0.3454,-0.361,-0.4104,-0.4529,-0.4699,-0.5521,-0.608,-0.626,-0.6704,-0.6881,-0.6881,-0.7054,-0.7139,-0.7139,-0.7139,-0.7139,-0.7139,-0.7139,-0.7139,-0.7139,-0.7139,-0.7139,-0.7139,-0.7139,-0.7139,-0.7139,-0.7139,-0.7139,-0.7139,-0.7139,-0.7139,-0.7139,-0.7139,-0.7139,-0.7139,-0.7139,-0.7139,-0.7139,-0.7139,-0.7139,-0.7139,-0.7139,-0.7051,-0.7051,-0.7051,-0.6619,-0.6074,-0.5451,-0.5072,-0.4774,-0.4543,-0.4384,-0.4304,-0.4307,-0.3919,-0.3684,-0.3606,-0.2823,-0.2431,-0.2433,-0.2826,-0.2984,-0.2906,-0.2511,-0.2118,-0.1803,-0.1803,-0.1569,-0.1178,-0.0707,-0.055,-0.0628,-0.1021,-0.1178,-0.1178,-0.1178,-0.1178,-0.11,-0.0707,-0.0314,-0.0,-0.0,-0.0,-0.0,-0.0,-0.0,-0.0,-0.0,-0.0,-0.0,-0.0,-0.0,-0.0,-0.0,-0.0,-0.0,-0.0,-0.0707,-0.1178,-0.1178,-0.0864,-0.0393,-0.0079,-0.0,-0.0314,-0.11,-0.1178,-0.1335,-0.165,-0.1965,-0.2357,-0.2747,-0.3136,-0.3761,-0.4545,-0.4075,-0.3999,-0.4623,-0.5086,-0.5366,-0.5613,-0.6393,-0.6707,-0.6795,-0.6966,-0.7054,-0.7054,-0.7051,-0.7139,-0.7139,-0.7139,-0.7139,-0.7139,-0.7139,-0.7139,-0.7139,-0.7139,-0.7139,-0.7139,-0.7139,-0.7139,-0.7139,-0.7139,-0.7139,-0.7139,-0.7139,-0.7139,-0.7139,-0.7139,-0.7139,-0.7139,-0.7139,-0.7139,-0.7139,-0.7139,-0.7139,-0.7139,-0.7139,-0.7058,-0.701,-0.701,-0.6636,-0.629,-0.5919,-0.5698,-0.5395,-0.5087,-0.501,-0.4929,-0.4771,-0.4616,-0.4462,-0.4309,-0.3995,-0.3761,-0.3682,-0.3839,-0.3763,-0.353,-0.3372,-0.3057,-0.2663,-0.2663,-0.243,-0.1962,-0.1648,-0.1648,-0.1804,-0.1962,-0.2199,-0.2434,-0.2434,-0.2434,-0.2277,-0.1569,-0.1333,-0.1099,-0.0864,-0.0393,-0.0,-0.0,-0.0,-0.0,-0.0,-0.0,-0.0,-0.0,-0.0393,-0.0786,-0.0786,-0.0786,-0.0786,-0.0786,-0.11,-0.1415,-0.165,-0.1493,-0.1335,-0.1178,-0.0943,-0.0943,-0.1257,-0.1727,-0.2119,-0.2199,-0.2829,-0.3142,-0.3136,-0.3915,-0.4693,-0.5398,-0.524,-0.5085,-0.5087,-0.5657,-0.5952,-0.6111,-0.6652,-0.6883,-0.6966,-0.7051,-0.7139,-0.7139,-0.7139,-0.7139,-0.7139,-0.7139,-0.7139,-0.7139,-0.7139,-0.7139,-0.7139,-0.7139,-0.7139,-0.7139,-0.7139,-0.7139,-0.7139,-0.7139,-0.7139,-0.7139,-0.7139,-0.7139,-0.7139,-0.7139,-0.7139,-0.7139,-0.7139,-0.7139,-0.7139,-0.7139,-0.7139,-0.7122,-0.7078,-0.6892,-0.6787,-0.6783,-0.6583,-0.6451,-0.6255,-0.6074,-0.5864,-0.5634,-0.5634,-0.5553,-0.5395,-0.5315,-0.524,-0.5087,-0.4932,-0.4776,-0.4696,-0.4618,-0.4462,-0.4151,-0.4151,-0.3917,-0.3602,-0.3602,-0.329,-0.2901,-0.2666,-0.2666,-0.2744,-0.2823,-0.3059,-0.3374,-0.3452,-0.3452,-0.3217,-0.2666,-0.2273,-0.204,-0.1727,-0.1335,-0.0863,-0.0471,-0.0393,-0.0393,-0.0236,-0.0157,-0.0157,-0.0157,-0.0786,-0.1415,-0.165,-0.1649,-0.1728,-0.1806,-0.1806,-0.1963,-0.2278,-0.2278,-0.2121,-0.2121,-0.1806,-0.1728,-0.1885,-0.2434,-0.2824,-0.2902,-0.353,-0.3923,-0.4073,-0.4849,-0.5473,-0.6018,-0.6022,-0.5864,-0.5634,-0.6086,-0.6387,-0.6529,-0.677,-0.7004,-0.7139,-0.7139,-0.7139,-0.7139,-0.7139,-0.7139,-0.7139,-0.7139,-0.7139,-0.7139,-0.7139,-0.7139,-0.7139,-0.7139,-0.7139,-0.7139,-0.7139,-0.7139,-0.7139,-0.7139,-0.7139,-0.7139,-0.7139,-0.7139,-0.7139,-0.7139,-0.7139,-0.7139,-0.7139,-0.7139,-0.7139,-0.7139,-0.7139,-0.7082,-0.7111,-0.6808,-0.6555,-0.6471,-0.6471,-0.6407,-0.6264,-0.6338,-0.6338,-0.6338,-0.6338,-0.6338,-0.6261,-0.6022,-0.5941,-0.586,-0.5476,-0.5321,-0.5321,-0.5082,-0.5004,-0.5004,-0.5004,-0.4851,-0.4701,-0.4701,-0.4309,-0.3841,-0.3841,-0.3526,-0.321,-0.3682,-0.3841,-0.3841,-0.4307,-0.4151,-0.3841,-0.3841,-0.3215,-0.2511,-0.2511,-0.2826,-0.2826,-0.1649,-0.1335,-0.1178,-0.0707,-0.0628,-0.0628,-0.0628,-0.1021,-0.1572,-0.2359,-0.2514,-0.2668,-0.3062,-0.2982,-0.2982,-0.3299,-0.2984,-0.2746,-0.2511,-0.2511,-0.2746,-0.3221,-0.3299,-0.3454,-0.3763,-0.3992,-0.4538,-0.5559,-0.5789,-0.6022,-0.6261,-0.6338,-0.6338,-0.6338,-0.64,-0.6549,-0.6702,-0.6854,-0.7,-0.7139,-0.7139,-0.7139,-0.7139,-0.7139,-0.7139,-0.7139,-0.7139,-0.7139,-0.7139,-0.7139,-0.7139,-0.7139,-0.7139,-0.7139,-0.7139,-0.7139,-0.7139,-0.7139,-0.7139,-0.7139,-0.7139,-0.7139,-0.7139,-0.7139,-0.7139,-0.7139,-0.7139,-0.7139,-0.7139,-0.7139,-0.7139,-0.7138,-0.7059,-0.6795,-0.669,-0.651,-0.6407,-0.6325,-0.6305,-0.6264,-0.6338,-0.6338,-0.6338,-0.6338,-0.6338,-0.6261,-0.618,-0.618,-0.618,-0.6025,-0.6025,-0.6025,-0.5944,-0.5786,-0.5628,-0.5628,-0.5476,-0.5326,-0.5326,-0.5168,-0.4854,-0.4854,-0.4693,-0.4457,-0.4616,-0.4616,-0.4693,-0.4771,-0.4771,-0.4618,-0.4465,-0.4231,-0.3995,-0.3839,-0.3917,-0.3763,-0.2826,-0.2591,-0.2512,-0.2356,-0.2119,-0.1961,-0.1961,-0.2356,-0.2749,-0.2986,-0.3139,-0.3136,-0.3292,-0.345,-0.3606,-0.3839,-0.3759,-0.3759,-0.3837,-0.3837,-0.3917,-0.4075,-0.4231,-0.4311,-0.4387,-0.4774,-0.5162,-0.5786,-0.5864,-0.6022,-0.6261,-0.6338,-0.6338,-0.6338,-0.6302,-0.6396,-0.6542,-0.6695,-0.6848,-0.6997,-0.7095,-0.7139,-0.7139,-0.7139,-0.7139,-0.7139,-0.7139,-0.7139,-0.7139,-0.7139,-0.7139,-0.7139,-0.7139,-0.7139,-0.7139,-0.7139,-0.7139,-0.7139,-0.7139,-0.7139,-0.7139,-0.7139,-0.7139,-0.7139,-0.7139,-0.7139,-0.7139,-0.7139,-0.7139,-0.7115,-0.7061,-0.6956,-0.6926,-0.6896,-0.6583,-0.6431,-0.6342,-0.6338,-0.6338,-0.6338,-0.6338,-0.6338,-0.6338,-0.6338,-0.6338,-0.6338,-0.6338,-0.6338,-0.6338,-0.6338,-0.6338,-0.6338,-0.6338,-0.618,-0.6022,-0.6022,-0.6022,-0.587,-0.587,-0.5712,-0.5553,-0.5553,-0.5398,-0.524,-0.5318,-0.5395,-0.555,-0.555,-0.5473,-0.5318,-0.5243,-0.5087,-0.4932,-0.4774,-0.4696,-0.4538,-0.3995,-0.3763,-0.3608,-0.3452,-0.3215,-0.2979,-0.2744,-0.3137,-0.353,-0.3608,-0.3682,-0.3837,-0.3917,-0.3995,-0.4151,-0.438,-0.4457,-0.4535,-0.4696,-0.4774,-0.4774,-0.4774,-0.4854,-0.501,-0.5165,-0.5476,-0.5789,-0.6022,-0.6022,-0.6103,-0.6261,-0.6338,-0.6338,-0.6338,-0.6338,-0.6332,-0.6474,-0.6627,-0.678,-0.6932,-0.7075,-0.7139,-0.7139,-0.7139,-0.7139,-0.7139,-0.7139,-0.7139,-0.7139,-0.7139,-0.7139,-0.7139,-0.7139,-0.7139,-0.7139,-0.7139,-0.7139,-0.7139,-0.7139,-0.7139,-0.7139,-0.7139,-0.7139,-0.7139,-0.7139,-0.7139,-0.7139,-0.7139,-0.7129,-0.7071,-0.6939,-0.6819,-0.6798,-0.7031,-0.6574,-0.6338,-0.6338,-0.6338,-0.6338,-0.6338,-0.6338,-0.6338,-0.6338,-0.6338,-0.6338,-0.6338,-0.6338,-0.6338,-0.6338,-0.6338,-0.6338,-0.6338,-0.6338,-0.6338,-0.6338,-0.6338,-0.6338,-0.6338,-0.6338,-0.618,-0.5941,-0.5941,-0.5789,-0.5715,-0.5864,-0.6099,-0.6338,-0.6338,-0.6103,-0.5941,-0.5941,-0.5709,-0.5398,-0.5398,-0.524,-0.5082,-0.5082,-0.4851,-0.4462,-0.3997,-0.3919,-0.3761,-0.3366,-0.3602,-0.3995,-0.4146,-0.4382,-0.454,-0.4776,-0.4621,-0.4618,-0.5004,-0.5082,-0.516,-0.5398,-0.5398,-0.5398,-0.5398,-0.5398,-0.5553,-0.5941,-0.618,-0.6338,-0.6338,-0.6338,-0.6338,-0.6338,-0.6338,-0.6338,-0.6338,-0.6338,-0.6325,-0.6454,-0.662,-0.6773,-0.6912,-0.7068,-0.7139,-0.7139,-0.7139,-0.7139,-0.7139,-0.7139,-0.7139,-0.7139,-0.7139,-0.7139,-0.7139,-0.7139,-0.7139,-0.7139,-0.7139,-0.7139,-0.7139,-0.7139,-0.7139,-0.7139,-0.7139,-0.7139,-0.7139,-0.7139,-0.7139,-0.7139,-0.7139,-0.7041,-0.6963,-0.7022,-0.699,-0.6835,-0.6475,-0.6359,-0.6338,-0.6338,-0.6338,-0.6338,-0.6338,-0.6338,-0.6338,-0.6338,-0.6338,-0.6338,-0.6338,-0.6338,-0.6338,-0.6338,-0.6338,-0.6338,-0.6338,-0.6338,-0.6338,-0.6338,-0.6338,-0.6338,-0.6338,-0.6338,-0.6261,-0.618,-0.618,-0.618,-0.6183,-0.618,-0.6261,-0.6338,-0.6338,-0.6261,-0.618,-0.618,-0.618,-0.6103,-0.6103,-0.6025,-0.6025,-0.6025,-0.5944,-0.5712,-0.4929,-0.4771,-0.4693,-0.4613,-0.4771,-0.501,-0.5007,-0.5165,-0.5323,-0.5404,-0.5401,-0.5401,-0.5705,-0.5705,-0.5786,-0.6025,-0.6103,-0.6103,-0.6103,-0.6103,-0.6103,-0.618,-0.6261,-0.6338,-0.6338,-0.6338,-0.6338,-0.6338,-0.6338,-0.6338,-0.6338,-0.6338,-0.6278,-0.6312,-0.6573,-0.6719,-0.6759,-0.7021,-0.7139,-0.7139,-0.7139,-0.7139,-0.7139,-0.7139,-0.7139,-0.7139,-0.7139,-0.7139,-0.7139,-0.7139,-0.7139,-0.7139,-0.7139,-0.7139,-0.7139,-0.7139,-0.7139,-0.7139,-0.7139,-0.7139,-0.7115,-0.7048,-0.7041,-0.701,-0.6939,-0.6865,-0.6877,-0.7062,-0.6837,-0.6581,-0.6345,-0.6338,-0.6338,-0.6338,-0.6338,-0.6338,-0.6338,-0.6338,-0.6338,-0.6338,-0.6338,-0.6338,-0.6338,-0.6338,-0.6338,-0.6338,-0.6338,-0.6338,-0.6338,-0.6338,-0.6338,-0.6338,-0.6338,-0.6338,-0.6338,-0.6338,-0.6338,-0.6338,-0.6338,-0.6338,-0.6338,-0.6338,-0.6338,-0.6338,-0.6338,-0.6338,-0.6338,-0.6338,-0.6338,-0.6338,-0.6338,-0.6338,-0.6338,-0.6338,-0.6338,-0.618,-0.555,-0.5392,-0.5395,-0.5318,-0.5473,-0.555,-0.555,-0.5709,-0.5712,-0.5712,-0.5637,-0.5637,-0.5864,-0.5864,-0.6018,-0.6261,-0.6338,-0.6338,-0.6338,-0.6338,-0.6338,-0.6338,-0.6338,-0.6338,-0.6338,-0.6338,-0.6338,-0.6338,-0.6338,-0.6338,-0.6338,-0.6338,-0.6295,-0.6366,-0.659,-0.6702,-0.6712,-0.7007,-0.7139,-0.7139,-0.7139,-0.7139,-0.7139,-0.7139,-0.7139,-0.7139,-0.7139,-0.7139,-0.7139,-0.7139,-0.7139,-0.7139,-0.7065,-0.7065,-0.7065,-0.7065,-0.7065,-0.7065,-0.7065,-0.7065,-0.7021,-0.6905,-0.6892,-0.6841,-0.6715,-0.6764,-0.6855,-0.6944,-0.6567,-0.6338,-0.6338,-0.6338,-0.6338,-0.6338,-0.6338,-0.6338,-0.6338,-0.6338,-0.6338,-0.6338,-0.6338,-0.6338,-0.6338,-0.6338,-0.6338,-0.6338,-0.6338,-0.6338,-0.6338,-0.6338,-0.6338,-0.6338,-0.6338,-0.6338,-0.6338,-0.6338,-0.6338,-0.6338,-0.6338,-0.6338,-0.6338,-0.6338,-0.6338,-0.6338,-0.6338,-0.6338,-0.6338,-0.6338,-0.6338,-0.6338,-0.6338,-0.6338,-0.6338,-0.6338,-0.6338,-0.6257,-0.6022,-0.5941,-0.5944,-0.5792,-0.5867,-0.5941,-0.5941,-0.5941,-0.5941,-0.5941,-0.5789,-0.5792,-0.5941,-0.5941,-0.6022,-0.6261,-0.6338,-0.6338,-0.6338,-0.6338,-0.6338,-0.6338,-0.6338,-0.6338,-0.6338,-0.6338,-0.6338,-0.6338,-0.6338,-0.6338,-0.6338,-0.6338,-0.6332,-0.6474,-0.6627,-0.6715,-0.6749,-0.7017,-0.7139,-0.7139,-0.7139,-0.7139,-0.7139,-0.7139,-0.7139,-0.7139,-0.7139,-0.7139,-0.7139,-0.7139,-0.7139,-0.7139,-0.6759,-0.6759,-0.6759,-0.6759,-0.6759,-0.6759,-0.6759,-0.6759,-0.6753,-0.6732,-0.6732,-0.6725,-0.6788,-0.6919,-0.6857,-0.6461,-0.6349,-0.6338,-0.6338,-0.6338,-0.6338,-0.6338,-0.6338,-0.6338,-0.6338,-0.6338,-0.6338,-0.6338,-0.6338,-0.6338,-0.6338,-0.6338,-0.6338,-0.6338,-0.6338,-0.6338,-0.6338,-0.6338,-0.6338,-0.6338,-0.6338,-0.6338,-0.6338,-0.6338,-0.6338,-0.6338,-0.6338,-0.6338,-0.6338,-0.6338,-0.6338,-0.6338,-0.6338,-0.6338,-0.6338,-0.6338,-0.6338,-0.6338,-0.6338,-0.6338,-0.6338,-0.6338,-0.6338,-0.6261,-0.6261,-0.6261,-0.6257,-0.6183,-0.6261,-0.6261,-0.6261,-0.6261,-0.6261,-0.6261,-0.6261,-0.6183,-0.6257,-0.6261,-0.6261,-0.6261,-0.6338,-0.6338,-0.6338,-0.6338,-0.6338,-0.6338,-0.6338,-0.6338,-0.6338,-0.6338,-0.6338,-0.6338,-0.6338,-0.6338,-0.6338,-0.6338,-0.6332,-0.6474,-0.6627,-0.677,-0.6905,-0.7065,-0.7139,-0.7139,-0.7139,-0.7139,-0.7139,-0.7139,-0.7139,-0.7139,-0.7139,-0.7139,-0.7139,-0.7139,-0.7139,-0.7139,-0.6943,-0.6861,-0.6864,-0.6698,-0.6702,-0.6702,-0.6702,-0.6702,-0.6671,-0.6583,-0.6654,-0.6623,-0.6544,-0.6637,-0.657,-0.6345,-0.6338,-0.6338,-0.6338,-0.6338,-0.6338,-0.6338,-0.6338,-0.6338,-0.6338,-0.6338,-0.6338,-0.6338,-0.6338,-0.6338,-0.6338,-0.6338,-0.6338,-0.6338,-0.6338,-0.6338,-0.6338,-0.6338,-0.6338,-0.6338,-0.6338,-0.6338,-0.6338,-0.6338,-0.6338,-0.6338,-0.6338,-0.6338,-0.6338,-0.6338,-0.6338,-0.6338,-0.6338,-0.6338,-0.6338,-0.6338,-0.6338,-0.6338,-0.6338,-0.6338,-0.6338,-0.6338,-0.6338,-0.6338,-0.6338,-0.6338,-0.6338,-0.6338,-0.6338,-0.6338,-0.6338,-0.6338,-0.6338,-0.6338,-0.6338,-0.6338,-0.6338,-0.6338,-0.6338,-0.6338,-0.6338,-0.6338,-0.6338,-0.6338,-0.6338,-0.6338,-0.6338,-0.6338,-0.6338,-0.6338,-0.6338,-0.6338,-0.6338,-0.6338,-0.6338,-0.6338,-0.6376,-0.66,-0.6668,-0.678,-0.6932,-0.7075,-0.7139,-0.7139,-0.7139,-0.7139,-0.7139,-0.7139,-0.7139,-0.7139,-0.7139,-0.7092,-0.7021,-0.7021,-0.6966,-0.6895]},{"header":{"parameterUnit":"m.s-1","parameterCategory":1,"la1":30.6,"la2":28.766,"lo1":-90.7593,"lo2":-88.6598,"dy":0.0162,"dx":0.0183,"nx":116,"ny":114,"refTime":"2023-08-11T18:00:00:Z","depth":0,"parameterNumber":3,"parameterNumberName":"V-component_of_WINDS"},"data":[0.0,0.0,0.0,0.0,0.0,0.0,0.0,0.0,0.0,0.0,0.0,0.0,0.0,0.0,0.0,0.0,0.0,0.0,0.0,0.0,0.0,0.0,0.0,0.0,0.0,0.0,0.0,0.0,0.0,0.0,0.0,0.0,0.0,0.0,0.0,0.0,0.0,0.0,0.0,0.0,0.0,0.0,0.0,0.0,0.0,0.0,0.0,0.0,0.0,0.0,0.0,0.0,0.0,0.0,0.0,0.0,0.0,0.0,0.0,0.0,0.0,0.0,0.0,0.0,0.0,0.0,0.0,0.0,0.0,0.0,0.0,0.0,0.0,0.0,0.0,0.0,0.0,0.0,0.0,0.0,0.0,0.0,0.0,0.0,0.0,0.0,0.0,0.0,0.0,0.0,0.0,0.0,0.0,0.0,0.0,0.0,0.0,0.0,0.0,0.0,0.0,0.0,0.0,0.0,0.0,0.0,0.0,0.0,0.0,0.0,0.0,0.0,0.0,0.0,0.0,0.0,0.0,0.0,0.0,0.0,0.0,0.0,0.0,0.0,0.0,0.0,0.0,0.0,0.0,0.0,0.0,0.0,0.0,0.0,0.0,0.0,0.0,0.0,0.0,0.0,0.0,0.0,0.0,0.0,0.0,0.0,0.0,0.0,0.0,0.0,0.0,0.0,0.0,0.0,0.0,0.0,0.0,0.0,0.0,0.0,0.0,0.0,0.0,0.0,0.0,0.0,0.0,0.0,0.0,0.0,0.0,0.0,0.0,0.0,0.0,0.0,0.0,0.0,0.0,0.0,0.0,0.0,0.0,0.0,0.0,0.0,0.0,0.0,0.0,0.0,0.0,0.0,0.0,0.0,0.0,0.0,0.0,0.0,0.0,0.0,0.0,0.0,0.0,0.0,0.0,0.0,0.0,0.0,0.0,0.0,0.0,0.0,0.0,0.0,0.0,0.0,0.0,0.0,0.0,0.0,0.0,0.0,0.0,0.0,0.0,0.0,0.0,0.0,0.0,0.0,0.0,0.0,0.0,0.0,0.0,0.0,0.0,0.0,0.0,0.0,0.0,0.0,0.0,0.0,0.0,0.0,0.0,0.0,0.0,0.0,0.0,0.0,0.0,0.0,0.0,0.0,0.0,0.0,0.0,0.0,0.0,0.0,0.0,0.0,0.0,0.0,0.0,0.0,0.0,0.0,0.0,0.0,0.0,0.0,0.0,0.0,0.0,0.0,0.0,0.0,0.0,0.0,0.0,0.0,0.0,0.0,0.0,0.0,0.0,0.0,0.0,0.0,0.0,0.0,0.0,0.0,0.0,0.0,0.0,0.0,0.0,0.0,0.0,0.0,0.0,0.0,0.0,0.0,0.0,0.0,0.0,0.0,0.0,0.0,0.0,0.0,0.0,0.0,0.0,0.0,0.0,0.0,0.0,0.0,0.0,0.0,0.0,0.0,0.0,0.0,0.0,0.0,0.0,0.0,0.0,0.0,0.0,0.0,0.0,0.0,0.0,0.0,0.0,0.0,0.0,0.0,0.0,0.0,0.0,0.0,0.0,0.0,0.0,0.0,0.0,0.0,0.0,0.0,0.0,0.0,0.0,0.0,0.0,0.0,0.0,0.0,0.0,0.0,0.0,0.0,0.0,0.0,0.0,0.0,0.0,0.0,0.0,0.0,0.0,0.0,0.0,0.0,0.0,0.0,0.0,0.0,0.0,0.0,0.0,0.0,0.0,0.0,0.0,0.0,0.0,0.0,0.0,0.0,0.0,0.0,0.0,0.0,0.0,0.0,0.0,0.0,0.0,0.0,0.0,0.0,0.0,0.0,0.0,0.0,0.0,0.0,0.0,0.0,0.0,0.0,0.0,0.0,0.0,0.0,0.0,0.0,0.0,0.0,0.0,0.0,0.0,0.0,0.0,0.0,0.0,0.0,0.0,0.0,0.0,0.0,0.0,0.0,0.0,0.0,0.0,0.0,0.0,0.0,0.0,0.0,0.0,0.0,0.0,0.0,0.0,0.0,0.0,0.0,0.0,0.0,0.0,0.0,0.0,0.0,0.0,0.0,0.0,0.0,0.0,0.0,0.0,0.0,0.0,0.0,0.0,0.0,0.0,0.0,0.0,0.0,0.0,0.0,0.0,0.0,0.0,0.0,0.0,0.0,0.0,0.0,0.0,0.0,0.0,0.0,0.0,0.0,0.0,0.0,0.0,0.0,0.0,0.0,0.0,0.0,0.0,0.0,0.0,0.0,0.0,0.0,0.0,0.0,0.0,0.0,0.0,0.0,0.0,0.0,0.0,0.0,0.0,0.0,0.0,0.0,0.0,0.0,0.0,0.0,0.0,0.0,0.0,0.0,0.0,0.0,0.0,0.0,0.0,0.0,0.0,0.0,0.0,0.0,0.0,0.0,0.0,0.0,0.0,0.0,0.0,0.0,0.0,0.0,0.0,0.0,0.0,0.0,0.0,0.0,0.0,0.0,0.0,0.0,0.0,0.0,0.0,0.0,0.0,0.0,0.0,0.0,0.0,0.0,0.0,0.0,0.0,0.0,0.0,0.0,0.0,0.0,0.0,0.0,0.0,0.0,0.0,0.0,0.0,0.0,0.0,0.0,0.0,0.0,0.0,0.0,0.0,0.0,0.0,0.0,0.0,0.0,0.0,0.0,0.0,0.0,0.0,0.0,0.0,0.0,0.0,0.0,0.0,0.0,0.0,0.0,0.0,0.0,0.0,0.0,0.0,0.0,0.0,0.0,0.0,0.0,0.0,0.0,0.0,0.0,0.0,0.0,0.0,0.0,0.0,0.0,0.0,0.0,0.0,0.0,0.0,0.0,0.0,0.0,0.0,0.0,0.0,0.0,0.0,0.0,0.0,0.0,0.0,0.0,0.0,0.0,0.0,0.0,0.0,0.0,0.0,0.0,0.0,0.0,0.0,0.0,0.0,0.0,0.0,0.0,0.0,0.0,0.0,0.0,0.0,0.0,0.0,0.0,0.0,0.0,0.0,0.0,0.0,0.0,0.0,0.0,0.0,0.0,0.0,0.0,0.0,0.0,0.0,0.0,0.0,0.0,0.0,0.0,0.0,0.0,0.0,0.0,0.0,0.0,0.0,0.0,0.0,0.0,0.0,0.0,0.0,0.0,0.0,0.0,0.0,0.0,0.0,0.0,0.0,0.0,0.0,0.0,0.0,0.0,0.0,0.0,0.0,0.0,0.0,0.0,0.0,0.0,0.0,0.0,0.0,0.0,0.0,0.0,0.0,0.0,0.0,0.0,0.0,0.0,0.0,0.0,0.0,0.0,0.0,0.0,0.0,0.0,0.0,0.0,0.0,0.0,0.0,0.0,0.0,0.0,0.0,0.0,0.0,0.0,0.0,0.0,0.0,0.0,0.0,0.0,0.0,0.0,0.0,0.0,0.0,0.0,0.0,0.0,0.0,0.0,0.0,0.0,0.0,0.0,0.0,0.0,0.0,0.0,0.0,0.0,0.0,0.0,0.0,0.0,0.0,0.0,0.0,0.0,0.0,0.0,0.0,0.0,0.0,0.0,0.0,0.0,0.0,0.0,0.0,0.0,0.0,0.0,0.0,0.0,0.0,0.0,0.0,0.0,0.0,0.0,0.0,0.0,0.0,0.0,0.0,0.0,0.0,0.0,0.0,0.0,0.0,0.0,0.0,0.0,0.0,0.0,0.0,0.0,0.0,0.0,0.0,0.0,0.0,0.0,0.0,0.0,0.0,0.0,0.0,0.0,0.0,0.0,0.0,0.0,0.0,0.0,0.0,0.0,0.0,0.0,0.0,0.0,0.0,0.0,0.0,0.0,0.0,0.0,0.0,0.0,0.0,0.0,0.0,0.0,0.0,0.0,0.0,0.0,0.0,0.0,0.0,0.0,0.0,0.0,0.0,0.0,0.0,0.0,0.0,0.0,0.0,0.0,0.0,0.0,0.0,0.0,0.0,0.0,0.0,0.0,0.0,0.0,0.0,0.0,0.0,0.0,0.0,0.0,0.0,0.0,0.0,0.0,0.0,0.0,0.0,0.0,0.0,0.0,0.0,0.0,0.0,0.0,0.0,0.0,0.0,0.0,0.0,0.0,0.0,0.0,0.0,0.0,0.0,0.0,0.0,0.0,0.0,0.0,0.0,0.0,0.0,0.0,0.0,0.0,0.0,0.0,0.0,0.0,0.0,0.0,0.0,0.0,0.0,0.0,0.0,0.0,0.0,0.0,0.0,0.0,0.0,0.0,0.0,0.0,0.0,0.0,0.0,0.0,0.0,0.0,0.0,0.0,0.0,0.0,0.0,0.0,0.0,0.0,0.0,0.0,0.0,0.0,0.0,0.0,0.0,0.0,0.0,0.0,0.0,0.0,0.0,0.0,0.0,0.0,0.0,0.0,0.0,0.0,0.0,0.0,0.0,0.0,0.0,0.0,0.0,0.0,0.0,0.0,0.0,0.0,0.0,0.0,0.0,0.0,0.0,0.0,0.0,0.0,0.0,0.0,0.0,0.0,0.0,0.0,0.0,0.0,0.0,0.0,0.0,0.0,0.0,0.0,0.0,0.0,0.0,0.0,0.0,0.0,0.0,0.0,0.0,0.0,0.0,0.0,0.0,0.0,0.0,0.0,0.0,0.0,0.0,0.0,0.0,0.0,0.0,0.0,0.0,0.0,0.0,0.0,0.0,0.0,0.0,0.0,0.0,0.0,0.0,0.0,0.0,0.0,0.0,0.0,0.0,0.0,0.0,0.0,0.0,0.0,0.0,0.0,0.0,0.0,0.0,0.0,0.0,0.0,0.0,0.0,0.0,0.0,0.0,0.0,0.0,0.0,0.0,0.0,0.0,0.0,0.0,0.0,0.0,0.0,0.0,0.0,0.0,0.0,0.0,0.0,0.0,0.0,0.0,0.0,0.0,0.0,0.0,0.0,0.0,0.0,0.0,0.0,0.0,0.0,0.0,0.0,0.0,0.0,0.0,0.0,0.0,0.0,0.0,0.0,0.0,0.0,0.0,0.0,0.0,0.0,0.0,0.0,0.0,0.0,0.0,0.0,0.0,0.0,0.0,0.0,0.0,0.0,0.0,0.0,0.0,0.0,0.0,0.0,0.0,0.0,0.0,0.0,0.0,0.0,0.0,0.0,0.0,0.0,0.0,0.0,0.0,0.0,0.0,0.0,0.0,0.0,0.0,0.0,0.0,0.0,0.0,0.0,0.0,0.0,0.0,0.0,0.0,0.0,0.0,0.0,0.0,0.0,0.0,0.0,0.0,0.0,0.0,0.0,0.0,0.0,0.0,0.0,0.0,0.0,0.0,0.0,0.0,0.0,0.0,0.0,0.0,0.0,0.0,0.0,0.0,0.0,0.0,0.0,0.0,0.0,0.0,0.0,0.0,0.0,0.0,0.0,0.0,0.0,0.0,0.0,0.0,0.0,0.0,0.0,0.0,0.0,0.0,0.0,0.0,0.0,0.0,0.0,0.0,0.0,0.0,0.0,0.0,0.0,0.0,0.0,0.0,0.0,0.0,0.0,0.0,0.0,0.0,0.0,0.0,0.0,0.0,0.0,0.0,0.0,0.0,0.0,0.0,0.0,0.0,0.0,0.0,0.0,0.0,0.0,0.0,0.0,0.0,0.0,0.0,0.0,0.0,0.0,0.0,0.0,0.0,0.0,0.0,0.0,0.0,0.0,0.0,0.0,0.0,0.0,0.0,0.0,0.0,0.0,0.0,0.0,0.0,0.0,0.0,0.0,0.0,0.0,0.0,0.0,0.0,0.0,0.0,0.0,0.0,0.0,0.0,0.0,0.0,0.0,0.0,0.0,0.0,0.0,0.0,0.0,0.0,0.0,0.0,0.0,0.0,0.0,0.0,0.0,0.0,0.0,0.0,0.0,0.0,0.0,0.0,0.0,0.0,0.0,0.0,0.0,0.0,0.0,0.0,0.0,0.0,0.0,0.0,0.0,0.0,0.0,0.0,0.0,0.0,0.0,0.0,0.0,0.0,0.0,0.0,0.0,0.0,0.0,0.0,0.0,0.0,0.0,0.0,0.0,0.0,0.0,0.0,0.0,0.0,0.0,0.0,0.0,0.0,0.0,0.0,0.0,-3.8565,-3.8007,0.0,0.0,0.0,0.0,0.0,0.0,0.0,0.0,0.0,0.0,0.0,0.0,0.0,0.0,0.0,0.0,0.0,0.0,0.0,0.0,0.0,0.0,0.0,0.0,0.0,0.0,0.0,0.0,0.0,0.0,0.0,0.0,0.0,0.0,0.0,0.0,0.0,0.0,0.0,0.0,0.0,0.0,0.0,0.0,0.0,0.0,0.0,0.0,0.0,0.0,0.0,0.0,0.0,0.0,0.0,0.0,0.0,0.0,0.0,0.0,0.0,0.0,0.0,0.0,0.0,0.0,0.0,0.0,0.0,0.0,0.0,0.0,0.0,0.0,0.0,0.0,0.0,0.0,0.0,0.0,0.0,0.0,0.0,0.0,0.0,0.0,0.0,0.0,0.0,0.0,0.0,0.0,0.0,0.0,0.0,0.0,0.0,0.0,0.0,0.0,0.0,0.0,0.0,0.0,0.0,0.0,0.0,0.0,0.0,0.0,0.0,0.0,0.0,0.0,-3.9931,-3.92,0.0,0.0,0.0,0.0,0.0,0.0,0.0,0.0,0.0,0.0,0.0,0.0,0.0,0.0,0.0,0.0,0.0,0.0,0.0,0.0,0.0,0.0,0.0,0.0,0.0,0.0,0.0,0.0,0.0,0.0,0.0,0.0,0.0,0.0,0.0,0.0,0.0,0.0,0.0,0.0,0.0,0.0,0.0,0.0,0.0,0.0,0.0,0.0,0.0,0.0,0.0,0.0,0.0,0.0,0.0,0.0,0.0,0.0,0.0,0.0,0.0,0.0,0.0,0.0,0.0,0.0,0.0,0.0,0.0,0.0,0.0,0.0,0.0,0.0,0.0,0.0,0.0,0.0,0.0,0.0,0.0,0.0,0.0,0.0,0.0,0.0,0.0,0.0,0.0,0.0,0.0,0.0,0.0,0.0,0.0,0.0,0.0,0.0,0.0,0.0,0.0,0.0,0.0,0.0,0.0,0.0,0.0,0.0,-4.095,-4.1335,-4.2027,-4.2027,-4.2431,-4.3028,-4.1585,-4.095,-4.095,-4.095,0.0,0.0,0.0,0.0,0.0,0.0,0.0,0.0,0.0,0.0,0.0,0.0,0.0,0.0,0.0,0.0,0.0,0.0,0.0,0.0,0.0,0.0,0.0,0.0,0.0,0.0,0.0,0.0,0.0,0.0,0.0,0.0,0.0,0.0,0.0,0.0,0.0,0.0,0.0,0.0,0.0,0.0,0.0,0.0,0.0,0.0,0.0,0.0,0.0,0.0,0.0,0.0,0.0,0.0,0.0,0.0,0.0,0.0,0.0,0.0,0.0,0.0,0.0,0.0,0.0,0.0,0.0,0.0,0.0,0.0,0.0,0.0,0.0,0.0,0.0,0.0,0.0,0.0,0.0,0.0,0.0,0.0,0.0,0.0,0.0,0.0,-3.7661,-3.7661,0.0,0.0,0.0,0.0,0.0,0.0,0.0,0.0,0.0,0.0,0.0,0.0,0.0,-4.07,-4.147,-4.1585,-4.2008,-4.2758,-4.2758,-4.2816,-4.2931,-4.2931,-4.2989,-4.3085,-4.2854,0.0,-4.2758,-4.2758,0.0,0.0,0.0,0.0,0.0,0.0,0.0,0.0,0.0,0.0,0.0,0.0,0.0,0.0,0.0,0.0,0.0,0.0,0.0,0.0,0.0,0.0,0.0,0.0,0.0,0.0,0.0,0.0,0.0,0.0,0.0,0.0,0.0,0.0,0.0,0.0,0.0,0.0,0.0,0.0,0.0,0.0,0.0,0.0,-3.5493,-3.5493,0.0,0.0,0.0,0.0,0.0,0.0,0.0,0.0,0.0,0.0,0.0,0.0,0.0,0.0,0.0,0.0,0.0,0.0,0.0,0.0,0.0,0.0,0.0,0.0,0.0,0.0,0.0,0.0,0.0,0.0,0.0,0.0,0.0,0.0,0.0,0.0,0.0,0.0,0.0,-3.7757,-3.8007,-3.8007,-3.843,-3.8719,0.0,0.0,0.0,0.0,0.0,0.0,0.0,0.0,0.0,-4.195,-4.195,-4.2143,-4.2527,-4.2527,-4.272,-4.3104,-4.3104,-4.3371,-4.383,-4.383,-4.4113,-4.4623,-4.4623,-4.4619,-4.4538,-4.3516,-4.3111,-4.3196,0.0,0.0,0.0,0.0,-4.45,-4.4978,0.0,0.0,0.0,0.0,0.0,0.0,0.0,0.0,0.0,0.0,0.0,0.0,0.0,0.0,0.0,-3.1621,0.0,0.0,0.0,0.0,0.0,0.0,0.0,0.0,0.0,0.0,0.0,0.0,0.0,0.0,0.0,0.0,0.0,0.0,0.0,0.0,0.0,0.0,-3.5493,0.0,0.0,0.0,0.0,0.0,0.0,0.0,0.0,0.0,0.0,0.0,0.0,0.0,0.0,0.0,0.0,0.0,0.0,0.0,0.0,0.0,0.0,0.0,0.0,0.0,0.0,0.0,0.0,0.0,0.0,0.0,0.0,0.0,0.0,0.0,0.0,0.0,0.0,-3.8507,-3.8642,-3.8642,-3.92,-3.9604,0.0,0.0,0.0,0.0,0.0,0.0,-4.2085,-4.2143,-4.2431,-4.3085,-4.3104,-4.3201,-4.3412,-4.3624,-4.3835,-4.4064,-4.4295,-4.4752,-4.5398,-4.5414,-4.5789,-4.6482,-4.6496,-4.6485,-4.6338,-4.4564,-4.3854,-4.3949,-4.4587,-4.473,-4.4705,-4.5957,-4.6306,-4.6228,0.0,0.0,0.0,0.0,0.0,0.0,0.0,0.0,0.0,0.0,0.0,0.0,0.0,0.0,-3.0756,-3.1621,-3.2449,-3.3276,0.0,0.0,0.0,0.0,0.0,0.0,0.0,0.0,0.0,0.0,0.0,0.0,0.0,0.0,0.0,0.0,0.0,0.0,0.0,0.0,0.0,-3.5584,0.0,0.0,0.0,0.0,0.0,0.0,0.0,0.0,0.0,0.0,0.0,0.0,0.0,0.0,0.0,0.0,0.0,0.0,0.0,0.0,0.0,0.0,0.0,0.0,0.0,0.0,0.0,0.0,0.0,0.0,0.0,0.0,0.0,0.0,0.0,0.0,0.0,0.0,0.0,-4.0354,-4.0412,0.0,0.0,0.0,0.0,-4.1681,-4.1739,-4.2124,-4.2989,-4.3028,-4.3047,-4.3104,-4.3104,-4.347,-4.422,-4.5047,-4.589,-4.6714,-4.7542,-4.7998,-4.8118,-4.8164,-4.8227,-4.8255,-4.8335,-4.8359,-4.823,-4.6474,-4.5757,-4.5757,-4.5738,-4.5769,-4.6021,-4.7721,-4.7837,-4.7333,0.0,0.0,0.0,0.0,0.0,0.0,0.0,0.0,0.0,0.0,0.0,0.0,0.0,-3.091,-3.1564,-3.241,-3.3256,-3.4103,-3.4988,0.0,0.0,0.0,0.0,0.0,0.0,0.0,0.0,0.0,0.0,0.0,0.0,0.0,0.0,0.0,0.0,0.0,0.0,0.0,0.0,0.0,0.0,-3.7873,0.0,0.0,0.0,0.0,0.0,0.0,0.0,0.0,0.0,0.0,0.0,0.0,0.0,0.0,0.0,0.0,0.0,0.0,0.0,0.0,0.0,0.0,0.0,0.0,0.0,0.0,0.0,0.0,0.0,0.0,0.0,0.0,0.0,0.0,0.0,0.0,0.0,-4.0489,-4.0989,0.0,-4.1335,-4.1835,-4.2297,-4.2604,-4.2643,-4.3008,-4.3835,-4.4393,-4.497,-4.5528,-4.6047,-4.6471,-4.674,-4.7048,-4.7391,-4.7752,-4.8097,-4.833,-4.843,-4.8451,-4.8514,-4.858,-4.861,-4.8632,-4.8584,-4.801,-4.7738,-4.7686,-4.7678,-4.7466,-4.7301,-4.8273,-4.8681,-4.8759,0.0,0.0,0.0,0.0,0.0,0.0,0.0,0.0,0.0,0.0,0.0,-3.0398,-3.0398,-3.1179,-3.2025,-3.2833,-3.3699,-3.4564,-3.5449,0.0,0.0,0.0,0.0,0.0,0.0,0.0,0.0,0.0,0.0,0.0,0.0,0.0,0.0,0.0,0.0,0.0,0.0,0.0,0.0,0.0,0.0,-3.8777,-3.9315,0.0,0.0,0.0,0.0,0.0,0.0,0.0,0.0,0.0,0.0,0.0,0.0,0.0,0.0,0.0,0.0,0.0,0.0,0.0,0.0,0.0,0.0,0.0,0.0,0.0,0.0,0.0,0.0,0.0,0.0,0.0,0.0,0.0,0.0,0.0,-4.1046,-4.1335,-4.1893,-4.2239,-4.2239,-4.2758,-4.3201,-4.347,-4.3778,-4.4297,-4.5124,-4.597,-4.6701,-4.7298,-4.7817,-4.8105,-4.8105,-4.8412,-4.8603,-4.8673,-4.9045,-4.9292,-4.9408,-4.9423,-4.9488,-4.9575,-4.9609,-4.9605,-4.9613,-4.966,-4.9653,-4.9566,-4.9196,-4.8814,-4.8607,-4.9328,-4.9678,-4.9749,0.0,0.0,0.0,0.0,0.0,0.0,0.0,0.0,0.0,0.0,-3.0398,-3.0398,-3.0398,-3.1198,-3.2045,-3.2833,-3.3718,-3.4603,-3.5449,-3.5493,0.0,0.0,0.0,0.0,0.0,0.0,0.0,0.0,0.0,0.0,0.0,0.0,0.0,0.0,0.0,0.0,0.0,0.0,0.0,0.0,0.0,-3.9335,-3.9411,0.0,0.0,0.0,0.0,0.0,0.0,0.0,0.0,0.0,0.0,0.0,0.0,0.0,0.0,0.0,0.0,0.0,0.0,0.0,0.0,0.0,0.0,0.0,0.0,0.0,0.0,0.0,0.0,0.0,0.0,0.0,0.0,0.0,-4.197,-4.1854,-4.2162,-4.3008,-4.3124,-4.3143,-4.3181,-4.3201,-4.3547,-4.4355,-4.5201,-4.6047,-4.6894,-4.7721,-4.8144,-4.8144,-4.8163,-4.8182,-4.8182,-4.9084,-4.9579,-4.966,-5.056,-5.1095,-5.1237,-5.1307,-5.1354,-5.1386,-5.145,-5.1472,-5.1472,-5.1453,-5.1453,-5.1336,-5.0207,-4.9739,-4.9898,-5.0992,-5.0875,-5.0269,0.0,0.0,0.0,0.0,0.0,0.0,0.0,0.0,0.0,0.0,-3.0398,-3.0398,-3.0398,-3.1698,-3.266,-3.2872,-3.4276,-3.5238,-3.5474,0.0,0.0,0.0,0.0,0.0,0.0,0.0,0.0,0.0,0.0,0.0,0.0,0.0,0.0,0.0,0.0,0.0,0.0,0.0,0.0,0.0,-4.0585,-4.0162,-4.0181,0.0,0.0,0.0,0.0,0.0,0.0,0.0,0.0,0.0,0.0,0.0,0.0,0.0,0.0,0.0,0.0,0.0,0.0,0.0,0.0,0.0,0.0,0.0,0.0,0.0,0.0,0.0,0.0,0.0,0.0,0.0,0.0,-4.3028,-4.2777,-4.2739,-4.2835,-4.3066,-4.3605,-4.422,-4.4855,-4.549,-4.6201,-4.699,-4.7278,-4.7547,-4.7833,-4.8641,-4.9139,-4.9189,-4.9806,-5.0132,-5.013,-5.0397,-5.0542,-5.0632,-5.0927,-5.1466,-5.2212,-5.2228,-5.261,-5.325,-5.3284,-5.3292,-5.3253,-5.2878,-5.2702,-5.2585,-5.1394,-5.0923,-5.0975,-5.1287,-5.1248,-5.1072,0.0,0.0,0.0,0.0,0.0,0.0,0.0,0.0,0.0,0.0,-3.0398,-3.0398,-3.0398,-3.1602,-3.2526,-3.2872,-3.416,-3.5122,-3.5488,0.0,0.0,0.0,0.0,0.0,0.0,0.0,0.0,0.0,0.0,0.0,0.0,0.0,0.0,0.0,0.0,0.0,0.0,0.0,0.0,0.0,-4.1989,-4.1373,-4.0989,-4.0642,-4.0489,-4.0489,-4.0489,-4.0489,-4.0489,-4.0489,0.0,0.0,0.0,0.0,0.0,0.0,0.0,0.0,0.0,0.0,0.0,0.0,0.0,0.0,0.0,0.0,0.0,0.0,0.0,0.0,0.0,0.0,0.0,0.0,-4.3912,-4.4278,-4.4643,-4.4066,-4.3874,-4.4605,-4.5105,-4.572,-4.6567,-4.7123,-4.7642,-4.8103,-4.8487,-4.8715,-4.8786,-4.9597,-5.013,-5.0175,-5.0674,-5.113,-5.1474,-5.1518,-5.1735,-5.2117,-5.2219,-5.2592,-5.3154,-5.3163,-5.3479,-5.3993,-5.3993,-5.3876,-5.3642,-5.3329,-5.3329,-5.3447,0.0,0.0,0.0,0.0,-5.248,-5.248,0.0,0.0,0.0,0.0,0.0,0.0,0.0,0.0,0.0,0.0,0.0,-3.0398,-3.0398,-3.1179,-3.2025,-3.2833,-3.3699,-3.4564,0.0,0.0,0.0,0.0,0.0,0.0,0.0,0.0,0.0,0.0,0.0,0.0,0.0,0.0,0.0,0.0,0.0,0.0,0.0,0.0,0.0,-4.3374,-4.3278,-4.2662,-4.172,-4.0931,-4.0585,-4.0489,-4.0489,-4.0489,-4.0489,-4.0489,0.0,0.0,0.0,0.0,0.0,0.0,0.0,0.0,0.0,0.0,0.0,0.0,0.0,0.0,0.0,0.0,0.0,0.0,0.0,0.0,0.0,0.0,0.0,0.0,-4.524,-4.6047,-4.6913,-4.5738,-4.5315,-4.6855,-4.7048,-4.7373,-4.8182,-4.8332,-4.8405,-4.8502,-4.923,-4.9705,-4.9737,-5.05,0.0,0.0,0.0,-5.1593,-5.2466,-5.253,-5.2966,-5.3719,-5.3836,-5.3958,-5.4064,-5.4128,-5.4206,-5.4297,-5.4297,-5.4023,-5.3574,-5.3574,-5.3867,-5.4238,-5.3633,-5.3965,-5.4726,-5.4199,-5.4004,-5.4004,0.0,0.0,0.0,0.0,0.0,0.0,0.0,0.0,0.0,-3.0398,-3.0398,-3.0398,-3.0398,-3.1179,-3.2025,-3.2833,-3.3699,-3.4564,0.0,0.0,0.0,0.0,0.0,0.0,0.0,0.0,0.0,0.0,0.0,0.0,0.0,0.0,0.0,0.0,0.0,0.0,0.0,0.0,-4.5105,-4.5047,-4.4355,-4.3162,-4.1777,-4.1604,-4.1104,-4.0489,-4.0489,-4.0489,-4.0489,-4.0489,-4.0489,-4.0489,-4.0489,0.0,0.0,0.0,0.0,0.0,0.0,0.0,0.0,0.0,0.0,0.0,0.0,0.0,0.0,0.0,0.0,0.0,0.0,0.0,0.0,-4.6278,-4.6547,-4.695,-4.7833,-4.7658,-4.758,-4.7908,-4.7946,-4.8311,-4.9208,-4.9321,-4.9625,-5.0317,-5.0577,-5.0719,-5.0729,-5.0933,-5.1399,-5.22,-5.2216,-5.2647,-5.3583,-5.3613,-5.3692,-5.3855,-5.3892,0.0,-5.5019,-5.5045,-5.5438,-5.6094,-5.6094,-5.6035,-5.5937,-5.5937,-5.5996,-5.5996,-5.4961,-5.4414,-5.416,-5.4043,-5.4004,-5.4004,0.0,0.0,0.0,0.0,0.0,0.0,0.0,0.0,0.0,0.0,-3.0398,-3.0398,-3.0398,-3.0794,-3.1545,-3.2795,-3.4103,0.0,0.0,0.0,0.0,0.0,0.0,0.0,0.0,0.0,0.0,0.0,0.0,0.0,0.0,0.0,0.0,0.0,0.0,0.0,0.0,-4.5413,-4.5586,-4.5547,-4.5124,-4.4182,-4.297,-4.2124,-4.1527,-4.1085,-4.0662,-4.0489,-4.0489,-4.0489,-4.0489,-4.0489,-4.0489,-4.0489,-4.0489,0.0,0.0,0.0,0.0,0.0,0.0,0.0,0.0,0.0,0.0,0.0,0.0,0.0,0.0,-4.5586,0.0,0.0,-4.6394,-4.6836,-4.7277,-4.7852,-4.8733,-4.888,-4.8897,-4.89,-4.8897,-4.9258,-5.021,-5.0327,-5.0544,-5.0984,-5.1056,-5.1093,-5.1109,-5.1578,-5.2076,-5.2543,-5.3015,-5.3669,-5.4541,-5.4573,-5.4794,-5.5198,-5.5237,-5.5496,-5.5945,-5.5957,-5.6188,-5.6601,-5.6601,-5.6601,-5.6601,-5.6601,-5.6601,-5.6543,-5.5976,-5.5566,-5.5293,-5.5293,-5.5293,-5.5293,0.0,0.0,0.0,0.0,0.0,0.0,0.0,0.0,0.0,0.0,0.0,-3.0398,-3.0398,-3.0398,-3.1083,0.0,0.0,0.0,0.0,0.0,0.0,0.0,0.0,0.0,0.0,0.0,0.0,0.0,0.0,0.0,0.0,0.0,0.0,0.0,0.0,0.0,-4.5355,-4.5528,-4.5586,-4.5586,-4.5586,-4.5066,-4.4143,-4.2624,-4.195,-4.17,-4.0796,-4.0489,-4.0489,-4.0489,-4.0489,-4.0489,-4.0489,-4.0489,-4.0527,-4.07,-4.1258,0.0,0.0,0.0,0.0,0.0,0.0,0.0,0.0,0.0,-4.5643,-4.5817,-4.5836,-4.5893,-4.6047,-4.6663,-4.7182,-4.7375,-4.7987,-4.8769,-4.9669,-4.9827,-4.9872,-4.99,-4.9892,-5.0187,-5.0951,-5.1088,-5.1117,-5.1139,-5.1181,-5.1288,-5.1451,-5.22,-5.2773,-5.3101,-5.385,-5.4642,-5.5469,-5.5528,-5.5879,-5.652,-5.6579,-5.6598,-5.6598,-5.6599,-5.6601,-5.6601,-5.6601,-5.6601,-5.6601,-5.6601,-5.6601,-5.6601,-5.6601,-5.6601,-5.6601,-5.6601,-5.6601,-5.6601,0.0,0.0,0.0,0.0,0.0,0.0,0.0,0.0,0.0,0.0,0.0,0.0,0.0,0.0,0.0,0.0,0.0,0.0,0.0,0.0,0.0,0.0,0.0,0.0,0.0,0.0,0.0,0.0,0.0,0.0,0.0,0.0,0.0,0.0,0.0,-4.3605,-4.4489,-4.5259,-4.5586,-4.5586,-4.5586,-4.5066,-4.4201,-4.3297,-4.247,-4.17,-4.0796,-4.0489,-4.0489,-4.0489,-4.0489,-4.0489,-4.0489,-4.0489,-4.0642,-4.1431,0.0,-4.197,-4.2739,-4.3547,-4.4374,-4.524,-4.5451,-4.547,0.0,0.0,-4.5817,-4.6586,-4.6759,-4.6971,-4.7702,-4.7894,-4.8239,-4.9065,-4.9292,-4.9705,-5.0685,-5.0835,-5.0901,-5.1011,-5.0965,-5.0996,-5.1159,-5.1189,-5.1201,-5.1265,-5.1292,-5.1624,-5.2391,-5.2604,-5.3403,-5.4941,-5.5104,-5.557,-5.6425,-5.6445,-5.6503,-5.6581,-5.6601,-5.6601,-5.6601,-5.6601,-5.6601,-5.6601,-5.6601,-5.6601,-5.6601,-5.6601,-5.6601,-5.6601,-5.6601,-5.6601,-5.6601,-5.6601,-5.6601,-5.6601,0.0,0.0,0.0,0.0,0.0,0.0,0.0,0.0,0.0,0.0,0.0,0.0,0.0,0.0,0.0,0.0,0.0,0.0,-3.5468,0.0,0.0,0.0,0.0,0.0,0.0,0.0,0.0,0.0,0.0,0.0,0.0,0.0,0.0,0.0,-4.2181,-4.2816,-4.3624,-4.3989,-4.4143,-4.4143,-4.4143,-4.3932,-4.3508,-4.2662,-4.2124,-4.17,-4.0796,-4.0489,0.0,0.0,-4.0489,-4.0489,-4.0489,-4.0854,-4.1335,-4.1751,-4.2541,0.0,-4.4386,-4.4867,-4.5178,0.0,-4.597,-4.6355,-4.6355,-4.6721,-4.7163,-4.7528,-4.7605,-4.7702,-4.8048,-4.8547,-4.9046,0.0,-4.9975,-5.053,-5.0992,-5.1132,-5.1208,-5.1297,-5.1281,-5.1269,-5.1267,-5.1289,-5.1323,-5.1361,-5.1826,-5.2264,-5.2635,-5.365,-5.4543,-5.5274,-5.5785,-5.6228,-5.6601,-5.6601,-5.6601,-5.6601,-5.6601,-5.6601,-5.6601,-5.6601,-5.6601,-5.6601,-5.6601,-5.6601,-5.6601,-5.6601,-5.6601,-5.6601,-5.6601,-5.6601,-5.6601,-5.6601,-5.6601,-5.6601,0.0,0.0,0.0,0.0,0.0,0.0,0.0,0.0,0.0,0.0,0.0,0.0,0.0,0.0,0.0,0.0,0.0,0.0,0.0,-3.5372,-3.5493,-3.5493,0.0,0.0,0.0,0.0,0.0,0.0,0.0,0.0,0.0,0.0,0.0,-4.0777,-4.1239,-4.1797,-4.2412,-4.2893,-4.3104,-4.3104,-4.3104,-4.297,-4.2662,-4.2047,-4.1662,-4.1354,-4.0719,-4.0489,0.0,0.0,-4.0523,-4.0539,-4.0554,-4.1151,-4.1917,-4.2213,-4.3466,-4.4916,-4.5536,0.0,0.0,-4.593,-4.6432,-4.6971,-4.7182,-4.7682,-4.8163,-4.8413,-4.8471,-4.8529,-4.8779,-4.9374,-4.9833,-4.9884,-5.0515,-5.1037,-5.1113,-5.1238,-5.1345,-5.1381,-5.1391,-5.1381,-5.1336,-5.1372,-5.1496,-5.174,-5.2336,-5.2906,-5.3394,-5.4618,-5.5414,-5.5648,-5.6267,-5.6601,-5.6601,-5.6601,-5.6601,-5.6601,-5.6601,-5.6601,-5.6601,-5.6601,-5.6601,-5.6601,-5.6601,-5.6601,-5.6601,-5.6601,-5.6601,-5.6601,-5.6601,-5.6601,-5.6601,-5.6601,-5.6601,-5.6601,0.0,0.0,0.0,0.0,0.0,0.0,0.0,0.0,0.0,0.0,0.0,0.0,0.0,0.0,0.0,0.0,0.0,0.0,0.0,-3.5026,-3.5493,-3.5493,-3.5493,-3.5493,0.0,0.0,0.0,0.0,0.0,0.0,0.0,-3.7642,-3.8065,-3.818,-3.9796,-4.0546,-4.0681,-4.2374,-4.3104,-4.3104,-4.3104,-4.2585,-4.1854,-4.1816,-4.1277,-4.0527,-4.0508,0.0,0.0,0.0,-4.0607,-4.0622,-4.0673,-4.1299,0.0,-4.3021,-4.4438,0.0,0.0,0.0,-4.5905,-4.6681,-4.6894,-4.7105,-4.7894,-4.8086,-4.8336,-4.9183,-4.9356,-4.9625,-5.0471,-5.0644,-5.0718,-5.0844,-5.0942,-5.1049,-5.1171,-5.1306,-5.1408,-5.1398,-5.14,-5.1394,0.0,-5.1394,-5.174,-5.2597,-5.2695,-5.3437,-5.5137,-5.5273,-5.5683,-5.6523,-5.6582,-5.6601,-5.6601,-5.6601,-5.6601,-5.6601,-5.6601,-5.6601,-5.6601,-5.6601,-5.6601,-5.6601,-5.6601,-5.6601,-5.6601,-5.6601,-5.6601,-5.6601,-5.6601,-5.6601,-5.6601,-5.6601,-5.6601,-5.6601,0.0,0.0,0.0,0.0,0.0,0.0,0.0,0.0,0.0,0.0,0.0,0.0,0.0,0.0,0.0,0.0,0.0,0.0,0.0,-3.4468,-3.4911,-3.5468,-3.5493,-3.5493,-3.5493,-3.5493,-3.5493,0.0,0.0,-3.618,-3.6719,-3.7007,-3.745,-3.8027,-3.8584,-3.8834,-3.8873,-3.9469,-3.9719,-3.9719,-3.9719,-3.9546,-3.9335,-3.9912,-3.995,-3.9758,0.0,0.0,0.0,0.0,0.0,0.0,-4.0687,-4.1699,0.0,-4.4543,-4.5388,-4.5838,-4.5735,0.0,-4.6615,-4.6835,-4.774,-4.8625,-4.8894,-4.9413,-4.9913,-5.0202,-5.026,-5.0356,-5.0644,-5.0739,-5.0808,-5.0937,-5.1063,-5.1169,-5.1249,-5.1336,-5.1396,-5.1411,-5.1406,0.0,0.0,0.0,0.0,-5.2637,-5.3242,-5.4062,-5.5234,-5.5859,-5.6308,-5.6582,-5.6601,-5.6601,-5.6601,-5.6601,-5.6601,-5.6601,-5.6601,-5.6601,-5.6601,-5.6601,-5.6601,-5.6601,-5.6601,-5.6601,-5.6601,-5.6601,-5.6601,-5.6601,-5.6601,-5.6601,-5.6601,-5.6601,-5.6601,-5.6601,0.0,0.0,0.0,0.0,0.0,0.0,0.0,0.0,0.0,0.0,0.0,0.0,0.0,0.0,0.0,0.0,0.0,0.0,0.0,0.0,-3.4449,-3.5007,-3.5334,-3.5493,-3.5493,-3.5493,-3.5493,-3.5493,-3.5493,-3.5776,-3.6276,-3.6276,-3.6584,-3.7123,-3.7411,-3.7546,-3.7565,-3.7873,-3.8007,-3.8007,-3.8007,-3.8007,-3.8065,-3.8623,-3.9027,0.0,0.0,0.0,0.0,0.0,0.0,0.0,0.0,-4.1938,-4.3666,-4.5338,-4.5841,-4.591,-4.6117,-4.6552,-4.7097,-4.7643,-4.8606,-4.9471,-4.9779,-5.0298,-5.0702,-5.0683,-5.0702,-5.0721,-5.0757,-5.081,-5.0874,-5.1023,-5.1136,-5.122,-5.1292,-5.1352,-5.1408,-5.1391,-5.1394,-5.1398,0.0,0.0,0.0,-5.3105,-5.3965,-5.4844,-5.5723,-5.6308,-5.6601,-5.6601,-5.6601,-5.6601,-5.6601,-5.6601,-5.6601,-5.6601,-5.6601,-5.6601,-5.6601,-5.6601,-5.6601,-5.6601,-5.6601,-5.6601,-5.6601,-5.6601,-5.6601,-5.6601,-5.6601,-5.6601,-5.6601,-5.6601,-5.6601,-5.6601,0.0,0.0,0.0,0.0,0.0,0.0,0.0,0.0,0.0,0.0,0.0,0.0,0.0,0.0,0.0,0.0,0.0,0.0,0.0,0.0,0.0,-3.4199,-3.4988,-3.5449,-3.5493,-3.5493,-3.5493,-3.5493,-3.5493,-3.5493,-3.5493,-3.5493,-3.5493,-3.5532,-3.6315,-3.6642,-3.6699,-3.7526,-3.7873,-3.7873,-3.7873,-3.7873,-3.7873,-3.7911,0.0,0.0,0.0,0.0,0.0,0.0,0.0,0.0,0.0,-4.2059,-4.3718,-4.5401,-4.5874,-4.6037,-4.6796,-4.7,-4.7409,-4.9009,-4.9433,-4.9683,-5.051,-5.0683,-5.0645,-5.0643,-5.0605,-5.0622,0.0,0.0,-5.0894,-5.1017,-5.1132,-5.1226,-5.13,-5.1367,-5.1402,0.0,0.0,0.0,0.0,0.0,0.0,-5.3945,-5.4805,-5.5683,-5.6543,-5.6601,-5.6601,-5.6601,-5.6601,-5.6601,-5.6601,-5.6601,-5.6601,-5.6601,-5.6601,-5.6601,-5.6601,-5.6601,-5.6601,-5.6601,-5.6601,-5.6601,-5.6601,-5.6601,-5.6601,-5.6601,-5.6601,-5.6601,-5.6601,-5.6601,-5.6601,-5.6601,0.0,0.0,0.0,0.0,0.0,0.0,0.0,0.0,0.0,0.0,0.0,0.0,0.0,0.0,0.0,0.0,0.0,0.0,0.0,0.0,0.0,0.0,0.0,0.0,0.0,0.0,0.0,0.0,0.0,-3.5493,-3.5493,-3.5493,-3.5493,0.0,-3.5718,-3.5815,-3.5834,-3.6045,-3.6142,-3.6142,0.0,-3.6142,-3.6199,0.0,0.0,0.0,0.0,0.0,0.0,0.0,0.0,0.0,0.0,-4.2969,-4.3641,-4.5336,-4.6235,-4.6731,-4.6882,-4.785,-4.893,-4.9317,-4.9894,-5.0433,-5.0663,-5.024,-4.9815,-4.9867,-4.9357,-4.8941,0.0,0.0,0.0,-5.0267,-5.0844,0.0,-5.1382,-5.1394,0.0,-5.1406,0.0,-5.1406,-5.1406,-5.2773,0.0,0.0,-5.4805,-5.5683,-5.6543,-5.6601,-5.6601,-5.6601,-5.6601,-5.6601,-5.6601,-5.6601,-5.6601,-5.6601,-5.6601,-5.6601,-5.6601,-5.6601,-5.6601,-5.6601,-5.6601,-5.6601,-5.6601,-5.6601,-5.6601,-5.6601,-5.6601,-5.6601,-5.6601,-5.6601,-5.6601,-5.6601,0.0,0.0,0.0,0.0,0.0,0.0,0.0,0.0,0.0,0.0,0.0,0.0,0.0,0.0,0.0,0.0,0.0,0.0,0.0,0.0,0.0,0.0,0.0,0.0,0.0,0.0,0.0,0.0,0.0,0.0,0.0,-3.5493,-3.5493,-3.5493,-3.5493,-3.5493,-3.5493,0.0,0.0,0.0,0.0,0.0,0.0,0.0,0.0,0.0,0.0,0.0,0.0,0.0,0.0,-4.101,-4.2738,-4.3285,-4.3587,-4.5312,0.0,-4.7034,-4.7369,-4.8449,-4.9547,-4.9894,-5.0337,-5.0606,-5.024,-4.9815,-4.9427,-4.9122,-4.8667,0.0,-4.8507,0.0,0.0,0.0,0.0,0.0,-5.133,-5.1406,-5.1396,0.0,-5.1406,0.0,-5.1406,-5.2988,-5.4004,0.0,-5.5156,-5.6074,-5.6562,-5.6601,-5.6601,-5.6601,-5.6601,-5.6601,-5.6601,-5.6601,-5.6601,-5.6601,-5.6601,-5.6601,-5.6601,-5.6601,-5.6601,-5.6601,-5.6601,-5.6601,-5.6601,-5.6601,-5.6601,-5.6601,-5.6601,-5.6601,-5.6601,-5.6601,-5.6601,-5.6601,0.0,0.0,0.0,0.0,0.0,0.0,0.0,0.0,0.0,0.0,0.0,0.0,0.0,0.0,0.0,0.0,0.0,0.0,0.0,0.0,0.0,0.0,0.0,0.0,0.0,0.0,0.0,0.0,0.0,0.0,0.0,0.0,0.0,0.0,0.0,0.0,0.0,0.0,0.0,0.0,0.0,0.0,0.0,0.0,0.0,0.0,0.0,0.0,0.0,0.0,-3.9965,-4.0996,-4.2737,-4.3231,-4.353,-4.5263,-4.6378,-4.7216,-4.7987,-4.8873,-4.974,-5.051,-5.0606,-5.0356,-4.9661,-4.9333,-4.9001,-4.8357,0.0,-4.8115,-4.8243,-4.8379,-4.873,-4.9547,0.0,-5.0353,-5.1128,-5.1333,-5.1408,-5.1406,-5.1406,-5.1406,-5.1406,-5.2988,-5.4004,-5.4004,-5.5605,-5.6601,-5.6601,-5.6601,-5.6601,-5.6601,-5.6601,-5.6601,-5.6601,-5.6601,-5.6601,-5.6601,-5.6601,-5.6601,-5.6601,-5.6601,-5.6601,-5.6601,-5.6601,-5.6601,-5.6601,-5.6601,-5.6601,-5.6601,-5.6601,-5.6601,-5.6601,-5.6601,-5.6601,-5.6601,0.0,0.0,0.0,0.0,0.0,0.0,0.0,0.0,0.0,0.0,-2.8446,-2.9351,0.0,0.0,0.0,0.0,0.0,0.0,0.0,0.0,0.0,0.0,0.0,0.0,0.0,0.0,0.0,0.0,0.0,0.0,0.0,0.0,0.0,0.0,0.0,0.0,0.0,0.0,0.0,0.0,0.0,0.0,0.0,0.0,0.0,0.0,0.0,0.0,0.0,0.0,-3.9899,-4.0911,-4.2603,-4.3131,-4.3445,-4.5139,-4.67,-4.7913,-4.8067,-4.926,-5.051,-5.0644,-5.0164,-4.9586,-4.9523,-4.8441,0.0,0.0,-4.6887,-4.6441,-4.653,-4.7175,0.0,-4.7908,0.0,0.0,0.0,0.0,-5.1396,0.0,0.0,0.0,0.0,0.0,0.0,0.0,-5.5605,-5.6601,-5.6601,-5.6601,-5.6601,-5.6601,-5.6601,-5.6601,-5.6601,-5.6601,-5.6601,-5.6601,-5.6601,-5.6601,-5.6601,-5.6601,-5.6601,-5.6601,-5.6601,-5.6601,-5.6601,-5.6601,-5.6601,-5.6601,-5.6601,-5.6601,-5.6601,-5.6601,-5.6601,-5.6601,0.0,0.0,0.0,0.0,0.0,0.0,0.0,-2.4875,-2.5264,-2.619,-2.685,-2.7815,-2.9303,-2.9904,0.0,0.0,0.0,0.0,0.0,0.0,0.0,0.0,0.0,0.0,0.0,0.0,0.0,0.0,0.0,0.0,0.0,0.0,0.0,0.0,0.0,0.0,0.0,0.0,0.0,0.0,0.0,0.0,0.0,0.0,0.0,0.0,0.0,0.0,0.0,0.0,-3.883,-4.0211,-4.1886,-4.2736,-4.3335,-4.4547,-4.6144,-4.749,-4.749,-4.8394,-4.9356,-4.9356,-4.9029,-4.8624,-4.8253,0.0,0.0,0.0,-4.6177,-4.596,-4.6037,0.0,0.0,0.0,0.0,0.0,0.0,0.0,0.0,0.0,0.0,0.0,0.0,0.0,-5.4004,-5.4004,-5.5605,-5.6601,-5.6601,-5.6601,-5.6601,-5.6601,-5.6601,-5.6601,-5.6601,-5.6601,-5.6601,-5.6601,-5.6601,-5.6601,-5.6601,-5.6601,-5.6601,-5.6601,-5.6601,-5.6601,-5.6601,-5.6601,-5.6601,-5.6601,-5.6601,-5.6601,-5.6601,-5.6601,-5.6601,-5.6601,0.0,0.0,0.0,0.0,0.0,0.0,0.0,-2.421,-2.4469,-2.519,-2.556,-2.635,-2.7979,-2.9144,-2.987,0.0,0.0,0.0,0.0,0.0,0.0,0.0,0.0,0.0,0.0,0.0,0.0,-3.2641,0.0,0.0,0.0,0.0,0.0,0.0,0.0,0.0,0.0,0.0,0.0,0.0,0.0,0.0,0.0,0.0,0.0,0.0,0.0,0.0,0.0,0.0,-3.7603,-3.9046,-4.0739,-4.1989,-4.3028,-4.4008,-4.5393,-4.6663,-4.6855,-4.749,-4.8105,-4.8105,-4.7971,-4.7663,-4.7043,-4.6771,0.0,0.0,-4.5838,-4.5906,-4.5964,0.0,0.0,0.0,0.0,0.0,0.0,0.0,0.0,0.0,0.0,0.0,0.0,-5.2812,0.0,-5.3984,-5.5605,-5.6601,-5.6601,-5.6601,-5.6601,-5.6601,-5.6601,-5.6601,-5.6601,-5.6601,-5.6601,-5.6601,-5.6601,-5.6601,-5.6601,-5.6601,-5.6601,-5.6601,-5.6601,-5.6601,-5.6601,-5.6601,-5.6601,-5.6601,-5.6601,-5.6601,-5.6601,-5.6601,-5.6601,-5.6601,0.0,0.0,0.0,0.0,0.0,0.0,0.0,-2.419,-2.4227,-2.4321,-2.5023,-2.5671,-2.6037,-2.7781,-2.8941,0.0,0.0,0.0,0.0,0.0,0.0,0.0,0.0,0.0,0.0,0.0,0.0,-3.1814,-3.2622,0.0,0.0,0.0,0.0,0.0,0.0,-3.5493,0.0,0.0,0.0,0.0,0.0,0.0,0.0,0.0,0.0,0.0,0.0,0.0,0.0,0.0,0.0,-3.7238,-3.8969,-4.0623,-4.2239,-4.3835,0.0,0.0,-4.6682,-4.749,-4.8105,-4.8105,-4.7548,-4.699,-4.6928,0.0,0.0,-4.5804,-4.5795,-4.5838,-4.5905,-4.5914,0.0,0.0,0.0,0.0,0.0,0.0,0.0,0.0,0.0,0.0,0.0,-5.2264,-5.3144,-5.3945,-5.5605,-5.6601,-5.6601,-5.6601,-5.6601,-5.6601,-5.6601,-5.6601,-5.6601,-5.6601,-5.6601,-5.6601,-5.6601,-5.6601,-5.6601,-5.6601,-5.6601,-5.6601,-5.6601,-5.6601,-5.6601,-5.6601,-5.6601,-5.6601,-5.6601,-5.6601,-5.6601,-5.6601,-5.6601,-5.6601,0.0,0.0,0.0,0.0,0.0,0.0,-2.419,-2.419,-2.419,-2.419,-2.4505,-2.4764,-2.4947,-2.6195,-2.7547,0.0,0.0,0.0,0.0,0.0,0.0,0.0,0.0,0.0,0.0,0.0,-3.0929,-3.0929,-3.1756,0.0,0.0,0.0,0.0,0.0,0.0,-3.4237,-3.4718,0.0,0.0,0.0,0.0,0.0,0.0,0.0,0.0,0.0,0.0,0.0,0.0,0.0,0.0,0.0,-3.8123,-3.9335,0.0,0.0,-4.3412,-4.4162,-4.4528,-4.4855,-4.5086,-4.5086,-4.4855,-4.4739,-4.5218,0.0,0.0,-4.5574,-4.5706,-4.5754,-4.5771,-4.5814,-4.5854,0.0,0.0,0.0,0.0,0.0,0.0,0.0,0.0,0.0,0.0,0.0,-5.3275,-5.4687,-5.5918,-5.6601,-5.6601,-5.6601,-5.6601,-5.6601,-5.6601,-5.6601,-5.6601,-5.6601,-5.6601,-5.6601,-5.6601,-5.6601,-5.6601,-5.6601,-5.6601,-5.6601,-5.6601,-5.6601,-5.6601,-5.6601,-5.6601,-5.6601,-5.6601,-5.6601,-5.6601,-5.6601,-5.6601,-5.6601,0.0,0.0,0.0,0.0,0.0,-2.419,-2.419,-2.419,-2.419,-2.419,-2.4209,-2.4229,-2.4339,-2.5018,-2.6134,-2.7809,0.0,0.0,0.0,0.0,0.0,0.0,0.0,0.0,0.0,0.0,-3.0398,-3.0398,-3.1006,-3.1314,0.0,0.0,-3.2545,-3.2564,0.0,0.0,0.0,0.0,0.0,0.0,0.0,0.0,0.0,0.0,0.0,0.0,0.0,0.0,0.0,0.0,0.0,0.0,0.0,0.0,0.0,0.0,-4.2239,-4.2777,-4.3028,-4.3104,-4.3104,-4.3104,-4.3104,-4.3258,0.0,0.0,0.0,-4.5086,-4.5466,-4.5673,-4.5703,-4.5735,-4.5765,0.0,0.0,0.0,0.0,0.0,0.0,0.0,0.0,0.0,0.0,-5.2108,-5.3288,-5.4804,-5.5723,-5.6328,-5.6582,-5.6601,-5.6601,-5.6601,-5.6601,-5.6601,-5.6601,-5.6601,-5.6601,-5.6601,-5.6601,-5.6601,-5.6601,-5.6601,-5.6601,-5.6601,-5.6601,-5.6601,-5.6601,-5.6601,-5.6601,-5.6601,-5.6601,-5.6601,-5.6601,-5.6601,-5.6601,-5.6601,0.0,0.0,0.0,0.0,0.0,0.0,-2.419,-2.419,-2.419,-2.419,-2.419,-2.419,-2.4192,-2.432,-2.4811,-2.5841,0.0,0.0,0.0,0.0,0.0,0.0,0.0,0.0,0.0,0.0,-3.0398,-3.0398,-3.0398,-3.0398,-3.0417,-3.1295,-3.1718,-3.1756,0.0,0.0,0.0,0.0,0.0,0.0,0.0,0.0,0.0,0.0,0.0,0.0,0.0,0.0,0.0,0.0,0.0,0.0,0.0,0.0,0.0,0.0,-4.1816,-4.2008,-4.2874,-4.3104,-4.3104,-4.3104,-4.3104,-4.3104,0.0,0.0,0.0,-4.4316,-4.4989,-4.5622,-4.5693,-4.5709,-4.569,-4.57,-4.5687,0.0,0.0,0.0,0.0,0.0,0.0,0.0,-5.1092,-5.2005,-5.298,-5.3945,-5.4824,-5.5683,-5.6543,-5.6601,-5.6601,-5.6601,-5.6601,-5.6601,-5.6601,-5.6601,-5.6601,-5.6601,-5.6601,-5.6601,-5.6601,-5.6601,-5.6601,-5.6601,-5.6601,-5.6601,-5.6601,-5.6601,-5.6601,-5.6601,-5.6601,-5.6601,-5.6601,-5.6601,-5.6601,-5.6601,0.0,0.0,0.0,0.0,0.0,0.0,0.0,-2.419,-2.419,-2.419,-2.419,-2.4209,-2.4192,-2.4284,-2.452,-2.497,0.0,0.0,0.0,0.0,0.0,0.0,0.0,0.0,0.0,0.0,-3.0398,-3.0398,-3.0398,-3.0398,-3.0398,-3.0679,-3.0814,-3.0833,-3.1083,-3.1525,0.0,0.0,0.0,0.0,0.0,0.0,0.0,0.0,0.0,0.0,0.0,0.0,0.0,0.0,0.0,0.0,0.0,0.0,0.0,0.0,0.0,0.0,-4.1239,-4.1316,-4.1316,-4.1316,-4.1316,-4.147,-4.2085,0.0,0.0,-4.3355,-4.4143,-4.472,-4.4737,-4.5235,-4.564,-4.5637,-4.562,0.0,0.0,0.0,0.0,0.0,0.0,0.0,0.0,0.0,-5.2733,-5.309,-5.447,-5.543,-5.5703,-5.6289,-5.6601,-5.6601,-5.6601,-5.6601,-5.6601,-5.6601,-5.6601,-5.6601,-5.6601,-5.6601,-5.6601,-5.6601,-5.6601,-5.6601,-5.6601,-5.6601,-5.6601,-5.6601,-5.6601,-5.6601,-5.6601,-5.6601,-5.6601,-5.6601,-5.6601,-5.6601,0.0,0.0,0.0,0.0,0.0,0.0,0.0,-2.419,-2.419,-2.419,-2.419,-2.4228,-2.4266,-2.4339,-2.4446,-2.4596,0.0,0.0,0.0,0.0,0.0,0.0,0.0,0.0,0.0,-3.0398,-3.0398,-3.0398,-3.0398,-3.0398,-3.0398,-3.0398,-3.0398,-3.0398,-3.0398,-3.0698,0.0,0.0,0.0,0.0,0.0,0.0,-3.5493,0.0,0.0,0.0,0.0,0.0,0.0,0.0,0.0,0.0,0.0,0.0,0.0,0.0,-3.9392,0.0,0.0,-4.0489,-4.0489,-4.0489,-4.0489,0.0,0.0,0.0,0.0,0.0,-4.3278,-4.3932,-4.4239,-4.4739,-4.522,-4.5547,-4.5586,0.0,0.0,0.0,0.0,0.0,0.0,0.0,0.0,-5.1693,-5.2213,-5.2624,-5.3664,-5.4432,-5.4785,-5.5644,-5.6113,-5.6113,-5.6426,-5.6601,-5.6601,-5.6601,-5.6601,-5.6601,-5.6601,-5.6601,-5.6601,-5.6601,-5.6601,-5.6601,-5.6601,-5.6601,0.0,-5.6601,-5.6601,-5.6601,-5.6601,-5.6601,-5.6601,-5.6601,-5.6601,-5.6601,0.0,0.0,0.0,0.0,0.0,0.0,0.0,-2.4209,-2.4209,-2.421,-2.421,-2.4266,-2.4375,-2.4465,-2.4532,-2.4607,0.0,0.0,0.0,0.0,0.0,0.0,0.0,0.0,0.0,-3.0398,-3.0398,-3.0398,-3.0398,-3.0398,-3.0398,-3.0398,-3.0398,-3.0398,-3.0398,-3.0398,-3.0436,-3.1256,-3.2064,-3.2891,-3.3757,-3.4622,0.0,0.0,0.0,0.0,0.0,0.0,0.0,0.0,0.0,0.0,0.0,0.0,0.0,0.0,0.0,0.0,0.0,0.0,0.0,0.0,0.0,0.0,0.0,0.0,0.0,0.0,0.0,0.0,0.0,-4.422,-4.4566,-4.5374,0.0,0.0,0.0,0.0,0.0,0.0,0.0,0.0,-5.0976,-5.1056,-5.1483,-5.2435,-5.2553,-5.298,-5.3867,-5.4726,-5.5215,-5.5215,-5.5996,-5.6465,-5.6601,-5.6601,-5.6601,-5.6601,-5.6601,-5.6601,-5.6601,-5.6601,-5.6601,-5.6601,-5.6601,-5.6601,-5.6601,-5.6601,-5.6601,-5.6601,-5.6601,-5.6601,-5.6601,-5.6601,-5.6601,-5.6601,0.0,0.0,0.0,0.0,0.0,0.0,0.0,0.0,0.0,0.0,-2.4358,-2.4393,-2.4479,-2.4497,-2.4564,0.0,0.0,0.0,0.0,0.0,0.0,0.0,0.0,0.0,0.0,-3.0398,-3.0398,-3.0398,-3.0398,-3.0398,-3.0398,-3.0398,-3.0398,-3.0398,-3.0398,-3.0398,-3.0398,-3.0609,-3.1198,-3.2045,-3.2872,-3.3737,0.0,0.0,0.0,0.0,-3.5493,-3.5493,0.0,0.0,0.0,0.0,0.0,0.0,0.0,0.0,-3.7623,-3.8488,-3.9354,0.0,-4.0489,-4.0489,-4.0489,0.0,0.0,0.0,0.0,0.0,0.0,0.0,0.0,0.0,0.0,0.0,0.0,0.0,0.0,0.0,0.0,0.0,-4.9833,-5.0791,-5.0986,-5.1023,-5.1171,-5.1511,-5.2188,-5.2718,-5.299,-5.3826,-5.4316,-5.4316,-5.4492,-5.5254,-5.6582,-5.6601,-5.6601,-5.6601,-5.6601,-5.6601,-5.6601,-5.6601,-5.6601,-5.6601,-5.6601,-5.6601,-5.6601,-5.6601,-5.6601,-5.6601,-5.6601,-5.6601,-5.6601,-5.6601,-5.6601,-5.6601,0.0,0.0,0.0,0.0,0.0,0.0,0.0,0.0,0.0,0.0,0.0,0.0,0.0,0.0,0.0,0.0,0.0,0.0,0.0,0.0,0.0,0.0,0.0,0.0,-2.9794,-2.9794,-3.0006,-3.0398,-3.0398,-3.0398,-3.0398,-3.0398,-3.0398,-3.0398,-3.0398,-3.0398,-3.0398,-3.0398,-3.091,-3.1775,-3.2583,0.0,0.0,0.0,0.0,0.0,-3.5493,-3.5493,0.0,-3.5493,-3.5493,-3.5493,0.0,0.0,0.0,0.0,-3.7026,-3.768,-3.895,-3.9892,-4.0489,-4.0489,-4.0489,-4.0489,0.0,0.0,0.0,0.0,0.0,0.0,0.0,0.0,0.0,0.0,0.0,0.0,0.0,0.0,0.0,0.0,-4.9894,-5.0739,0.0,-5.089,-5.0961,-5.1101,-5.1609,-5.1947,-5.2045,-5.2914,-5.3395,-5.3398,-5.3789,-5.4453,-5.539,-5.6191,-5.6601,-5.6601,-5.6601,-5.6601,-5.6601,-5.6601,-5.6601,-5.6601,-5.6601,-5.6601,-5.6601,-5.6601,-5.6601,-5.6601,-5.6601,-5.6601,-5.6601,-5.6601,-5.6601,-5.6601,0.0,0.0,0.0,0.0,0.0,0.0,0.0,0.0,0.0,0.0,0.0,0.0,0.0,0.0,0.0,0.0,0.0,0.0,0.0,0.0,0.0,0.0,0.0,-2.8082,-2.889,-2.9044,-2.9467,-3.0198,-3.0321,-3.0398,-3.0398,-3.0398,-3.0398,-3.0398,-3.0398,-3.0398,-3.0398,-3.0398,-3.0833,-3.1583,-3.2526,0.0,0.0,0.0,0.0,0.0,0.0,0.0,0.0,-3.5493,-3.5493,-3.5493,-3.5493,0.0,0.0,0.0,0.0,0.0,-3.8661,-3.97,-4.0335,-4.0469,-4.0489,-4.0489,0.0,0.0,0.0,0.0,0.0,0.0,0.0,0.0,0.0,0.0,0.0,0.0,0.0,0.0,0.0,0.0,-5.0164,0.0,-5.0701,-5.0738,-5.0841,-5.0976,-5.1043,-5.1132,-5.1271,-5.2045,-5.2482,-5.2499,-5.3223,-5.3594,-5.3594,-5.5332,-5.6348,-5.6582,-5.6055,-5.5957,-5.6191,-5.6191,-5.6191,-5.6191,-5.6191,-5.6289,-5.6406,-5.6406,-5.6484,-5.6601,-5.6601,-5.6601,-5.6601,-5.6601,-5.6601,-5.6601,0.0,0.0,0.0,0.0,0.0,0.0,0.0,0.0,0.0,0.0,0.0,0.0,0.0,0.0,0.0,0.0,0.0,0.0,0.0,0.0,0.0,0.0,-2.6332,-2.7198,-2.8063,-2.8736,-2.9159,-2.9294,-3.0044,-3.0398,-3.0398,-3.0398,-3.0398,-3.0398,-3.0398,-3.0398,-3.0398,-3.0398,-3.0475,-3.0737,-3.2275,0.0,0.0,0.0,0.0,0.0,0.0,0.0,0.0,-3.5493,-3.5493,-3.5493,-3.5493,0.0,0.0,0.0,0.0,0.0,-3.793,-3.8834,-3.9642,-4.0315,-4.0489,-4.0489,0.0,0.0,0.0,0.0,0.0,0.0,0.0,0.0,0.0,0.0,0.0,0.0,0.0,0.0,-4.8413,-4.9298,0.0,-5.0702,-5.0701,-5.0701,-5.0773,-5.0906,-5.0976,-5.1074,-5.1206,-5.1414,-5.1542,-5.1595,-5.1738,-5.1797,-5.1797,-5.3535,-5.5137,-5.6562,-5.3613,-5.2969,-5.4394,-5.4394,-5.4394,-5.4394,-5.4394,-5.4824,-5.5508,-5.5508,-5.5937,-5.6601,-5.6601,-5.6601,-5.6601,-5.6601,-5.6601,-5.6601,0.0,0.0,0.0,0.0,0.0,0.0,0.0,0.0,0.0,0.0,0.0,0.0,0.0,0.0,0.0,0.0,0.0,0.0,0.0,0.0,0.0,-2.5303,-2.5668,-2.6313,-2.7178,-2.7563,-2.8179,-2.9102,-2.9506,-2.9948,-3.0398,-3.0398,-3.0398,-3.0398,-3.0398,-3.0398,-3.0398,-3.0398,-3.0398,-3.0552,0.0,0.0,0.0,0.0,0.0,0.0,0.0,0.0,0.0,0.0,-3.5493,-3.5493,-3.5493,0.0,0.0,0.0,0.0,0.0,-3.7642,-3.8296,-3.8892,-4.0181,-4.0489,-4.0489,0.0,0.0,0.0,0.0,0.0,0.0,0.0,0.0,0.0,0.0,0.0,-4.6047,-4.7355,-4.7875,-4.8606,0.0,0.0,-5.0702,-5.0702,-5.0702,-5.0775,-5.0877,-5.0966,-5.1062,-5.1189,-5.1269,-5.1327,-5.1398,-5.1405,-5.1406,-5.1406,-5.2187,-5.3008,-5.3769,-5.2168,-5.1816,-5.2637,-5.3574,-5.4004,-5.4004,-5.4004,-5.4238,-5.4609,-5.4609,-5.4824,-5.5195,-5.5195,-5.5488,-5.5957,-5.6426,-5.6601,-5.6601,0.0,0.0,0.0,0.0,0.0,0.0,0.0,0.0,0.0,0.0,0.0,0.0,0.0,0.0,0.0,0.0,0.0,0.0,0.0,0.0,-2.5303,-2.5303,-2.5303,-2.561,-2.6274,-2.6505,-2.7332,-2.8813,-2.9006,-2.9544,-3.0398,-3.0398,-3.0398,-3.0398,-3.0398,-3.0398,-3.0398,-3.0398,-3.0398,-3.0552,0.0,0.0,0.0,0.0,0.0,0.0,0.0,0.0,0.0,0.0,0.0,0.0,0.0,0.0,0.0,-3.5493,-3.5493,-3.5834,-3.7296,-3.7834,-3.8354,-3.9854,0.0,0.0,-4.0489,0.0,0.0,0.0,0.0,0.0,0.0,0.0,0.0,0.0,-4.5586,-4.6182,-4.7855,-4.8105,-4.8759,-5.0491,-5.0702,-5.0702,-5.0702,-5.0683,-5.0757,-5.088,-5.0947,-5.1062,-5.1219,-5.1284,-5.1349,-5.1394,-5.1405,-5.1406,-5.1406,-5.1406,-5.1406,-5.1406,-5.1406,-5.1406,-5.1445,-5.2773,-5.3398,-5.3398,-5.3398,-5.3516,-5.3691,-5.3691,-5.3828,-5.4004,-5.4004,-5.4414,-5.5078,-5.5742,-5.5996,-5.5996,0.0,0.0,0.0,0.0,0.0,0.0,0.0,0.0,0.0,0.0,0.0,0.0,0.0,0.0,0.0,0.0,0.0,0.0,0.0,0.0,-2.5303,-2.5303,-2.5303,-2.5322,-2.538,-2.6197,-2.7063,-2.7986,-2.8717,-2.9544,-3.0398,-3.0398,-3.0398,-3.0398,-3.0398,-3.0398,-3.0398,-3.0398,-3.0398,-3.0552,-3.2237,0.0,0.0,0.0,0.0,0.0,0.0,0.0,0.0,0.0,0.0,0.0,0.0,0.0,-3.5493,-3.5493,-3.5493,-3.5699,-3.6565,-3.7392,-3.8219,-3.9142,0.0,0.0,-4.0489,0.0,0.0,0.0,0.0,0.0,0.0,0.0,0.0,0.0,-4.5586,-4.6182,-4.7855,0.0,-4.8759,-5.0491,-5.0702,-5.0702,-5.0702,-5.0683,-5.0756,-5.089,-5.0951,-5.1086,-5.1288,-5.1362,-5.1395,-5.1394,-5.1403,-5.1406,-5.1406,-5.1406,-5.1406,-5.1406,-5.1406,-5.1406,-5.1406,-5.1523,-5.1582,-5.1582,-5.1582,-5.2051,-5.2793,-5.2793,-5.3262,-5.4004,-5.4004,-5.4043,-5.4101,-5.416,-5.4199,-5.4199,0.0,0.0,0.0,0.0,0.0,0.0,0.0,0.0,0.0,0.0,0.0,0.0,0.0,0.0,0.0,0.0,0.0,0.0,0.0,0.0,-2.5303,-2.5303,-2.5303,-2.5303,-2.5303,-2.561,-2.6217,-2.7082,-2.8429,-2.9544,-3.0398,-3.0398,-3.0398,-3.0398,-3.0398,-3.0398,-3.0398,-3.0398,-3.0398,-3.0552,-3.2237,-3.2891,0.0,0.0,0.0,0.0,0.0,0.0,0.0,0.0,-3.5493,-3.5493,0.0,-3.5493,-3.5493,-3.5493,-3.5493,-3.568,-3.6488,-3.7334,-3.82,-3.9084,0.0,0.0,0.0,0.0,0.0,0.0,0.0,0.0,0.0,0.0,0.0,-4.5451,-4.5586,-4.6182,-4.7855,-4.8105,-4.8759,-5.0491,-5.0702,-5.0702,-5.0702,-5.081,-5.0921,-5.097,-5.1101,-5.1229,-5.1367,-5.1378,-5.1395,-5.1394,-5.1402,-5.1406,-5.1406,-5.1406,-5.1406,-5.1406,-5.1406,-5.1406,-5.1406,-5.1406,-5.1406,-5.1406,-5.1406,-5.1582,-5.1894,-5.1894,-5.209,-5.2441,-5.2988,-5.3183,-5.3262,-5.3808,-5.4004,-5.4004,0.0,0.0,0.0,0.0,0.0,0.0,0.0,0.0,0.0,0.0,0.0,0.0,0.0,0.0,0.0,0.0,0.0,0.0,-2.5303,-2.5303,-2.5303,-2.5303,-2.5303,-2.5303,-2.5303,-2.5303,-2.5726,-2.6601,-2.8283,-2.954,-3.0374,-3.0367,-3.0367,-3.0367,-3.0398,-3.0398,-3.0398,-3.0398,-3.0552,-3.0929,-3.2333,-3.3064,0.0,0.0,0.0,0.0,0.0,0.0,0.0,0.0,-3.5493,0.0,0.0,0.0,0.0,-3.5493,-3.5493,-3.5622,-3.618,-3.7142,0.0,0.0,0.0,0.0,0.0,0.0,0.0,0.0,0.0,0.0,0.0,0.0,0.0,0.0,-4.5586,-4.6086,-4.7528,-4.7952,-4.8644,-5.0125,-5.0566,-5.0738,-5.0756,-5.0921,-5.1017,-5.1054,-5.12,-5.1334,-5.1394,-5.1401,-5.1405,-5.1391,-5.1404,-5.1406,-5.1406,-5.1406,-5.1406,-5.1406,-5.1406,-5.1406,-5.1406,-5.1406,-5.1406,-5.1406,-5.1406,-5.1406,-5.1406,-5.1406,-5.1406,-5.1465,-5.2051,-5.2285,-5.2363,-5.2969,-5.3183,-5.3183,0.0,0.0,0.0,0.0,0.0,0.0,0.0,0.0,0.0,0.0,0.0,0.0,0.0,0.0,0.0,0.0,0.0,0.0,-2.5303,-2.5303,-2.5303,-2.5303,-2.5303,-2.5303,-2.5303,-2.5302,-2.5725,-2.6621,-2.8261,-2.9493,-3.0292,-3.0311,-3.0304,-3.0304,-3.0367,-3.0398,-3.0398,-3.0398,-3.091,-3.1775,-3.2583,-3.341,-3.4295,0.0,0.0,0.0,0.0,0.0,0.0,0.0,-3.5493,0.0,0.0,0.0,0.0,0.0,-3.5493,-3.5493,-3.5493,-3.6719,0.0,0.0,0.0,0.0,0.0,0.0,0.0,0.0,0.0,0.0,-4.4316,0.0,0.0,-4.5586,-4.5586,-4.5893,-4.6778,-4.7586,-4.8451,-4.9391,-5.0273,-5.0808,-5.089,-5.0951,-5.1054,-5.1181,-5.1256,-5.1336,-5.139,-5.1394,-5.1391,-5.1406,-5.1406,-5.1406,-5.1406,-5.1406,-5.1406,-5.1406,-5.1406,-5.1406,-5.1406,-5.1406,-5.1406,-5.1406,-5.1406,-5.1406,-5.1406,-5.1406,-5.1406,-5.1406,-5.1406,-5.1406,-5.1406,-5.1406,-5.1406,-5.1406,0.0,0.0,0.0,0.0,0.0,0.0,0.0,0.0,0.0,0.0,0.0,0.0,0.0,0.0,0.0,0.0,0.0,0.0,-2.5303,-2.5303,-2.5303,-2.5303,-2.5303,-2.5303,-2.5302,-2.5201,-2.5888,-2.7366,-2.7915,-2.8893,-3.0234,-3.0279,-3.0304,-3.0304,-3.0367,-3.0398,-3.0398,-3.0398,-3.0867,-3.17,-3.2564,-3.3396,-3.4227,0.0,0.0,0.0,0.0,0.0,0.0,0.0,0.0,0.0,0.0,0.0,0.0,-3.5493,-3.5493,-3.5493,-3.5493,0.0,0.0,0.0,0.0,0.0,0.0,0.0,0.0,0.0,0.0,-4.4489,-4.5086,0.0,0.0,-4.5586,-4.5586,-4.5893,-4.6778,-4.7105,-4.7816,-4.9333,-4.9765,-5.021,-5.0903,-5.1108,-5.1229,-5.1276,-5.1331,-5.1375,-5.139,-5.1396,-5.1405,-5.1406,-5.1406,-5.1406,-5.1406,-5.1406,-5.1406,-5.1406,-5.1406,-5.1406,-5.1406,-5.1406,-5.1406,-5.1406,-5.1406,-5.1406,-5.1406,-5.1406,-5.1406,-5.1406,-5.1406,-5.1406,-5.1406,-5.1406,-5.1406,-5.1406,0.0,0.0,0.0,0.0,0.0,0.0,0.0,0.0,0.0,0.0,0.0,0.0,0.0,0.0,0.0,0.0,0.0,0.0,0.0,-2.5293,-2.5293,-2.5293,-2.5273,-2.5241,-2.5187,-2.5099,-2.5882,-2.7584,-2.765,-2.8536,-3.0152,-3.0234,-3.026,-3.0273,-3.033,-3.0362,-3.0349,-3.0727,-3.1328,-3.216,-3.3023,-3.3853,-3.4644,0.0,0.0,0.0,0.0,0.0,0.0,0.0,0.0,0.0,0.0,0.0,0.0,-3.546,-3.5493,-3.5493,-3.5493,0.0,0.0,0.0,0.0,0.0,0.0,0.0,0.0,0.0,0.0,-4.497,-4.549,-4.5586,0.0,-4.5586,-4.5586,-4.5778,-4.6317,-4.6682,-4.7314,-4.8384,-4.8868,-4.9495,-5.0468,-5.0722,-5.0964,-5.1304,-5.1382,-5.14,-5.1394,-5.1402,-5.1406,-5.1406,-5.1406,-5.1406,-5.1406,-5.1406,-5.1406,-5.1406,-5.1406,-5.1406,-5.1406,-5.1406,-5.1406,-5.1406,-5.1406,-5.1406,-5.1406,-5.1406,-5.1406,-5.1406,-5.1406,-5.1406,-5.1406,-5.1406,-5.1406,-5.1406,0.0,0.0,0.0,0.0,0.0,0.0,0.0,0.0,0.0,0.0,0.0,0.0,0.0,0.0,0.0,0.0,0.0,0.0,0.0,0.0,-2.5282,-2.5282,-2.5228,-2.5111,-2.4994,-2.505,-2.5849,-2.7384,-2.7466,-2.8379,-3.0087,-3.0161,-3.0185,-3.0185,-3.0253,-3.0266,-3.0265,-3.1205,-3.2062,-3.2867,-3.3729,-3.4553,-3.5285,-3.535,0.0,0.0,0.0,0.0,0.0,0.0,0.0,0.0,0.0,0.0,-3.5379,-3.5398,-3.5446,-3.5493,0.0,0.0,0.0,0.0,0.0,0.0,0.0,0.0,0.0,0.0,0.0,-4.5586,-4.5586,-4.5586,-4.5586,-4.5586,-4.5586,-4.5586,-4.5586,-4.6278,-4.6851,-4.6982,-4.7768,-4.8684,-4.9687,-4.9895,-5.0348,-5.1219,-5.1281,-5.132,-5.1398,-5.1403,-5.1406,-5.1406,-5.1406,-5.1406,-5.1406,-5.1406,-5.1406,-5.1406,-5.1406,-5.1406,-5.1406,-5.1406,-5.1406,-5.1406,-5.1406,-5.1406,-5.1406,-5.1406,-5.1406,-5.1406,-5.1406,-5.1406,-5.1406,-5.1406,-5.1406,-5.1406,0.0,0.0,0.0,0.0,0.0,0.0,0.0,0.0,0.0,0.0,0.0,0.0,0.0,0.0,0.0,0.0,0.0,0.0,0.0,0.0,-2.5228,-2.5228,-2.5106,-2.5006,-2.4926,-2.5435,-2.6236,-2.732,-2.7392,-2.8302,-3.0022,-3.0079,-3.0157,-3.0204,-3.0218,-3.0213,-3.0265,-3.1139,-3.1986,-3.2779,-3.362,-3.4429,-3.5143,-3.5157,-3.5155,0.0,0.0,0.0,0.0,0.0,0.0,0.0,-3.519,-3.5273,-3.533,-3.5379,-3.5446,-3.5493,0.0,0.0,0.0,0.0,0.0,0.0,0.0,0.0,0.0,0.0,-4.4432,-4.5586,-4.5586,-4.5586,-4.5586,-4.5586,-4.5586,-4.5586,-4.5586,-4.5759,-4.6177,-4.6912,-4.7212,-4.7759,-4.8788,-4.901,-4.9439,-5.032,-5.0425,-5.0721,-5.1366,-5.1406,-5.1406,-5.1406,-5.1406,-5.1406,-5.1406,-5.1406,-5.1406,-5.1406,-5.1406,-5.1406,-5.1406,-5.1406,-5.1406,-5.1406,-5.1406,-5.1406,-5.1406,-5.1406,-5.1406,-5.1406,-5.1406,-5.1406,-5.1406,-5.1406,-5.1406,-5.1406,0.0,0.0,0.0,0.0,0.0,0.0,0.0,0.0,0.0,0.0,0.0,0.0,0.0,0.0,0.0,0.0,0.0,0.0,0.0,0.0,-2.5082,-2.5006,-2.4912,-2.4827,-2.4753,-2.5483,-2.6343,-2.7307,-2.7746,-2.8657,0.0,0.0,-3.0064,-3.0098,-3.0098,-3.0327,-3.0746,-3.163,-3.2489,-3.3312,-3.4151,-3.4727,-3.5092,-3.5091,-3.5108,-3.5108,-3.5072,0.0,0.0,0.0,0.0,0.0,0.0,0.0,-3.5187,-3.5304,-3.5398,-3.546,0.0,0.0,0.0,0.0,0.0,0.0,0.0,0.0,0.0,0.0,-4.4432,-4.5586,-4.5586,-4.5586,-4.5586,-4.5586,-4.5586,-4.5586,-4.5586,-4.5586,-4.5811,-4.6368,-4.6462,-4.6894,-4.7923,-4.81,-4.8505,-4.9417,-4.9549,-4.9766,-5.0176,-5.0605,-5.0996,-5.1387,-5.1406,-5.1406,-5.1406,-5.1406,-5.1406,-5.1406,-5.1406,-5.1406,-5.1406,-5.1406,-5.1406,-5.1406,-5.1406,-5.1406,-5.1406,-5.1406,-5.1406,-5.1406,-5.1406,-5.1406,-5.1406,-5.1406,-5.1406,-5.1406,0.0,0.0,0.0,0.0,0.0,0.0,0.0,0.0,0.0,0.0,0.0,0.0,0.0,0.0,0.0,0.0,0.0,0.0,0.0,0.0,0.0,-2.4776,-2.4692,-2.472,-2.4823,-2.5607,-2.6499,-2.753,-2.8409,0.0,0.0,0.0,0.0,-3.0022,-3.0007,-3.0446,-3.1284,-3.2203,-3.3073,-3.3875,-3.475,-3.5094,-3.5057,-3.5039,-3.5039,-3.5002,-3.487,-3.4812,-3.4792,-3.4626,0.0,0.0,0.0,0.0,-3.5034,-3.5226,-3.5339,-3.5412,0.0,0.0,0.0,0.0,0.0,0.0,0.0,0.0,0.0,-4.2739,-4.4201,-4.5413,-4.5566,-4.5586,-4.5586,-4.5586,-4.5586,-4.5586,-4.5586,-4.5586,-4.5657,-4.577,-4.5791,-4.6138,-4.7038,-4.7157,-4.7567,-4.8505,-4.8647,-4.873,-4.8887,-4.957,-5.041,-5.1367,-5.1406,-5.1113,-5.0527,-5.0527,-5.0723,-5.1113,-5.1308,-5.1406,-5.1406,-5.1406,-5.1406,-5.1406,-5.1406,-5.1406,-5.1406,-5.1406,-5.1406,-5.1406,-5.1406,-5.1406,-5.1406,-5.1406,-5.1406,-5.1406,0.0,0.0,0.0,0.0,0.0,0.0,0.0,0.0,0.0,0.0,0.0,0.0,0.0,0.0,0.0,0.0,0.0,0.0,-2.5019,0.0,0.0,-2.4631,-2.4564,-2.4883,-2.5611,-2.6431,-2.736,-2.8431,0.0,0.0,0.0,0.0,0.0,-3.0087,0.0,0.0,-3.1328,-3.2229,-3.3051,-3.3875,-3.475,-3.5039,-3.4926,-3.4849,-3.4788,-3.4666,-3.4583,-3.4517,-3.4454,-3.445,-3.4517,0.0,0.0,0.0,-3.5108,-3.5245,-3.5339,-3.5412,0.0,0.0,0.0,0.0,0.0,0.0,0.0,0.0,0.0,0.0,-4.3316,-4.4701,-4.5451,-4.5586,-4.5586,-4.5586,-4.5586,-4.5586,-4.5586,-4.5586,-4.564,-4.569,-4.577,-4.5872,-4.608,-4.621,-4.6664,-4.7608,-4.7742,-4.8102,-4.8867,-4.9004,-4.9785,-5.1348,-5.1406,-4.998,-4.7012,-4.6973,-4.7969,-4.9941,-5.0937,-5.1406,-5.1406,-5.1406,-5.1406,-5.1406,-5.1406,-5.1406,-5.1406,-5.1406,-5.1406,-5.1406,-5.1406,-5.1406,-5.1406,-5.1406,-5.1406,-5.1406,0.0,0.0,0.0,0.0,0.0,0.0,0.0,0.0,0.0,0.0,0.0,0.0,0.0,0.0,0.0,-2.4926,-2.4912,-2.4856,-2.4783,-2.4642,-2.4528,-2.4428,-2.4837,-2.5263,-2.5671,-2.6991,-2.7978,-2.8598,0.0,0.0,0.0,-2.9991,-2.9956,0.0,0.0,0.0,0.0,0.0,-3.3339,-3.456,-3.494,-3.5039,-3.4946,-3.4849,-3.4751,-3.4687,-3.4539,-3.4473,-3.445,-3.4409,-3.4473,-3.4561,-3.471,0.0,0.0,0.0,-3.5324,0.0,0.0,0.0,0.0,0.0,0.0,0.0,0.0,0.0,-4.12,-4.17,-4.2393,-4.3297,-4.4624,-4.5259,-4.5586,-4.5586,-4.5586,-4.5586,-4.5586,-4.5586,-4.5622,-4.5693,-4.5738,-4.5805,-4.5941,-4.6047,-4.6286,-4.6748,-4.6839,-4.7047,-4.7422,-4.8047,-4.8437,-4.8535,-5.0391,-4.9766,-4.6328,-4.6308,-4.7285,-4.9258,-4.9766,-5.0,-5.0,-5.0,-5.0508,-5.1406,-5.1406,-5.1406,-5.1406,-5.1406,-5.1406,-5.1406,-5.1406,-5.1406,-5.1406,-5.1406,-5.1406,-5.1406,0.0,0.0,0.0,0.0,0.0,0.0,0.0,0.0,0.0,0.0,0.0,0.0,0.0,0.0,0.0,0.0,-2.4842,-2.4813,-2.4881,-2.4963,-2.4986,-2.4912,-2.5503,-2.5967,-2.6247,-2.755,-2.8446,0.0,0.0,0.0,-2.9975,-2.9907,-2.9872,0.0,-3.017,0.0,0.0,0.0,0.0,0.0,-3.5127,-3.5092,-3.5001,-3.487,-3.4811,-3.4747,-3.4602,-3.4517,-3.4517,-3.4473,-3.4517,-3.4607,-3.4733,-3.487,0.0,0.0,0.0,0.0,0.0,0.0,0.0,0.0,0.0,0.0,0.0,0.0,-4.0431,0.0,-4.1662,-4.2181,-4.3431,-4.4528,-4.5336,-4.5547,-4.5586,-4.5586,-4.5586,-4.5586,-4.5622,-4.5676,-4.5703,-4.5791,-4.5956,-4.6037,-4.6127,-4.6189,-4.6261,-4.6303,-4.6308,-4.7109,-4.7187,-4.6328,-4.8769,-4.8887,-4.6328,-4.6523,-4.7285,-4.8574,-4.8789,-4.8906,-4.8906,-4.8906,-4.957,-5.0781,-5.0996,-5.1211,-5.1406,-5.1406,-5.1406,-5.1406,-5.1406,-5.1406,-5.1406,-5.1406,-5.1406,-5.1406,0.0,0.0,0.0,0.0,0.0,0.0,0.0,0.0,0.0,0.0,0.0,0.0,-2.4902,-2.4902,-2.4907,-2.4898,-2.4842,-2.5045,-2.5615,-2.6283,-2.6652,-2.6574,-2.6669,0.0,-2.8053,-2.8222,0.0,0.0,0.0,0.0,-2.9912,-2.9842,-2.9841,-2.9943,-3.0887,-3.1836,-3.2745,0.0,0.0,0.0,0.0,0.0,0.0,0.0,-3.4811,-3.4706,-3.4623,-3.4583,-3.4583,-3.4602,-3.473,-3.4908,-3.4945,-3.5091,-3.519,0.0,0.0,0.0,0.0,0.0,0.0,0.0,0.0,0.0,0.0,0.0,-3.9585,-4.0392,-4.1219,-4.1835,-4.1912,-4.3278,-4.4643,-4.547,-4.5586,-4.5586,-4.5586,-4.5586,-4.5586,-4.5603,-4.5703,-4.581,-4.5893,-4.6025,-4.6141,-4.6196,-4.626,-4.6295,-4.6308,-4.6367,-4.6367,-4.6308,-4.6465,-4.6484,-4.6308,-4.7129,-4.7578,-4.7676,-4.8516,-4.8906,-4.8906,-4.8906,-4.8945,-4.9082,-4.9902,-5.0703,-5.1406,-5.1406,-5.1406,-5.1406,-5.1406,-5.1406,-5.1406,-5.1406,-5.1406,-5.1406,0.0,0.0,0.0,0.0,0.0,0.0,0.0,0.0,0.0,0.0,0.0,0.0,0.0,-2.5482,-2.5785,-2.5744,-2.6076,-2.6349,-2.6525,-2.6749,-2.684,-2.684,-2.7437,-2.7942,-2.8334,-2.8914,0.0,0.0,0.0,-2.9664,-2.9774,-2.97,-2.977,-3.001,-3.0925,-3.184,-3.276,-3.3695,0.0,0.0,0.0,0.0,0.0,0.0,0.0,0.0,0.0,0.0,-3.487,-3.4908,-3.4963,-3.5035,-3.516,-3.5229,-3.5277,-3.535,-3.5427,0.0,0.0,0.0,0.0,0.0,0.0,0.0,0.0,-3.8488,-3.9373,-3.9662,-4.0392,-4.1143,-4.17,-4.2758,-4.3624,-4.3932,-4.4432,-4.4759,-4.4759,-4.524,-4.5622,-4.5657,-4.5754,-4.5852,-4.5941,-4.6056,-4.6138,-4.625,-4.6292,-4.6295,-4.6308,-4.6308,-4.6308,-4.6308,-4.6308,-4.6308,-4.6308,-4.6601,-4.6777,-4.6777,-4.707,-4.7226,-4.7226,-4.7226,-4.7539,-4.8086,-4.8398,-4.9004,-4.9805,-4.9805,-5.0137,-5.0625,-5.0625,-5.0957,-5.1406,-5.1406,-5.1406,-5.1406,0.0,0.0,0.0,0.0,0.0,0.0,0.0,0.0,0.0,0.0,0.0,0.0,0.0,0.0,-2.6772,-2.6673,-2.7223,-2.7528,-2.7474,-2.7681,-2.7811,-2.7811,-2.8446,-2.882,-2.891,-2.9456,0.0,0.0,0.0,0.0,0.0,-2.97,-2.9938,-3.0475,-3.139,-3.2172,0.0,0.0,0.0,-3.533,0.0,0.0,-3.5308,0.0,0.0,0.0,0.0,0.0,-3.5105,-3.5157,-3.519,-3.5223,-3.5308,-3.5358,-3.5373,-3.5432,-3.546,0.0,-3.5493,0.0,0.0,0.0,0.0,0.0,0.0,0.0,-3.8584,-3.9181,-3.9719,-4.0354,-4.12,-4.1835,-4.2412,-4.3008,-4.3547,-4.3893,-4.3893,-4.4393,-4.4776,-4.4826,-4.5167,-4.5448,-4.5539,-4.592,-4.6169,-4.6296,-4.629,-4.6303,-4.6308,-4.6308,-4.6308,-4.6308,-4.6308,-4.6308,-4.6308,-4.6308,-4.6308,-4.6308,-4.6308,-4.6308,-4.6308,-4.6308,-4.6621,-4.7168,-4.7168,-4.7812,-4.8906,-4.8906,-4.9238,-4.9766,-4.9766,-5.0098,-5.0605,-5.0898,-5.0996,-5.1035,0.0,0.0,0.0,0.0,0.0,0.0,0.0,0.0,0.0,-2.6532,0.0,0.0,0.0,0.0,0.0,-2.7679,-2.8209,-2.8532,-2.846,-2.9175,-2.9626,-2.9626,-2.9754,-2.9842,-2.9912,-2.9842,-2.9842,0.0,0.0,0.0,0.0,0.0,-3.0364,-3.1359,-3.2378,-3.2881,-3.305,0.0,-3.546,-3.5412,0.0,-3.5364,-3.5315,0.0,0.0,0.0,-3.5312,-3.5312,0.0,-3.5312,-3.5339,0.0,0.0,-3.5446,-3.5493,-3.5493,-3.5493,0.0,0.0,0.0,0.0,0.0,0.0,0.0,-3.6488,0.0,-3.718,-3.8873,-3.9238,-3.9508,-4.0315,-4.045,-4.1027,-4.2739,-4.3047,-4.3066,-4.3066,-4.3085,-4.3102,-4.3092,-4.3974,-4.4587,-4.4665,-4.5546,-4.615,-4.6218,-4.6246,-4.6269,-4.6308,-4.6308,-4.6308,-4.6308,-4.6308,-4.6308,-4.6308,-4.6308,-4.6308,-4.6308,-4.6308,-4.6308,-4.6308,-4.6308,-4.6308,-4.6308,-4.6308,-4.7266,-4.8828,-4.8828,-4.8848,-4.8867,-4.8867,-4.8887,-4.9004,-4.9844,-5.0156,-5.0273,0.0,0.0,0.0,0.0,0.0,0.0,0.0,0.0,0.0,0.0,0.0,0.0,-2.7849,-2.8341,-2.8894,-2.9426,-2.9588,-2.9627,-2.9558,-2.9766,-2.9899,-2.9899,-2.9969,-3.0034,-3.0034,-3.0022,-2.9991,-2.9975,0.0,0.0,0.0,0.0,0.0,0.0,-3.2981,-3.3724,-3.3916,-3.5032,0.0,-3.546,-3.546,-3.546,0.0,0.0,0.0,0.0,0.0,-3.5432,-3.5432,-3.5432,-3.5465,-3.546,0.0,0.0,0.0,0.0,0.0,0.0,-3.5493,0.0,0.0,0.0,0.0,0.0,-3.5795,0.0,-3.6853,-3.7315,-3.7911,-3.8623,-3.9469,-3.9623,-3.9969,-4.1046,-4.1758,-4.2162,-4.2162,-4.2701,-4.3118,-4.3168,-4.346,-4.3715,-4.3889,-4.4172,-4.4351,-4.4403,-4.482,-4.543,-4.6269,-4.6308,-4.6308,-4.6308,-4.6308,-4.6308,-4.6308,-4.6308,-4.6308,-4.6308,-4.6308,-4.6308,-4.6308,-4.6308,-4.6308,-4.6308,-4.6308,-4.6562,-4.7012,-4.7012,-4.7383,-4.7969,-4.7969,-4.834,-4.8926,-4.918,-4.9258,-4.9375,0.0,0.0,0.0,0.0,0.0,0.0,0.0,0.0,0.0,0.0,0.0,0.0,-2.8909,-2.9306,-2.9736,-3.0196,-3.018,-3.0118,-3.0085,-3.0085,-3.0085,-3.0085,-3.0152,-3.018,-3.018,-3.0157,-3.0109,-3.0079,0.0,0.0,0.0,0.0,0.0,0.0,0.0,0.0,0.0,0.0,0.0,0.0,-3.5493,0.0,0.0,-3.5493,-3.5493,0.0,-3.5493,-3.5493,-3.5493,-3.5493,-3.5493,-3.5493,0.0,0.0,0.0,0.0,0.0,0.0,0.0,0.0,0.0,0.0,0.0,0.0,-3.5493,-3.5872,-3.6295,-3.6642,-3.7103,-3.7719,-3.8604,-3.8757,-3.8911,-3.9373,-3.9873,-4.0469,-4.1162,-4.1681,-4.2036,-4.2107,-4.2525,-4.2865,-4.3002,-4.341,-4.3753,-4.4042,-4.4392,-4.5098,-4.623,-4.6308,-4.6308,-4.6308,-4.6308,-4.6308,-4.6308,-4.6308,-4.6308,-4.6308,-4.6308,-4.6308,-4.6308,-4.6308,-4.6308,-4.6308,-4.6308,-4.6308,-4.6308,-4.6308,-4.6601,-4.7051,-4.7051,-4.7363,-4.7851,-4.8223,-4.8359,-4.8476,0.0,0.0,0.0,0.0,0.0,0.0,0.0,0.0,0.0,0.0,-2.9236,-2.9544,-3.0333,-3.0348,-3.0355,-3.0451,-3.0407,-3.0406,-3.0502,-3.0502,-3.0464,-3.0368,-3.0414,-3.042,-3.0305,-3.0247,-3.0259,-3.0355,0.0,0.0,0.0,0.0,0.0,0.0,0.0,0.0,0.0,0.0,0.0,-3.5493,-3.5493,-3.5493,0.0,0.0,-3.5493,-3.5493,-3.5493,-3.5493,-3.5493,-3.5493,-3.5493,-3.5493,-3.5493,-3.5493,0.0,0.0,-3.5493,0.0,0.0,0.0,0.0,0.0,-3.5493,0.0,-3.5493,-3.5493,-3.5699,-3.643,-3.6584,-3.6834,-3.77,-3.7853,-3.7892,-3.7988,-3.8007,-3.8546,-4.0142,-4.0354,-4.0438,-4.0588,-4.1415,-4.1985,-4.2066,-4.288,-4.3632,-4.4173,-4.4218,-4.4668,-4.5683,-4.5723,-4.5781,-4.5918,-4.5918,-4.5996,-4.6152,-4.6152,-4.6191,-4.6308,-4.6308,-4.6308,-4.6308,-4.6308,-4.6308,-4.6308,-4.6308,-4.6308,-4.6308,-4.6308,-4.6308,-4.6308,-4.6308,-4.6308,-4.6387,-4.7168,-4.7461,-4.7578,-2.739,0.0,0.0,0.0,0.0,0.0,0.0,0.0,0.0,-3.0025,-3.016,-3.0217,-3.0379,-3.0398,-3.0667,-3.1359,-3.1405,-3.1693,-3.2327,-3.2366,-3.2077,-3.1431,-3.1424,-3.1097,-3.0405,-3.0323,-3.0618,-3.1328,0.0,0.0,0.0,0.0,0.0,0.0,0.0,0.0,0.0,0.0,0.0,-3.5493,-3.5493,-3.5493,-3.5493,-3.5493,-3.5493,-3.5493,-3.5493,-3.5493,-3.5493,-3.5493,-3.5493,-3.5493,-3.5493,-3.5493,-3.5493,-3.5493,-3.5493,0.0,0.0,0.0,0.0,-3.5493,-3.5493,0.0,-3.5493,-3.5493,-3.5532,-3.5699,-3.5738,-3.5988,-3.6796,-3.6949,-3.718,-3.7892,-3.8007,-3.8354,-3.9392,-3.9527,-3.9822,-4.0577,-4.09,-4.111,-4.1217,-4.1412,-4.1599,-4.1776,-4.1836,-4.1953,-4.2187,-4.2207,-4.2617,-4.3535,-4.3555,-4.4101,-4.5234,-4.5254,-4.5605,-4.6308,-4.6308,-4.6308,-4.6308,-4.6308,-4.6308,-4.6308,-4.6308,-4.6308,-4.6308,-4.6308,-4.6308,-4.6308,-4.6308,-4.6308,-4.6328,-4.6484,-4.6543,-4.668,-2.7943,0.0,0.0,0.0,0.0,0.0,0.0,0.0,0.0,-3.034,-3.0794,-3.1064,-3.1064,-3.141,-3.1833,-3.2319,-3.2358,-3.2524,-3.2921,-3.2947,-3.2762,-3.2377,-3.2326,-3.2083,-3.166,-3.1609,-3.1808,-3.225,0.0,0.0,0.0,0.0,0.0,0.0,0.0,0.0,0.0,0.0,-3.5493,-3.5493,-3.5493,0.0,-3.5493,-3.5493,-3.5493,-3.5493,-3.5493,-3.5493,-3.5493,-3.5493,-3.5493,-3.5493,-3.5493,-3.5493,-3.5493,-3.5493,-3.5493,-3.5493,-3.5493,-3.5493,-3.5493,-3.5493,-3.5493,0.0,0.0,-3.5493,-3.5493,-3.5493,-3.5493,-3.5608,-3.6045,-3.6098,-3.6246,-3.667,-3.6774,-3.7109,-3.7976,-3.843,-3.8835,-3.9341,-3.9727,-3.9984,-4.0096,-4.0676,-4.1078,-4.1133,-4.1172,-4.1191,-4.1191,-4.1738,-4.2305,-4.2871,-4.3164,-4.3633,-4.4336,-4.4355,-4.457,-4.5019,-4.5449,-4.5644,-4.5664,-4.6094,-4.6308,-4.6308,-4.6308,-4.6308,-4.6308,-4.6308,-4.6308,-4.6308,-4.6308,-4.6308,-4.6308,-4.6308,-4.6308,-4.6367,-2.8509,0.0,0.0,0.0,0.0,0.0,0.0,0.0,0.0,-3.0641,-3.141,-3.1929,-3.1929,-3.2506,-3.3012,-3.3222,-3.3253,-3.3323,-3.3481,-3.3496,-3.3415,-3.3229,-3.3185,-3.3064,-3.2891,-3.2891,-3.2987,-3.3141,0.0,0.0,0.0,0.0,0.0,0.0,0.0,0.0,0.0,0.0,0.0,-3.5493,0.0,-3.5493,-3.5493,-3.5493,-3.5493,-3.5526,-3.568,-3.5738,-3.5738,-3.5738,-3.5641,-3.5493,-3.5493,-3.5493,-3.5493,-3.5493,-3.5493,-3.5493,-3.5493,-3.5493,-3.5493,-3.5493,-3.5493,-3.5493,0.0,0.0,0.0,-3.5488,-3.5488,-3.5501,-3.5515,-3.5522,-3.5509,-3.554,-3.5589,-3.5855,-3.6571,-3.7172,-3.7707,-3.8067,-3.8706,-3.9131,-3.9189,-4.0057,-4.0769,-4.117,-4.1191,-4.1191,-4.1191,-4.207,-4.2578,-4.2578,-4.2988,-4.3281,-4.3457,-4.3457,-4.3535,-4.3711,-4.4414,-4.4844,-4.5019,-4.5723,-4.6133,-4.6308,-4.6308,-4.6308,-4.6308,-4.6308,-4.6308,-4.6308,-4.6308,-4.6308,-4.6308,-4.6308,-4.6308,-4.6308,-3.033,-3.0296,0.0,0.0,0.0,0.0,0.0,0.0,0.0,-3.1448,-3.2256,-3.2756,0.0,0.0,0.0,0.0,0.0,-3.448,-3.5253,-3.5295,-3.4923,-3.4096,-3.4071,-3.368,-3.291,-3.2891,-3.3276,-3.4045,0.0,0.0,0.0,0.0,0.0,0.0,-3.5493,0.0,0.0,0.0,-3.5493,0.0,-3.5493,-3.5493,-3.5493,-3.5493,-3.5493,-3.5589,-3.6315,-3.6565,-3.6565,-3.6565,-3.6103,-3.5493,-3.5493,-3.5493,-3.5493,-3.5493,-3.5493,-3.5493,-3.5493,-3.5493,-3.5493,-3.5493,-3.5493,-3.5493,-3.5493,0.0,-3.5488,-3.5489,0.0,-3.5515,-3.5577,0.0,0.0,-3.5667,-3.5678,-3.5727,-3.5824,-3.5921,-3.6513,-3.802,-3.8731,-3.9121,-3.9199,-3.8955,-3.9457,-4.1074,-4.1208,-4.1191,-4.1191,-4.1328,-4.1387,-4.1387,-4.1445,-4.1836,-4.2539,-4.2558,-4.2949,-4.3691,-4.3808,-4.4258,-4.5,-4.5098,-4.5566,-4.6308,-4.6308,-4.6308,-4.6308,-4.6308,-4.6308,-4.6308,-4.6308,-4.6308,-4.6308,-4.6308,-4.6308,-4.6308,-3.0678,-3.0664,0.0,0.0,0.0,0.0,0.0,0.0,0.0,-3.2469,-3.3199,0.0,0.0,0.0,0.0,0.0,0.0,-3.5281,-3.5679,-3.5676,0.0,-3.5029,-3.5001,-3.4809,-3.443,-3.4411,-3.4591,-3.4949,-3.4949,0.0,0.0,0.0,0.0,0.0,-3.5493,0.0,-3.5493,0.0,-3.5493,0.0,0.0,-3.5495,-3.5495,-3.5488,-3.5493,-3.5622,-3.6411,-3.6733,-3.676,-3.6766,-3.6562,-3.6215,-3.5714,-3.5553,-3.5565,-3.5565,-3.5553,-3.556,-3.556,-3.5534,-3.5495,-3.5495,-3.5501,-3.5507,-3.5495,-3.5495,-3.5522,-3.5553,0.0,0.0,0.0,0.0,0.0,0.0,-3.5793,-3.5829,-3.5818,-3.5823,-3.6048,-3.6667,-3.6977,-3.7159,-3.728,-3.7144,-3.7644,-3.9056,-3.9168,-3.955,-4.0391,-4.0449,-4.0684,-4.1172,-4.1191,-4.1367,-4.1699,-4.1699,-4.1894,-4.2246,-4.2715,-4.3144,-4.3516,-4.4023,-4.4726,-4.5547,-4.5547,-4.582,-4.6308,-4.6308,-4.6308,-4.6308,-4.6308,-4.6308,-4.6308,-4.6308,-4.6308,-4.6308,-3.1445,0.0,0.0,0.0,0.0,0.0,0.0,0.0,0.0,-3.3451,-3.4167,0.0,-3.4679,-3.524,0.0,0.0,-3.5736,-3.5754,-3.5791,-3.5747,-3.5698,-3.5618,-3.5601,-3.5572,-3.5496,-3.5515,-3.5509,-3.5493,0.0,0.0,0.0,0.0,0.0,0.0,0.0,-3.5493,-3.5507,0.0,-3.5501,-3.5501,-3.5515,-3.554,-3.5553,-3.5522,-3.5682,-3.5965,-3.6543,-3.68,-3.6826,-3.6826,-3.6709,-3.6455,-3.5828,-3.5637,-3.5629,-3.5629,-3.5637,-3.5635,-3.5635,-3.5601,-3.5546,-3.5534,-3.5528,-3.5534,-3.5521,-3.5534,-3.5558,-3.5615,-3.5629,0.0,0.0,0.0,-3.5834,-3.583,0.0,-3.5911,-3.593,-3.5936,-3.5885,-3.5779,-3.5748,-3.5781,-3.5892,-3.595,-3.6479,-3.761,-3.7636,-3.8161,-3.9473,-3.9766,-4.0195,-4.082,-4.1074,-4.1191,-4.1191,-4.1191,-4.1191,-4.1211,-4.1797,-4.2187,-4.2422,-4.3066,-4.3828,-4.4668,-4.4902,-4.5351,-4.5957,-4.6191,-4.6308,-4.6308,-4.6308,-4.6308,-4.6308,-4.6308,-4.6308,-4.6308,-3.3305,-3.2635,0.0,0.0,0.0,0.0,0.0,0.0,0.0,-3.438,0.0,0.0,0.0,0.0,0.0,0.0,-3.5806,-3.5801,-3.5801,-3.5795,-3.5765,-3.5707,-3.5635,-3.5577,-3.5496,-3.5515,-3.5509,-3.5493,0.0,0.0,0.0,0.0,0.0,0.0,0.0,-3.5493,-3.5507,-3.5509,-3.5502,-3.5515,-3.5577,-3.5635,-3.5697,-3.5623,-3.6115,-3.6853,-3.6872,-3.6891,-3.6903,-3.6906,-3.6375,-3.5727,-3.5718,-3.5699,-3.5708,-3.5708,-3.5699,-3.5699,-3.5688,-3.5707,-3.5678,-3.5607,-3.5607,-3.5607,-3.5607,-3.5648,-3.5698,-3.5708,-3.5754,-3.5799,-3.5877,-3.5903,-3.5898,0.0,-3.5908,0.0,0.0,-3.601,-3.5978,-3.5894,-3.5889,-3.5908,-3.5908,-3.5958,-3.647,-3.7615,-3.7458,-3.7693,-3.8594,-3.9434,-3.9902,-3.9941,-4.0762,-4.1191,-4.1191,-4.1191,-4.1191,-4.1191,-4.123,-4.1641,-4.2402,-4.2422,-4.293,-4.3789,-4.4629,-4.5019,-4.5117,-4.5957,-4.6308,-4.6308,-4.6308,-4.6308,-4.6308,-4.6308,-4.6308,-4.6308,0.0,0.0,0.0,0.0,0.0,0.0,0.0,-3.4886,0.0,-3.5395,-3.5651,-3.584,-3.584,-3.5833,-3.5833,-3.5866,-3.5866,-3.5864,-3.587,-3.5869,-3.5833,-3.5776,-3.5743,-3.5698,-3.5618,-3.5626,-3.5612,-3.5572,0.0,0.0,0.0,0.0,0.0,0.0,0.0,-3.5509,0.0,0.0,0.0,0.0,0.0,-3.5773,-3.5823,-3.5708,-3.5852,-3.6182,-3.6764,-3.6958,-3.6968,-3.6978,-3.6813,-3.6528,-3.6001,-3.5834,-3.5823,-3.5823,-3.5838,-3.584,-3.5833,-3.5807,-3.5756,-3.5736,-3.5708,-3.5689,-3.5727,-3.5756,-3.5773,-3.5815,-3.5857,-3.5859,-3.5905,-3.5938,-3.5966,0.0,-3.5974,-3.5978,0.0,-3.5991,-3.5994,-3.5974,-3.5965,-3.597,-3.5977,-3.5982,-3.6167,-3.6557,-3.6489,-3.6829,-3.7695,-3.8027,-3.8437,-3.9023,-3.9883,-4.0332,-4.0332,-4.0918,-4.1191,-4.1191,-4.1191,-4.1348,-4.1601,-4.1601,-4.2051,-4.2891,-4.3769,-4.4473,-4.5078,-4.5937,-4.6308,-4.6308,-4.6308,-4.6308,-4.6308,-4.6308,-4.6308,-4.6308,-3.4315,0.0,0.0,0.0,0.0,0.0,0.0,-3.56,-3.5943,-3.5933,-3.5948,-3.5934,-3.5943,-3.5933,-3.5947,-3.5947,-3.5943,-3.5947,-3.5949,-3.5939,-3.5914,-3.5846,-3.5846,-3.5803,-3.5736,-3.5737,-3.5698,-3.5635,0.0,-3.5565,0.0,0.0,0.0,0.0,0.0,-3.5534,-3.5546,-3.5615,-3.5639,0.0,0.0,-3.5866,-3.5897,-3.5803,-3.5771,-3.5849,-3.6403,-3.6615,-3.66,-3.6608,-3.6642,-3.6586,-3.6092,-3.5947,-3.5933,-3.5933,-3.5943,-3.5934,-3.5904,-3.5878,-3.5833,-3.585,-3.5799,-3.5791,-3.5834,-3.583,-3.5845,-3.5924,-3.5936,-3.5943,-3.5934,-3.5978,-3.5996,0.0,0.0,-3.6005,0.0,-3.6005,-3.6009,-3.5994,-3.601,-3.6001,-3.6007,-3.5997,-3.6005,-3.5997,-3.6001,-3.6257,-3.6816,-3.7129,-3.7559,-3.8125,-3.8984,-3.959,-3.9902,-4.0469,-4.0898,-4.1191,-4.1191,-4.1191,-4.1191,-4.1191,-4.1484,-4.2012,-4.2871,-4.373,-4.4609,-4.5488,-4.6016,-4.6308,-4.6308,-4.6308,-4.6308,-4.6308,-4.6308,-4.6308,-3.5996,0.0,0.0,0.0,-3.5449,-3.5996,-3.5992,-3.5992,-3.6009,-3.5996,-3.5994,-3.6007,-3.5994,-3.6009,-3.6029,-3.6064,-3.6063,-3.6055,-3.6066,-3.6057,-3.6017,-3.5914,-3.5903,-3.5866,-3.5807,-3.5807,-3.5773,-3.5698,0.0,0.0,0.0,0.0,0.0,0.0,-3.5601,0.0,-3.5618,-3.5679,-3.5763,-3.5826,-3.5872,-3.5894,-3.5899,-3.5895,-3.5894,-3.5905,-3.5905,-3.5898,-3.5892,-3.5903,-3.5894,-3.5924,-3.5981,-3.5994,-3.5994,-3.5994,-3.5994,-3.5991,-3.5916,-3.5892,-3.5899,-3.5911,-3.5892,-3.5911,-3.5911,-3.5891,-3.5914,-3.5992,-3.6009,-3.5994,-3.5994,-3.5994,-3.6003,-3.5996,-3.5996,-3.5996,-3.5996,-3.5996,-3.5996,-3.5996,-3.5996,-3.5996,-3.5992,-3.5992,-3.6007,-3.5996,-3.5994,-3.6005,-3.5996,-3.6797,-3.7246,-3.7246,-3.8086,-3.8945,-3.9824,-3.9883,-4.0332,-4.1191,-4.1191,-4.1191,-4.1191,-4.1191,-4.1191,-4.123,-4.2051,-4.2871,-4.3711,-4.4629,-4.5488,-4.623,-4.6289,-4.6308,-4.6308,-4.6308,-4.6308,-4.6308,-3.5996,-3.5996,-3.5937,0.0,-3.5859,-3.5996,-3.5996,-3.5996,-3.5995,-3.5995,-3.5995,-3.5994,-3.5993,-3.6007,-3.6253,-3.6905,-3.6967,-3.6979,-3.6972,-3.6962,-3.6674,-3.6001,-3.5978,-3.5947,-3.588,-3.5869,-3.5872,-3.5846,-3.5807,0.0,-3.5747,0.0,0.0,0.0,0.0,0.0,-3.5679,-3.5793,-3.5889,-3.595,-3.5962,-3.5978,-3.5965,-3.5965,-3.5962,-3.5974,-3.5968,-3.5977,-3.5974,-3.5978,-3.5981,-3.5981,-3.5991,-3.6005,-3.5995,-3.5995,-3.5995,-3.5994,-3.5973,-3.597,-3.5962,-3.5977,-3.5965,-3.5974,-3.5974,-3.5978,-3.5981,-3.6001,-3.6007,-3.5999,-3.5993,-3.5995,-3.5995,-3.5996,-3.5996,-3.5996,-3.5996,-3.5996,-3.5996,-3.5996,-3.5996,-3.5996,-3.5996,-3.5996,-3.5995,-3.5995,-3.5995,-3.5995,-3.5996,-3.6211,-3.6328,-3.6328,-3.7187,-3.8047,-3.8926,-3.957,-4.0332,-4.1191,-4.1191,-4.1191,-4.1191,-4.1191,-4.1191,-4.123,-4.2051,-4.2539,-4.2851,-4.4375,-4.5137,-4.5391,-4.6055,-4.6308,-4.6308,-4.6308,-4.6308,-4.6308,-3.5996,-3.5996,-3.5996,-3.5996,-3.5996,-3.5996,-3.5996,-3.5996,-3.5996,-3.5996,-3.5996,-3.6152,-3.6523,-3.6562,-3.6911,-3.7786,-3.7864,-3.7868,-3.7871,-3.7516,-3.7081,-3.6589,-3.6196,-3.5979,-3.5932,-3.5949,-3.5935,-3.5904,-3.5852,0.0,-3.5833,0.0,0.0,0.0,0.0,-3.5788,-3.5784,-3.5892,-3.5972,-3.6005,-3.5994,-3.5999,0.0,-3.5999,-3.5999,-3.5991,-3.5997,-3.5991,-3.6009,-3.6009,-3.6009,-3.6009,-3.6009,-3.5994,-3.5996,-3.5996,-3.5996,-3.5996,-3.5996,-3.5996,-3.5995,-3.5995,-3.5992,-3.6009,-3.6009,-3.6009,-3.6009,-3.6009,-3.6009,-3.5992,-3.5996,-3.5996,-3.5996,-3.5996,-3.5996,-3.5996,-3.5996,-3.5996,-3.5996,-3.5996,-3.5996,-3.5996,-3.5996,-3.5996,-3.5996,-3.5996,-3.5996,-3.5996,-3.5996,-3.5996,-3.5996,-3.5996,-3.6484,-3.7148,-3.8027,-3.8906,-3.9766,-4.0644,-4.1016,-4.1191,-4.1191,-4.1191,-4.1191,-4.123,-4.168,-4.207,-4.248,-4.3457,-4.4316,-4.5098,-4.5957,-4.6308,-4.6308,-4.6308,-4.6308,-4.6308,-3.5996,-3.5996,0.0,0.0,-3.5996,-3.5996,-3.5996,-3.5996,-3.5996,-3.5996,-3.6094,-3.6465,-3.7226,-3.7402,-3.7812,-3.8691,-3.8769,-3.8769,-3.8769,-3.8066,-3.7539,-3.7301,-3.6578,-3.6129,-3.5992,-3.5992,-3.5966,-3.5919,-3.5916,0.0,0.0,0.0,0.0,0.0,0.0,0.0,0.0,-3.5974,-3.5994,-3.5999,-3.6009,-3.6007,-3.5999,-3.6009,-3.6005,-3.5991,-3.5991,-3.6009,-3.5996,-3.5996,-3.5996,-3.5996,-3.5996,-3.5996,-3.5996,-3.5996,-3.5996,-3.5996,-3.5996,-3.5996,-3.5996,-3.5996,-3.5996,-3.5996,-3.5996,-3.5996,-3.5996,-3.5996,-3.5996,-3.5996,-3.5996,-3.5996,-3.5996,-3.5996,-3.5996,-3.5996,-3.5996,-3.5996,-3.5996,-3.5996,-3.5996,0.0,-3.5996,-3.5996,-3.5996,-3.5996,-3.5996,-3.5996,-3.5996,-3.5996,-3.5996,-3.5996,-3.5996,-3.6426,-3.7285,-3.8047,-3.8926,-3.9902,-4.0664,-4.1094,-4.1191,-4.1191,-4.1191,-4.1191,-4.1191,-4.1601,-4.2246,-4.2363,-4.3437,-4.5098,-4.5957,-4.6308,-4.6308,-4.6308,-4.6308,-4.6308,-3.5996,0.0,0.0,0.0,-3.5996,-3.5996,-3.5996,-3.5996,-3.5996,-3.5996,-3.6621,-3.7129,-3.7285,-3.7949,-3.8711,-3.9609,-3.9668,-3.9668,-3.9668,-3.9531,-3.8809,-3.7363,-3.7148,-3.6738,-3.6015,-3.5996,-3.5996,-3.5975,-3.5971,0.0,0.0,0.0,0.0,0.0,0.0,0.0,-3.5986,-3.5997,-3.6005,-3.5995,-3.5996,-3.5996,-3.5995,-3.5993,-3.6005,-3.5991,-3.5991,-3.6009,-3.5996,-3.5996,-3.5996,-3.5996,-3.5996,-3.5996,-3.5996,-3.5996,-3.5996,-3.5996,-3.5996,-3.5996,-3.5996,-3.5996,-3.5996,-3.5996,-3.5996,-3.5996,-3.5996,-3.5996,-3.5996,-3.5996,-3.5996,-3.5996,-3.5996,-3.5996,-3.5996,-3.5996,-3.5996,-3.5996,-3.5996,-3.5996,-3.5996,-3.5996,-3.5996,-3.5996,-3.5996,-3.5996,-3.5996,-3.5996,-3.5996,-3.5996,-3.5996,-3.5996,-3.5996,-3.6426,-3.7285,-3.7441,-3.832,-3.9902,-4.0059,-4.0508,-4.1191,-4.1191,-4.1191,-4.1191,-4.1191,-4.1289,-4.1465,-4.2129,-4.3437,-4.5098,-4.5957,-4.6308,-4.6308,-4.6308,-4.6308,-4.6308,-3.5995,0.0,0.0,0.0,-3.5995,-3.6151,-3.6601,-3.668,-3.668,-3.668,-3.7031,-3.7637,-3.8555,-3.9023,-3.9629,-4.0508,-4.0566,-4.0566,-4.0566,-4.0156,-3.9531,-3.8691,-3.7773,-3.7109,-3.668,-3.623,-3.5996,-3.5996,-3.5996,-3.5995,-3.5995,0.0,0.0,0.0,0.0,-3.5966,0.0,-3.6003,-3.5994,-3.5996,-3.5996,-3.5996,-3.5996,-3.5995,-3.5994,-3.5991,-3.5991,-3.5994,-3.5996,-3.5996,-3.5996,-3.5996,-3.5996,-3.5996,-3.5996,-3.5996,-3.5996,-3.5996,-3.5996,-3.5996,-3.5996,-3.5996,-3.5996,-3.5996,-3.5996,-3.5996,-3.5996,-3.5996,-3.5996,-3.5996,-3.5996,-3.5996,-3.5996,-3.5996,-3.5996,-3.5996,-3.5996,-3.5996,-3.5996,-3.5996,-3.5996,-3.5996,-3.5996,-3.5996,-3.5996,-3.5996,-3.5996,-3.5996,-3.5996,-3.5996,-3.5996,-3.5996,-3.5996,-3.6191,-3.6621,-3.707,-3.7949,-3.9238,-3.9687,-4.0351,-4.1191,-4.1191,-4.1191,-4.1191,-4.1191,-4.1191,-4.1269,-4.207,-4.3164,-4.4414,-4.5293,-4.5898,-4.6308,-4.6308,-4.6308,-4.6308,-3.5982,-3.5971,0.0,-3.6213,-3.6259,-3.6557,-3.744,-3.7578,-3.7578,-3.7578,-3.7734,-3.8379,-3.9746,-4.0078,-4.0449,-4.1133,-4.1191,-4.1191,-4.1191,-4.0566,-4.0098,-3.9902,-3.8418,-3.748,-3.7305,-3.6445,-3.5996,-3.5996,-3.5996,-3.5996,-3.5996,-3.5995,0.0,0.0,0.0,-3.6001,-3.6003,-3.5995,-3.5996,-3.5996,-3.5996,-3.5996,-3.5996,-3.5996,-3.5996,-3.5996,-3.5996,-3.5996,-3.5996,-3.5996,-3.5996,-3.5996,-3.5996,-3.5996,-3.5996,-3.5996,-3.5996,-3.5996,-3.5996,-3.5996,-3.5996,-3.5996,-3.5996,-3.5996,-3.5996,-3.5996,-3.5996,-3.5996,-3.5996,-3.5996,-3.5996,-3.5996,-3.5996,-3.5996,-3.5996,-3.5996,-3.5996,-3.5996,-3.5996,-3.5996,-3.5996,-3.5996,-3.5996,-3.5996,-3.5996,-3.5996,-3.5996,-3.5996,-3.5996,-3.5996,-3.5996,-3.5996,-3.5996,-3.5996,-3.5996,-3.668,-3.7559,-3.8613,-3.9297,-4.0176,-4.1191,-4.1191,-4.1191,-4.1191,-4.1191,-4.1191,-4.1269,-4.207,-4.2793,-4.3516,-4.4375,-4.5254,-4.6016,-4.6016,-4.6133,-4.6308,-3.5904,0.0,-3.6167,-3.6947,-3.7086,-3.7402,-3.8341,-3.8473,-3.8476,-3.8476,-3.918,-3.9726,-3.9883,-4.0605,-4.1113,-4.1191,-4.1191,-4.1191,-4.1191,-4.1113,-4.0723,-3.9922,-3.8984,-3.8105,-3.7324,-3.6445,-3.5996,-3.5996,-3.5996,-3.5996,-3.5996,-3.5996,-3.5996,-3.5996,-3.5996,-3.5996,-3.5996,-3.5996,-3.5996,-3.5996,-3.5996,-3.5996,-3.5996,-3.5996,-3.5996,-3.5996,-3.5996,-3.5996,-3.5996,-3.5996,-3.5996,-3.5996,-3.5996,-3.5996,-3.5996,-3.5996,-3.5996,-3.5996,-3.5996,-3.5996,-3.5996,-3.5996,-3.5996,-3.5996,-3.5996,-3.5996,-3.5996,-3.5996,-3.5996,-3.5996,-3.5996,-3.5996,-3.5996,-3.5996,-3.5996,-3.5996,-3.5996,-3.5996,-3.5996,-3.5996,-3.5996,-3.5996,-3.5996,-3.5996,-3.5996,-3.5996,-3.5996,-3.5996,-3.5996,-3.5996,-3.5996,-3.5996,-3.5996,-3.5996,-3.5996,-3.6074,-3.6953,-3.8594,-3.8672,-3.959,-4.1191,-4.1191,-4.1191,-4.1191,-4.1191,-4.1191,-4.1269,-4.207,-4.2441,-4.2617,-4.3476,-4.4355,-4.5117,-4.5117,-4.5625,-4.6308,-3.6515,-3.6631,-3.6897,-3.7774,-3.7915,-3.8234,-3.9181,-3.9318,-3.9502,-4.0029,-3.9979,-4.0098,-4.0625,-4.0996,-4.1191,-4.1191,-4.1191,-4.1191,-4.1191,-4.1191,-4.1035,-4.0703,-3.9336,-3.8437,-3.8086,-3.6719,-3.5996,-3.5996,-3.5996,-3.5996,-3.5996,-3.5996,-3.5996,-3.5996,-3.5996,-3.5996,-3.5996,-3.5996,-3.5996,-3.5996,-3.5996,-3.5996,-3.5996,-3.5996,-3.5996,-3.5996,-3.5996,-3.5996,-3.5996,-3.5996,-3.5996,-3.5996,-3.5996,-3.5996,-3.5996,-3.5996,-3.5996,-3.5996,-3.5996,-3.5996,-3.5996,-3.5996,-3.5996,-3.5996,-3.5996,-3.5996,-3.5996,-3.5996,-3.5996,-3.5996,-3.5996,-3.5996,-3.5996,-3.5996,-3.5996,-3.5996,-3.5996,-3.5996,-3.5996,-3.5996,-3.5996,-3.5996,-3.5996,-3.5996,-3.5996,-3.5996,-3.5996,-3.5996,-3.5996,-3.5996,-3.5996,-3.5996,-3.5996,-3.5996,-3.5996,-3.5996,-3.6875,-3.8594,-3.8594,-3.9512,-4.1191,-4.1191,-4.1171,-4.1144,-4.1144,-4.1146,-4.1169,-4.1482,-4.1931,-4.2439,-4.2771,-4.3455,-4.4276,-4.4802,-4.5212,-4.5583,-3.7305,-3.7422,-3.7702,-3.8572,-3.8751,-3.9098,-4.0003,-4.0145,-4.0368,-4.0983,-4.0577,-4.0479,-4.1093,-4.1172,-4.1172,-4.1172,-4.1191,-4.1191,-4.1191,-4.1191,-4.1191,-4.1191,-3.9785,-3.8867,-3.8613,-3.7148,-3.6269,-3.5996,-3.5996,-3.5996,-3.5996,-3.5996,-3.5996,-3.5996,-3.5996,-3.5996,-3.5996,-3.5996,-3.5996,-3.5996,-3.5996,-3.5996,-3.5996,-3.5996,-3.5996,-3.5996,-3.5996,-3.5996,-3.5996,-3.5996,-3.5996,-3.5996,-3.5996,-3.5996,-3.5996,-3.5996,-3.5996,-3.5996,-3.5996,-3.5996,-3.5996,-3.5996,-3.5996,-3.5996,-3.5996,-3.5996,-3.5996,-3.5996,-3.5996,-3.5996,-3.5996,-3.5996,-3.5996,-3.5996,-3.5996,-3.5996,-3.5996,-3.5996,-3.5996,-3.5996,-3.5996,-3.5996,-3.5996,-3.5996,-3.5996,-3.5996,-3.5996,-3.5996,-3.5996,-3.5996,-3.5996,-3.5996,-3.5996,-3.5996,-3.5996,-3.5996,-3.6875,-3.8594,-3.8594,-3.9512,-4.1191,-4.1191,-4.1168,-4.1108,-4.1097,-4.1101,-4.1091,-4.1097,-4.1468,-4.2017,-4.2017,-4.2546,-4.3388,-4.4013,-4.4557,-4.5096,-3.8175,-3.8191,-3.8457,-3.9323,-3.9597,-3.9988,-4.0843,-4.1,-4.0981,-4.1003,-4.0996,-4.1013,-4.1084,-4.1093,-4.1094,-4.1094,-4.1152,-4.1191,-4.1191,-4.1191,-4.1191,-4.1191,-4.0351,-3.9473,-3.8613,-3.7734,-3.6855,-3.5996,-3.5996,-3.5996,-3.5996,-3.5996,-3.5996,-3.5996,-3.5996,-3.5996,-3.5996,-3.5996,-3.5996,-3.5996,-3.5996,-3.5996,-3.5996,-3.5996,-3.5996,-3.5996,-3.5996,-3.5996,-3.5996,-3.5996,-3.5996,-3.5996,-3.5996,-3.5996,-3.5996,-3.5996,-3.5996,-3.5996,-3.5996,-3.5996,-3.5996,-3.5996,-3.5996,-3.5996,-3.5996,-3.5996,-3.5996,-3.5996,-3.5996,-3.5996,-3.5996,-3.5996,-3.5996,-3.5996,-3.5996,-3.5996,-3.5996,-3.5996,-3.5996,-3.5996,-3.5996,-3.5996,-3.5996,-3.5996,-3.5996,-3.5996,-3.5996,-3.5996,-3.5996,-3.5996,-3.5996,-3.5996,-3.5996,-3.5996,-3.5996,-3.5996,-3.6875,-3.8594,-3.8594,-3.9512,-4.1191,-4.1191,-4.1168,-4.1108,-4.11,-4.1091,-4.1091,-4.1106,-4.1115,-4.1115,-4.1115,-4.1659,-4.2419,-4.2438,-4.3517,-4.4991,-3.8884,-3.9013,-3.929,-4.0178,-4.0343,-4.0497,-4.0819,-4.0869,-4.0859,-4.0859,-4.0888,-4.0932,-4.0967,-4.1051,-4.1105,-4.109,-4.1113,-4.1133,-4.1133,-4.1172,-4.1191,-4.1191,-4.0371,-3.9492,-3.8613,-3.7754,-3.6875,-3.5996,-3.5996,-3.5996,-3.5996,-3.5996,-3.5996,-3.5996,-3.5996,-3.5996,-3.5996,-3.5996,-3.5996,-3.5996,-3.5996,-3.5996,-3.5996,-3.5996,-3.5996,-3.5996,-3.5996,-3.5996,-3.5996,-3.5996,-3.5996,-3.5996,-3.5996,-3.5996,-3.5996,-3.5996,-3.5996,-3.5996,-3.5996,-3.5996,-3.5996,-3.5996,-3.5996,-3.5996,-3.5996,-3.5996,-3.5996,-3.5996,-3.5996,-3.5996,-3.5996,-3.5996,-3.5996,-3.5996,-3.5996,-3.5996,-3.5996,-3.5996,-3.5996,-3.5996,-3.5996,-3.5996,-3.5996,-3.5996,-3.5996,-3.5996,-3.5996,-3.5996,-3.5996,-3.5996,-3.5996,-3.5996,-3.5996,-3.5996,-3.5996,-3.5996,-3.6875,-3.8594,-3.8594,-3.9512,-4.1191,-4.1191,-4.1168,-4.1108,-4.11,-4.1071,-4.1033,-4.1033,-4.1033,-4.1033,-4.1033,-4.1226,-4.1583,-4.212,-4.268,-4.3227,-3.9702,-3.9832,-4.0034,-4.0582,-4.0681,-4.07,-4.0764,-4.075,-4.0754,-4.0754,-4.0807,-4.0828,-4.0858,-4.0945,-4.1013,-4.1055,-4.1082,-4.1108,-4.1093,-4.1132,-4.1152,-4.1152,-4.0644,-3.9805,-3.8633,-3.8066,-3.7207,-3.5996,-3.5996,-3.5996,-3.5996,-3.5996,-3.5996,-3.5996,-3.5996,-3.5996,-3.5996,-3.5996,-3.5996,-3.5996,-3.5996,-3.5996,-3.5996,-3.5996,-3.5996,-3.5996,-3.5996,-3.5996,-3.5996,-3.5996,-3.5996,-3.5996,-3.5996,-3.5996,-3.5996,-3.5996,-3.5996,-3.5996,-3.5996,-3.5996,-3.5996,-3.5996,-3.5996,-3.5996,-3.5996,-3.5996,-3.5996,-3.5996,-3.5996,-3.5996,-3.5996,-3.5996,-3.5996,-3.5996,-3.5996,-3.5996,-3.5996,-3.5996,-3.5996,-3.5996,-3.5996,-3.5996,-3.5996,-3.5996,-3.5996,-3.5996,-3.5996,-3.5996,-3.5996,-3.5996,-3.5996,-3.5996,-3.5996,-3.5996,-3.5996,-3.5996,-3.6875,-3.8613,-3.9237,-4.0114,-4.1168,-4.1168,-4.114,-4.1094,-4.1078,-4.1018,-4.0972,-4.0949,-4.0913,-4.0913,-4.0921,-4.0972,-4.1124,-4.1597,-4.2006,-4.2376,-4.0489,-4.0539,-4.0588,-4.0588,-4.0646,-4.0687,-4.0687,-4.0694,-4.0681,-4.0681,-4.0681,-4.0713,-4.0776,-4.0796,-4.0829,-4.0969,-4.1052,-4.109,-4.1084,-4.1105,-4.1108,-4.1093,-4.1094,-4.0312,-3.8633,-3.8594,-3.7754,-3.5996,-3.5996,-3.5996,-3.5996,-3.5996,-3.5996,-3.5996,-3.5996,-3.5996,-3.5996,-3.5996,-3.5996,-3.5996,-3.5996,-3.5996,-3.5996,-3.5996,-3.5996,-3.5996,-3.5996,-3.5996,-3.5996,-3.5996,-3.5996,-3.5996,-3.5996,-3.5996,-3.5996,-3.5996,-3.5996,-3.5996,-3.5996,-3.5996,-3.5996,-3.5996,-3.5996,-3.5996,-3.5996,-3.5996,-3.5996,-3.5996,-3.5996,-3.5996,-3.5996,-3.5996,-3.5996,-3.5996,-3.5996,-3.5996,-3.5996,-3.5996,-3.5996,-3.5996,-3.5996,-3.5996,-3.5996,-3.5996,-3.5996,-3.5996,-3.5996,-3.5996,-3.5996,-3.5996,-3.5996,-3.5996,-3.5996,-3.5996,-3.5996,-3.5996,-3.6875,-3.8613,-4.0301,-4.1108,-4.1104,-4.1104,-4.1109,-4.1089,-4.1023,-4.0954,-4.0898,-4.0829,-4.0779,-4.0787,-4.0789,-4.0869,-4.0988,-4.0924,-4.1457,-4.2185,-4.0489,-4.0504,-4.0523,-4.0523,-4.0539,-4.0554,-4.0554,-4.0549,-4.0549,-4.0549,-4.0598,-4.0631,-4.0665,-4.0681,-4.0738,-4.077,-4.0926,-4.1031,-4.1022,-4.1061,-4.1094,-4.1097,-4.1101,-4.0328,-3.865,-3.8593,-3.7754,-3.5996,-3.5996,-3.5996,-3.5996,-3.5996,-3.5996,-3.5996,-3.5996,-3.5996,-3.5996,-3.5996,-3.5996,-3.5996,-3.5996,-3.5996,-3.5996,-3.5996,-3.5996,-3.5996,-3.5996,-3.5996,-3.5996,-3.5996,-3.5996,-3.5996,-3.5996,-3.5996,-3.5996,-3.5996,-3.5996,-3.5996,-3.5996,-3.5996,-3.5996,-3.5996,-3.5996,-3.5996,-3.5996,-3.5996,-3.5996,-3.5996,-3.5996,-3.5996,-3.5996,-3.5996,-3.5996,-3.5996,-3.5996,-3.5996,-3.5996,-3.5996,-3.5996,-3.5996,-3.5996,-3.5996,-3.5996,-3.5996,-3.5996,-3.5996,-3.5996,-3.5996,-3.5996,-3.5996,-3.5996,-3.5996,-3.5996,-3.5996,-3.5996,-3.6009,-3.688,-3.8617,-4.0291,-4.1094,-4.1095,-4.1095,-4.1059,-4.103,-4.0937,-4.0897,-4.0823,-4.0742,-4.073,-4.0718,-4.073,-4.0807,-4.0927,-4.0837,-4.0962,-4.1156,-4.0489,-4.0489,-4.0489,-4.0489,-4.0489,-4.0489,-4.0489,-4.0489,-4.0489,-4.0489,-4.0539,-4.0539,-4.0539,-4.0617,-4.066,-4.0635,-4.0798,-4.0924,-4.0957,-4.0979,-4.1026,-4.1056,-4.1046,-4.0262,-3.8593,-3.8545,-3.7713,-3.5996,-3.5996,-3.5996,-3.5996,-3.5996,-3.5996,-3.5996,-3.5996,-3.5996,-3.5996,-3.5996,-3.5996,-3.5996,-3.5996,-3.5996,-3.5996,-3.5996,-3.5996,-3.5996,-3.5996,-3.5996,-3.5996,-3.5996,-3.5996,-3.5996,-3.5996,-3.5996,-3.5996,-3.5996,-3.5996,-3.5996,-3.5996,-3.5996,-3.5996,-3.5996,-3.5996,-3.5996,-3.5996,-3.5996,-3.5996,-3.5996,-3.5996,-3.5996,-3.5996,-3.5996,-3.5996,-3.5996,-3.5996,-3.5996,-3.5996,-3.5996,-3.5996,-3.5996,-3.5996,-3.5996,-3.5996,-3.5996,-3.5996,-3.5996,-3.5996,-3.5996,-3.5996,-3.5994,-3.5994,-3.5996,-3.5994,-3.5991,-3.5991,-3.6799,-3.764,-3.8575,-4.0252,-4.105,-4.1057,-4.1023,-4.0971,-4.0908,-4.0846,-4.0769,-4.0707,-4.0681,-4.0648,-4.0648,-4.0648,-4.072,-4.08,-4.0732,-4.072,-4.0752,-4.0489,-4.0489,-4.0489,-4.0489,-4.0489,-4.0489,-4.0489,-4.0489,-4.0489,-4.0489,-4.0489,-4.0489,-4.0489,-4.0539,-4.0573,-4.0573,-4.07,-4.0781,-4.0849,-4.0888,-4.0906,-4.0979,-4.0974,-4.0188,-3.8502,-3.8225,-3.7409,-3.5975,-3.5995,-3.5996,-3.5996,-3.5996,-3.5996,-3.5996,-3.5996,-3.5996,-3.5996,-3.5996,-3.5996,-3.5996,-3.5996,-3.5996,-3.5996,-3.5996,-3.5996,-3.5996,-3.5996,-3.5996,-3.5996,-3.5996,-3.5996,-3.5996,-3.5996,-3.5996,-3.5996,-3.5996,-3.5996,-3.5996,-3.5996,-3.5996,-3.5996,-3.5996,-3.5996,-3.5996,-3.5996,-3.5996,-3.5996,-3.5996,-3.5996,-3.5996,-3.5996,-3.5996,-3.5996,-3.5996,-3.5996,-3.5996,-3.5996,-3.5996,-3.5996,-3.5996,-3.5996,-3.5996,-3.5996,-3.5996,-3.5996,-3.5996,-3.5996,-3.5996,-3.5996,-3.6005,-3.6001,-3.5994,-3.5984,-3.601,-3.5985,-3.7718,-3.8556,-3.8514,-4.0174,-4.0976,-4.0963,-4.0907,-4.0849,-4.0779,-4.0718,-4.0675,-4.0593,-4.0603,-4.0607,-4.0607,-4.0607,-4.0631,-4.0687,-4.0621,-4.064,-4.0673,-4.0489,-4.0489,-4.0489,-4.0489,-4.0489,-4.0489,-4.0489,-4.0489,-4.0489,-4.0489,-4.0489,-4.0489,-4.0489,-4.0504,-4.0523,-4.0523,-4.0519,-4.0612,-4.0707,-4.0769,-4.0823,-4.0826,-4.0898,-4.0099,-3.8369,-3.6996,-3.6173,-3.5923,-3.5974,-3.5999,-3.5999,-3.6009,-3.5993,-3.5993,-3.5996,-3.5996,-3.5996,-3.5996,-3.5996,-3.5996,-3.5996,-3.5996,-3.5996,-3.5996,-3.5996,-3.5996,-3.5996,-3.5996,-3.5996,-3.5996,-3.5996,-3.5996,-3.5996,-3.5996,-3.5996,-3.5996,-3.5996,-3.5996,-3.5996,-3.5996,-3.5996,-3.5996,-3.5996,-3.5996,-3.5996,-3.5996,-3.5996,-3.5996,-3.5996,-3.5996,-3.5996,-3.5996,-3.5996,-3.5996,-3.5996,-3.5996,-3.5996,-3.5996,-3.5996,-3.5996,-3.5996,-3.5996,-3.5996,-3.5996,-3.5995,-3.6001,-3.5999,-3.5999,-3.5999,-3.5994,-3.5962,-3.5914,-3.5962,-3.5978,-3.5924,-3.7637,-3.8487,-3.8432,-4.0099,-4.0888,-4.084,-4.0826,-4.0788,-4.0707,-4.0694,-4.066,-4.0603,-4.0607,-4.0607,-4.0607,-4.0607,-4.0617,-4.0621,-4.0598,-4.0603,-4.0603,-4.0489,-4.0489,-4.0489,-4.0489,-4.0489,-4.0489,-4.0489,-4.0489,-4.0489,-4.0489,-4.0489,-4.0489,-4.0489,-4.0489,-4.0489,-4.0489,-4.0489,-4.0539,-4.0583,-4.066,-4.07,-4.0739,-4.0788,-4.0012,-3.8336,-3.6689,-3.5858,-3.5909,-3.5938,-3.5958,-3.5943,-3.5958,-3.5955,-3.5955,-3.596,-3.5964,-3.6009,-3.6009,-3.5992,-3.5995,-3.5995,-3.5995,-3.5995,-3.5995,-3.5996,-3.5996,-3.5996,-3.5996,-3.5996,-3.5996,-3.5996,-3.5996,-3.5996,-3.5996,-3.5996,-3.5996,-3.5996,-3.5996,-3.5996,-3.5996,-3.5996,-3.5996,-3.5996,-3.5996,-3.5996,-3.5996,-3.5996,-3.5996,-3.5996,-3.5996,-3.5996,-3.5996,-3.5996,-3.5996,-3.5996,-3.5996,-3.5996,-3.5996,-3.5996,-3.5996,-3.5996,-3.5996,-3.5996,-3.5996,-3.5994,-3.5994,-3.5994,-3.6001,-3.6001,-3.5973,-3.5933,-3.5898,-3.5922,-3.5922,-3.5898,-3.7557,-3.8388,-3.8363,-4.0014,-4.0784,-4.075,-4.0707,-4.0673,-4.0631,-4.0598,-4.0569,-4.0558,-4.0558,-4.0558,-4.0558,-4.0558,-4.0554,-4.0549,-4.0554,-4.0558,-4.0558,-4.0489,-4.0489,-4.0489,-4.0489,-4.0489,-4.0489,-4.0489,-4.0489,-4.0489,-4.0489,-4.0489,-4.0489,-4.0489,-4.0489,-4.0489,-4.0489,-4.0489,-4.0489,-4.0489,-4.0539,-4.0603,-4.066,-4.0287,-3.9412,-3.8015,-3.6532,-3.5779,-3.5853,-3.5853,-3.584,-3.5857,-3.5864,-3.5879,-3.588,-3.5895,-3.5927,-3.5981,-3.5978,-3.5985,-3.5977,-3.5979,-3.5982,-3.5986,-3.5986,-3.5991,-3.5995,-3.5996,-3.5996,-3.5996,-3.5995,-3.5995,-3.5995,-3.5995,-3.5995,-3.5995,-3.5996,-3.5996,-3.5996,-3.5996,-3.5996,-3.5996,-3.5996,-3.5996,-3.5996,-3.5996,-3.5996,-3.5996,-3.5996,-3.5996,-3.5996,-3.5996,-3.5996,-3.5996,-3.5996,-3.5996,-3.5995,-3.5995,-3.5995,-3.5996,-3.5996,-3.5996,-3.5996,-3.5995,-3.5995,-3.5991,-3.5991,-3.5997,-3.5992,-3.5981,-3.5905,-3.5872,-3.5854,-3.5869,-3.5869,-3.5854,-3.7471,-3.8268,-3.8267,-3.9913,-4.0681,-4.0673,-4.0603,-4.0573,-4.0573,-4.0523,-4.0489,-4.0489,-4.0489,-4.0489,-4.0489,-4.0489,-4.0489,-4.0489,-4.0489,-4.0489,-4.0489,-4.0489,-4.0489,-4.0489,-4.0489,-4.0489,-4.0489,-4.0489,-4.0489,-4.0489,-4.0489,-4.0489,-4.0489,-4.0489,-4.0489,-4.0489,-4.0489,-4.0489,-4.0489,-4.0489,-4.0504,-4.0504,-4.0504,-3.9032,-3.7816,-3.7023,-3.6091,-3.5658,-3.5708,-3.5708,-3.5698,-3.5718,-3.5782,-3.5807,-3.5815,-3.5866,-3.5894,-3.5914,-3.5905,-3.5911,-3.5918,-3.5908,-3.5914,-3.5912,-3.5912,-3.5942,-3.5996,-3.6009,-3.5992,-3.5991,-3.6001,-3.5996,-3.5996,-3.5996,-3.5996,-3.5999,-3.6009,-3.5995,-3.5996,-3.5996,-3.5996,-3.5996,-3.5996,-3.5996,-3.5996,-3.5996,-3.5996,-3.5996,-3.5996,-3.5996,-3.5996,-3.5996,-3.5996,-3.5996,-3.5996,-3.6009,-3.5996,-3.5996,-3.6005,-3.5994,-3.5996,-3.5996,-3.5995,-3.5999,-3.5996,-3.5991,-3.5997,-3.6001,-3.5958,-3.5911,-3.584,-3.5779,-3.5728,-3.5765,-3.5793,-3.5718,-3.737,-3.8179,-3.8124,-3.9802,-4.0622,-4.0607,-4.0539,-4.0523,-4.0523,-4.0504,-4.0489,-4.0489,-4.0489,-4.0489,-4.0489,-4.0489,-4.0489,-4.0489,-4.0489,-4.0489,-4.0489,-4.0489,-4.0489,-4.0489,-4.0489,-4.0489,-4.0489,-4.0489,-4.0489,-4.0489,-4.0489,-4.0489,-4.0489,-4.0489,-4.0489,-4.0489,-4.0489,-4.0489,-4.0489,-4.0489,-4.0027,-3.9758,-3.9758,-3.8118,-3.7088,-3.6852,-3.5977,-3.557,-3.5635,-3.5646,-3.5637,-3.5639,-3.5659,-3.5699,-3.5737,-3.5754,-3.5779,-3.5788,-3.5771,-3.5799,-3.5842,-3.5838,-3.5846,-3.5839,-3.5839,-3.5875,-3.5942,-3.5939,-3.5939,-3.5931,-3.5942,-3.5948,-3.5933,-3.5933,-3.5933,-3.5943,-3.5942,-3.5932,-3.596,-3.5986,-3.5994,-3.5996,-3.5996,-3.5996,-3.5996,-3.5996,-3.5996,-3.5996,-3.5996,-3.5994,-3.6007,-3.6007,-3.6007,-3.6007,-3.6007,-3.5999,-3.6007,-3.5997,-3.6004,-3.5991,-3.5996,-3.6003,-3.6003,-3.5994,-3.5955,-3.5934,-3.5948,-3.5943,-3.5917,-3.584,-3.5743,-3.5649,-3.5589,-3.5593,-3.5615,-3.5635,-3.6755,-3.7578,-3.8047,-3.9225,-4.0057,-4.0539,-4.0504,-4.0489,-4.0489,-4.0489,-4.0489,-4.0489,-4.0489,-4.0489,-4.0489,-4.0489,-4.0489,-4.0489,-4.0489,-4.0489,-4.0489,-4.0489,-4.0489,-4.0489,-4.0489,-4.0489,-4.0489,-4.0489,-4.0489,-4.0489,-4.0489,-4.0489,-4.0489,-4.0489,-4.0489,-4.0489,-4.0489,-4.0489,-4.0392,-4.0142,-3.9084,-3.8488,-3.8469,-3.7334,-3.6584,-3.64,-3.5817,-3.5515,-3.5572,-3.5572,-3.5565,-3.557,-3.5562,-3.5593,-3.5635,-3.5657,-3.5678,-3.5669,-3.5679,-3.5699,-3.5736,-3.5736,-3.5763,-3.5776,-3.5776,-3.5806,-3.5859,-3.5878,-3.5878,-3.5872,-3.5866,-3.5866,-3.5857,-3.585,-3.585,-3.5872,-3.5878,-3.5885,-3.5919,-3.5955,-3.5971,-3.5966,-3.5993,-3.5994,-3.5994,-3.5995,-3.5996,-3.5996,-3.5996,-3.6007,-3.6007,-3.5997,-3.5978,-3.5974,-3.597,-3.597,-3.5962,-3.5963,-3.5963,-3.5973,-3.5973,-3.597,-3.5974,-3.5966,-3.5933,-3.5885,-3.5879,-3.5842,-3.5821,-3.5745,-3.5629,-3.5558,-3.5489,-3.5509,-3.5515,-3.5572,-3.6369,-3.717,-3.7998,-3.8888,-3.9719,-4.0489,-4.0489,-4.0489,-4.0489,-4.0489,-4.0489,-4.0489,-4.0489,-4.0489,-4.0489,-4.0489,-4.0489,-4.0489,-4.0489,-4.0489,-4.0489,-4.0489,-4.0489,-4.0489,-4.0489,-4.0489,-4.0489,-4.0489,-4.0489,-4.0489,-4.0489,-4.0489,-4.0489,-4.0489,-4.0489,-4.0489,-4.0489,-4.0489,-4.0162,-3.9323,-3.7651,-3.6704,-3.6699,-3.6699,-3.6334,-3.5526,-3.5493,-3.5493,-3.5493,-3.5493,-3.5493,-3.5507,-3.5509,-3.5502,-3.5496,-3.5577,-3.5601,-3.5601,-3.5596,-3.5607,-3.5607,-3.5607,-3.5648,-3.5707,-3.5707,-3.5737,-3.5791,-3.5791,-3.5803,-3.5794,-3.5788,-3.5791,-3.5791,-3.5718,-3.5736,-3.5791,-3.5791,-3.5852,-3.5908,-3.5908,-3.5905,-3.5905,-3.5978,-3.5991,-3.5996,-3.6009,-3.5991,-3.5991,-3.5991,-3.6001,-3.6001,-3.5997,-3.5947,-3.5897,-3.5905,-3.5892,-3.5892,-3.5903,-3.5911,-3.5891,-3.5908,-3.5908,-3.5891,-3.591,-3.5903,-3.5869,-3.5799,-3.5735,-3.5669,-3.5604,-3.5547,-3.5509,-3.5507,-3.5493,-3.5493,-3.5493,-3.6295,-3.7142,-3.8007,-3.8873,-3.97,-4.0489,-4.0489,-4.0489,-4.0489,-4.0489,-4.0489,-4.0489,-4.0489,-4.0489,-4.0489,-4.0489,-4.0489,-4.0489,-4.0489,-4.0489,-4.0489,-4.0489,-4.0489,-4.0489,-4.0489,-4.0489,-4.0489,-4.0489,-4.0489,-4.0489,-4.0489,-4.0489,-4.0489,-4.0489,-4.0489,-4.0489,-4.0489,-3.9973,-3.9035,-3.7574,-3.6998,-3.6454,-3.5878,-3.5872,-3.5757,-3.5526,-3.5493,-3.5493,-3.5493,-3.5493,-3.5493,-3.5507,-3.5501,-3.5501,-3.5501,-3.5528,-3.5528,-3.5528,-3.5522,-3.5528,-3.5534,-3.5534,-3.5577,-3.5639,-3.5639,-3.5643,-3.5667,-3.5667,-3.5649,-3.566,-3.5659,-3.5659,-3.5649,-3.5639,-3.5639,-3.5679,-3.5718,-3.5747,-3.5754,-3.5771,-3.5763,-3.5799,-3.5905,-3.5922,-3.5928,-3.5938,-3.5934,-3.5923,-3.5923,-3.5938,-3.593,-3.5931,-3.5878,-3.584,-3.5826,-3.583,-3.5815,-3.5771,-3.576,-3.576,-3.5752,-3.5752,-3.5763,-3.5765,-3.5747,-3.5757,-3.5728,-3.5658,-3.5604,-3.5528,-3.5515,-3.5509,-3.5507,-3.5493,-3.5493,-3.5493,-3.5738,-3.6276,-3.7103,-3.7969,-3.8834,-3.9681,-4.0239,-4.0489,-4.0489,-4.0489,-4.0489,-4.0489,-4.0489,-4.0489,-4.0489,-4.0489,-4.0489,-4.0489,-4.0489,-4.0489,-4.0489,-4.0489,-4.0489,-4.0489,-4.0489,-4.0489,-4.0489,-4.0489,-4.0489,-4.0489,-4.0489,-4.0489,-4.0489,-4.0489,-4.0489,-4.0354,-4.0046,-3.8954,-3.7828,-3.6761,-3.6402,-3.6012,-3.5512,-3.5493,-3.5493,-3.5493,-3.5493,-3.5493,-3.5493,-3.5493,-3.5493,-3.5493,-3.5493,-3.5493,-3.5493,-3.5493,-3.5493,-3.5493,-3.5493,-3.5501,-3.5509,-3.5509,-3.5509,-3.5554,-3.5554,-3.556,-3.5565,-3.5565,-3.5589,-3.5593,-3.5581,-3.557,-3.5546,-3.5546,-3.5558,-3.5581,-3.5612,-3.5635,-3.5657,-3.5658,-3.5669,-3.5669,-3.5754,-3.5799,-3.5834,-3.585,-3.5852,-3.5853,-3.5872,-3.5859,-3.5842,-3.5834,-3.5788,-3.5752,-3.5763,-3.5754,-3.5736,-3.567,-3.566,-3.565,-3.5669,-3.5658,-3.5658,-3.5658,-3.5667,-3.5646,-3.5623,-3.5577,-3.5547,-3.5509,-3.5509,-3.5515,-3.5507,-3.5493,-3.5493,-3.5493,-3.5493,-3.5911,-3.6719,-3.7584,-3.845,-3.9315,-4.0123,-4.0489,-4.0489,-4.0489,-4.0489,-4.0489,-4.0489,-4.0489,-4.0489,-4.0489,-4.0489,-4.0489,-4.0489,-4.0489,-4.0489,-4.0489,-4.0489,-4.0489,-4.0489,-4.0489,-4.0489,-4.0489,-4.0489,-4.0489,-4.0489,-4.0489,-4.0489,-4.0489,-4.0431,-4.0104,-3.9354,-3.7709,-3.668,-3.6596,-3.5907,-3.5493,-3.5493,-3.5493,-3.5493,-3.5493,-3.5493,-3.5493,-3.5493,-3.5493,-3.5493,-3.5493,-3.5493,-3.5493,-3.5493,-3.5493,-3.5493,-3.5493,-3.5493,-3.5493,-3.5493,-3.5493,-3.5493,-3.5493,-3.5493,-3.5501,-3.5502,-3.5502,-3.5547,-3.5579,-3.5515,-3.5495,-3.5493,-3.5493,-3.5515,-3.5502,-3.5502,-3.554,-3.5589,-3.5589,-3.5593,-3.5596,-3.5596,-3.5648,-3.5699,-3.5773,-3.5782,-3.5779,-3.5779,-3.5776,-3.5754,-3.5697,-3.5689,-3.5689,-3.5678,-3.5698,-3.5679,-3.5607,-3.5596,-3.5585,-3.5589,-3.5589,-3.5589,-3.5589,-3.5589,-3.5565,-3.5502,-3.5501,-3.5493,-3.5493,-3.5493,-3.5493,-3.5493,-3.5493,-3.5493,-3.5493,-3.5493,-3.5872,-3.6603,-3.7546,-3.8411,-3.92,-4.0085,-4.0489,-4.0489,-4.0489,-4.0489,-4.0489,-4.0489,-4.0489,-4.0489,-4.0489,-4.0489,-4.0489,-4.0489,-4.0489,-4.0489,-4.0489,-4.0489,-4.0489,-4.0489,-4.0489,-4.0489,-4.0489,-4.0489,-4.0489,-4.0489,-4.0489,-4.0489,-4.0489,-3.9931,-3.9488,-3.9319,-3.7717,-3.6435,-3.5806,-3.5608,-3.5493,-3.5493,-3.5493,-3.5493,-3.5493,-3.5493,-3.5493,-3.5493,-3.5493,-3.5493,-3.5493,-3.5493,-3.5493,-3.5493,-3.5493,-3.5493,-3.5493,-3.5493,-3.5493,-3.5493,-3.5493,-3.5493,-3.5493,-3.5493,-3.5507,-3.5501,-3.5501,-3.5501,-3.552,-3.5501,-3.5507,-3.5493,-3.5493,-3.5507,-3.5501,-3.5501,-3.5501,-3.5515,-3.5515,-3.5528,-3.5528,-3.5528,-3.5522,-3.556,-3.5637,-3.5639,-3.5649,-3.564,-3.5639,-3.5646,-3.5626,-3.5623,-3.562,-3.5628,-3.5608,-3.5608,-3.5521,-3.5521,-3.5528,-3.5528,-3.5515,-3.5515,-3.5515,-3.5515,-3.5515,-3.5501,-3.5507,-3.5493,-3.5493,-3.5493,-3.5493,-3.5493,-3.5493,-3.5493,-3.5493,-3.5493,-3.5603,-3.5795,-3.7276,-3.8104,-3.8334,-3.9815,-4.0489,-4.0489,-4.0489,-4.0489,-4.0489,-4.0489,-4.0489,-4.0489,-4.0489,-4.0489,-4.0489,-4.0489,-4.0489,-4.0489,-4.0489,-4.0489,-4.0489,-4.0489,-4.0489,-4.0489,-4.0489,-4.0489,-4.0354,-3.9969,-3.9931,-3.9758,-3.9354,-3.8931,-3.8512,-3.8101,-3.6891,-3.5945,-3.5532,-3.5493,-3.5493,-3.5493,-3.5493,-3.5493,-3.5493,-3.5493,-3.5493,-3.5493,-3.5493,-3.5493,-3.5493,-3.5493,-3.5493,-3.5493,-3.5493,-3.5493,-3.5493,-3.5493,-3.5493,-3.5493,-3.5493,-3.5493,-3.5493,-3.5493,-3.5493,-3.5493,-3.5493,-3.5493,-3.5493,-3.5493,-3.5493,-3.5493,-3.5493,-3.5493,-3.5493,-3.5493,-3.5493,-3.5493,-3.5493,-3.5493,-3.5493,-3.5493,-3.5493,-3.5501,-3.5546,-3.555,-3.557,-3.5581,-3.5558,-3.5546,-3.5546,-3.554,-3.556,-3.556,-3.5591,-3.5591,-3.5515,-3.5515,-3.5489,-3.5507,-3.5493,-3.5493,-3.5493,-3.5493,-3.5493,-3.5493,-3.5493,-3.5493,-3.5493,-3.5493,-3.5493,-3.5493,-3.5493,-3.5493,-3.5493,-3.5493,-3.5699,-3.6103,-3.7373,-3.8007,-3.8065,-3.9738,-4.0489,-4.0489,-4.0489,-4.0489,-4.0489,-4.0489,-4.0489,-4.0489,-4.0489,-4.0489,-4.0489,-4.0489,-4.0489,-4.0489,-4.0065,-4.0065,-4.0065,-4.0065,-4.0065,-4.0065,-4.0065,-4.0065,-3.9815,-3.9161,-3.9084,-3.8796,-3.8084,-3.7877,-3.7444,-3.6573,-3.5869,-3.5493,-3.5493,-3.5493,-3.5493,-3.5493,-3.5493,-3.5493,-3.5493,-3.5493,-3.5493,-3.5493,-3.5493,-3.5493,-3.5493,-3.5493,-3.5493,-3.5493,-3.5493,-3.5493,-3.5493,-3.5493,-3.5493,-3.5493,-3.5493,-3.5493,-3.5493,-3.5493,-3.5493,-3.5493,-3.5493,-3.5493,-3.5493,-3.5493,-3.5493,-3.5493,-3.5493,-3.5493,-3.5493,-3.5493,-3.5493,-3.5493,-3.5493,-3.5493,-3.5493,-3.5493,-3.5493,-3.5488,-3.5509,-3.5502,-3.5522,-3.5566,-3.5534,-3.5502,-3.5502,-3.5502,-3.5502,-3.5502,-3.5547,-3.5566,-3.5502,-3.5502,-3.5509,-3.5507,-3.5493,-3.5493,-3.5493,-3.5493,-3.5493,-3.5493,-3.5493,-3.5493,-3.5493,-3.5493,-3.5493,-3.5493,-3.5493,-3.5493,-3.5493,-3.5493,-3.5911,-3.6719,-3.7584,-3.8084,-3.8277,-3.9796,-4.0489,-4.0489,-4.0489,-4.0489,-4.0489,-4.0489,-4.0489,-4.0489,-4.0489,-4.0489,-4.0489,-4.0489,-4.0489,-4.0489,-3.8334,-3.8334,-3.8334,-3.8334,-3.8334,-3.8334,-3.8334,-3.8334,-3.8296,-3.818,-3.818,-3.8142,-3.8012,-3.7333,-3.655,-3.5729,-3.5551,-3.5493,-3.5493,-3.5493,-3.5493,-3.5493,-3.5493,-3.5493,-3.5493,-3.5493,-3.5493,-3.5493,-3.5493,-3.5493,-3.5493,-3.5493,-3.5493,-3.5493,-3.5493,-3.5493,-3.5493,-3.5493,-3.5493,-3.5493,-3.5493,-3.5493,-3.5493,-3.5493,-3.5493,-3.5493,-3.5493,-3.5493,-3.5493,-3.5493,-3.5493,-3.5493,-3.5493,-3.5493,-3.5493,-3.5493,-3.5493,-3.5493,-3.5493,-3.5493,-3.5493,-3.5493,-3.5493,-3.5507,-3.5507,-3.5507,-3.5488,-3.552,-3.5507,-3.5507,-3.5507,-3.5507,-3.5507,-3.5507,-3.5507,-3.552,-3.5488,-3.5507,-3.5507,-3.5507,-3.5493,-3.5493,-3.5493,-3.5493,-3.5493,-3.5493,-3.5493,-3.5493,-3.5493,-3.5493,-3.5493,-3.5493,-3.5493,-3.5493,-3.5493,-3.5493,-3.5911,-3.6719,-3.7584,-3.8392,-3.9161,-4.0065,-4.0489,-4.0489,-4.0489,-4.0489,-4.0489,-4.0489,-4.0489,-4.0489,-4.0489,-4.0489,-4.0489,-4.0489,-4.0489,-4.0489,-3.7924,-3.7939,-3.7959,-3.7988,-3.8007,-3.8007,-3.8007,-3.8007,-3.7834,-3.7334,-3.7262,-3.7089,-3.6647,-3.6253,-3.5888,-3.5532,-3.5493,-3.5493,-3.5493,-3.5493,-3.5493,-3.5493,-3.5493,-3.5493,-3.5493,-3.5493,-3.5493,-3.5493,-3.5493,-3.5493,-3.5493,-3.5493,-3.5493,-3.5493,-3.5493,-3.5493,-3.5493,-3.5493,-3.5493,-3.5493,-3.5493,-3.5493,-3.5493,-3.5493,-3.5493,-3.5493,-3.5493,-3.5493,-3.5493,-3.5493,-3.5493,-3.5493,-3.5493,-3.5493,-3.5493,-3.5493,-3.5493,-3.5493,-3.5493,-3.5493,-3.5493,-3.5493,-3.5493,-3.5493,-3.5493,-3.5493,-3.5493,-3.5493,-3.5493,-3.5493,-3.5493,-3.5493,-3.5493,-3.5493,-3.5493,-3.5493,-3.5493,-3.5493,-3.5493,-3.5493,-3.5493,-3.5493,-3.5493,-3.5493,-3.5493,-3.5493,-3.5493,-3.5493,-3.5493,-3.5493,-3.5493,-3.5493,-3.5493,-3.5493,-3.5493,-3.5493,-3.6161,-3.743,-3.7815,-3.845,-3.9315,-4.0123,-4.0489,-4.0489,-4.0489,-4.0489,-4.0489,-4.0489,-4.0489,-4.0489,-4.0489,-4.0219,-3.9815,-3.9815,-3.9508,-3.9104]}]]